Date StartTime U_cm/s V_cm/s W_cm/s Ustd_cm/s Vstd_cm/s Wstd_cm/s Uvar_(cm/s)^2 Vvar_(cm/s)^2 Wvar_(cm/s)^2 KE_(m/s)^2 TurbulentKE_(m/s)^2 HorizWindSpeed_cm/s FrictionSpeec_cm/s DragCoef SpeedOfSound_m/s SonicTemperature_C Pressure_mb 
04/02/2014  00:00:00      -60.317       25.396       -8.223       26.697       51.881       23.023      712.740     2691.645      530.067        0.414        0.197       65.446       13.899        0.045      333.155        2.285      853.999
04/02/2014  00:01:00      -70.828       31.823      -11.868       43.935       38.308       29.781     1930.286     1467.493      886.879        0.523        0.214       77.649       30.685        0.156      333.105        2.202      854.004
04/02/2014  00:02:00      -94.840       70.101      -21.823       42.864       56.369       18.987     1837.362     3177.499      360.519        0.988        0.269      117.935       22.065        0.035      333.110        2.211      854.004
04/02/2014  00:03:00     -125.812       66.338      -24.957       86.470       78.146       40.606     7477.025     6106.858     1648.872        1.804        0.762      142.230       37.308        0.069      333.095        2.185      854.007
04/02/2014  00:04:00     -103.582       72.325      -15.932       42.493       40.524       28.593     1805.683     1642.163      817.558        1.024        0.213      126.334       22.475        0.032      333.107        2.206      854.026
04/02/2014  00:05:00     -185.829      194.099      -55.822       64.423       64.300       38.855     4150.329     4134.460     1509.749        4.256        0.490      268.714       35.102        0.017      333.115        2.217      854.037
04/02/2014  00:06:00     -142.155      132.258      -16.980       81.907       73.318       44.443     6708.776     5375.553     1975.204        2.602        0.703      194.166       44.269        0.052      333.098        2.188      854.030
04/02/2014  00:07:00     -131.817      108.142      -22.454       66.886       90.471       50.860     4473.746     8184.933     2586.756        2.241        0.762      170.501       54.802        0.103      333.079        2.159      854.035
04/02/2014  00:08:00     -159.445      177.570      -37.347       62.500       85.952       43.227     3906.272     7387.778     1868.597        3.575        0.658      238.650       40.393        0.029      333.049        2.108      854.044
04/02/2014  00:09:00     -101.949      134.311      -25.265       57.548       64.413       43.226     3311.718     4148.984     1868.480        1.920        0.466      168.621       40.720        0.058      333.000        2.026      854.048
04/02/2014  00:10:00     -121.660      185.987      -32.000       60.024       89.482       43.374     3602.849     8007.082     1881.330        3.195        0.675      222.243       40.745        0.034      332.991        2.010      854.043
04/02/2014  00:11:00     -143.560      104.564      -33.581       39.558       45.075       29.358     1564.839     2031.730      861.866        1.856        0.223      177.604       28.317        0.025      333.000        2.027      854.054
04/02/2014  00:12:00     -119.896       71.980      -12.471       51.911       62.647       33.156     2694.792     3924.641     1099.320        1.371        0.386      139.843       23.826        0.029      333.043        2.099      854.042
04/02/2014  00:13:00     -134.224       79.303      -13.748       95.877       48.073       43.759     9192.306     2311.041     1914.866        1.895        0.671      155.901       43.821        0.079      332.999        2.025      854.035
04/02/2014  00:14:00     -137.624      107.392      -25.495       57.799       68.128       34.969     3340.722     4641.435     1222.798        2.016        0.460      174.566       37.566        0.046      333.020        2.061      854.044
04/02/2014  00:15:00     -150.551      123.447      -35.117       73.460       65.771       37.157     5396.339     4325.889     1380.644        2.512        0.555      194.691       35.316        0.033      333.045        2.101      854.035
04/02/2014  00:16:00     -150.387      169.742      -27.087       72.754       51.726       44.055     5293.116     2675.609     1940.827        3.103        0.495      226.778       43.782        0.037      333.049        2.108      854.023
04/02/2014  00:17:00     -156.857      182.663      -26.378       71.422       91.093       54.609     5101.040     8297.910     2982.114        3.752        0.819      240.769       53.924        0.050      332.997        2.020      854.020
04/02/2014  00:18:00     -114.748      164.700      -21.043       51.456       69.370       35.238     2647.764     4812.229     1241.685        2.472        0.435      200.731       35.193        0.031      333.014        2.049      854.007
04/02/2014  00:19:00     -131.053      180.708      -36.054       69.905       82.668       47.004     4886.706     6833.934     2209.410        3.253        0.697      223.227       47.589        0.045      333.057        2.122      854.004
04/02/2014  00:20:00     -123.631      132.606      -25.532       60.537       65.071       42.967     3664.715     4234.183     1846.135        2.163        0.487      181.299       36.326        0.040      333.054        2.118      854.014
04/02/2014  00:21:00      -75.024      124.640       -3.821       44.569       72.420       28.668     1986.381     5244.711      821.846        1.461        0.403      145.478       30.254        0.043      333.088        2.173      854.006
04/02/2014  00:22:00      -67.116       72.147      -19.644       40.853       39.928       25.943     1668.947     1594.216      673.016        0.702        0.197       98.538       17.753        0.032      333.056        2.121      854.007
04/02/2014  00:23:00      -42.236       72.684      -10.580       34.196       53.428       28.530     1169.356     2854.536      813.986        0.601        0.242       84.065       15.509        0.034      333.019        2.059      853.999
04/02/2014  00:24:00     -132.829      135.438      -22.558       79.490      104.839       45.542     6318.676    10991.265     2074.057        2.794        0.969      189.702       44.305        0.055      333.023        2.066      853.998
04/02/2014  00:25:00     -126.758      128.170      -23.830       49.648       77.756       38.034     2464.879     6046.072     1446.582        2.151        0.498      180.265       30.588        0.029      332.958        1.957      854.015
04/02/2014  00:26:00     -175.631      110.138      -35.590       69.717       73.296       43.983     4860.489     5372.287     1934.518        2.820        0.608      207.308       42.126        0.041      333.026        2.069      854.012
04/02/2014  00:27:00     -107.680      112.155      -13.358       65.461       73.957       37.213     4285.120     5469.700     1384.811        1.774        0.557      155.479       31.154        0.040      332.965        1.968      854.012
04/02/2014  00:28:00     -125.014       99.026      -11.291       79.626       78.799       45.922     6340.346     6209.354     2108.851        2.011        0.733      159.483       35.174        0.049      332.970        1.978      854.005
04/02/2014  00:29:00     -122.592       70.297      -27.163       58.760       37.646       32.256     3452.780     1417.188     1040.442        1.331        0.296      141.317       17.477        0.015      332.943        1.933      853.994
04/02/2014  00:30:00     -117.107      152.962      -18.104       63.452       74.888       47.183     4026.139     5608.174     2226.265        2.465        0.593      192.643       41.855        0.047      332.908        1.874      853.986
04/02/2014  00:31:00     -148.730      172.798      -38.944       34.203       53.990       32.620     1169.829     2914.900     1064.053        2.932        0.257      227.991       19.792        0.008      332.949        1.941      853.994
04/02/2014  00:32:00     -113.083       57.195      -23.890       56.890       61.445       34.077     3236.466     3775.525     1161.268        1.240        0.409      126.724       25.901        0.042      333.034        2.085      854.001
04/02/2014  00:33:00      -89.908       78.142      -10.829       65.674       68.092       39.575     4313.033     4636.511     1566.211        1.241        0.526      119.121       40.292        0.114      333.037        2.090      854.003
04/02/2014  00:34:00      -82.572       88.688      -15.078       44.623       51.364       33.734     1991.235     2638.265     1137.950        1.034        0.288      121.176       30.451        0.063      332.996        2.021      854.008
04/02/2014  00:35:00     -148.013       96.124      -20.585       71.751       74.307       42.725     5148.156     5521.493     1825.405        2.203        0.625      176.487       40.645        0.053      333.072        2.147      854.013
04/02/2014  00:36:00      -97.214       87.232       -9.235       46.887       47.617       30.738     2198.349     2267.334      944.834        1.128        0.271      130.614       25.674        0.039      333.064        2.133      854.021
04/02/2014  00:37:00     -133.638       88.705      -19.941       71.205       58.275       43.748     5070.188     3395.943     1913.912        1.825        0.519      160.399       40.957        0.065      333.074        2.150      854.048
04/02/2014  00:38:00      -98.629      120.078      -17.092       50.793       70.682       38.216     2579.916     4995.938     1460.485        1.674        0.452      155.391       33.232        0.046      333.021        2.062      854.059
04/02/2014  00:39:00      -87.431      155.167      -14.479       33.147       69.532       37.237     1098.695     4834.676     1386.576        1.962        0.366      178.104       36.539        0.042      333.043        2.098      854.064
04/02/2014  00:40:00      -93.503       84.822      -11.642       47.660       50.033       27.227     2271.482     2503.283      741.336        1.079        0.276      126.244       19.356        0.024      333.014        2.051      854.066
04/02/2014  00:41:00      -68.681       19.570       -2.799       46.490       60.437       27.505     2161.331     3652.684      756.541        0.584        0.329       71.415       30.919        0.187      333.048        2.109      854.081
04/02/2014  00:42:00      -99.804       55.248      -11.865       57.699       55.842       33.803     3329.190     3118.313     1142.617        1.037        0.380      114.076       32.214        0.080      333.005        2.036      854.088
04/02/2014  00:43:00     -100.806       61.512      -31.622       43.372       54.856       26.697     1881.172     3009.143      712.750        1.027        0.280      118.092       16.153        0.019      332.981        1.997      854.096
04/02/2014  00:44:00      -69.083       77.142       -2.980       41.778       41.396       32.678     1745.429     1713.649     1067.861        0.763        0.226      103.554       25.616        0.061      332.980        1.994      854.090
04/02/2014  00:45:00      -74.584       73.970      -11.007       39.453       65.094       35.458     1556.534     4237.181     1257.285        0.910        0.353      105.045       32.488        0.096      332.975        1.988      854.090
04/02/2014  00:46:00     -117.675       40.707      -17.910       50.726       39.976       25.863     2573.079     1598.041      668.875        1.033        0.242      124.516       21.074        0.029      332.896        1.856      854.102
04/02/2014  00:47:00      -92.784       93.150      -27.849       41.432       39.693       31.252     1716.604     1575.532      976.668        1.116        0.213      131.476       20.387        0.024      332.843        1.771      854.098
04/02/2014  00:48:00      -83.232       50.877      -16.770       30.949       41.628       18.711      957.852     1732.931      350.120        0.642        0.152       97.550       19.085        0.038      332.919        1.896      854.099
04/02/2014  00:49:00      -78.507       30.686      -13.464       35.652       49.797       26.828     1271.078     2479.776      719.764        0.588        0.224       84.291       20.140        0.057      332.887        1.842      854.104
04/02/2014  00:50:00      -86.381       72.497       -7.592       50.777       59.372       25.268     2578.345     3524.997      638.448        0.976        0.337      112.772       15.603        0.019      332.864        1.805      854.106
04/02/2014  00:51:00      -50.281       51.306      -10.710       30.111       31.323       22.384      906.667      981.159      501.022        0.383        0.119       71.837       17.841        0.062      332.904        1.870      854.106
04/02/2014  00:52:00      -84.051       58.019      -17.559       31.474       69.932       24.932      990.630     4890.492      621.581        0.862        0.325      102.131       30.504        0.089      332.932        1.915      854.107
04/02/2014  00:53:00      -55.727      123.279       -7.412       36.732       56.866       35.813     1349.243     3233.713     1282.598        1.211        0.293      135.290       17.777        0.017      332.929        1.911      854.111
04/02/2014  00:54:00      -59.970       57.732      -16.655       30.112       47.495       19.707      906.731     2255.752      388.351        0.538        0.178       83.243       19.055        0.052      332.937        1.924      854.108
04/02/2014  00:55:00     -118.662       36.007      -17.736       36.671       43.550       29.893     1344.763     1896.589      893.583        0.991        0.207      124.004       20.953        0.029      332.944        1.937      854.110
04/02/2014  00:56:00      -78.191       32.417       -8.525       32.989       37.482       22.619     1088.251     1404.873      511.628        0.512        0.150       84.645       20.517        0.059      332.916        1.889      854.104
04/02/2014  00:57:00      -57.072       23.002      -19.297       23.909       40.968       14.865      571.644     1678.411      220.963        0.331        0.124       61.533        6.389        0.011      332.930        1.913      854.109
04/02/2014  00:58:00      -32.585      -24.694        0.965       32.266       22.163       17.157     1041.114      491.205      294.360        0.175        0.091       40.885       17.382        0.181      332.969        1.976      854.108
04/02/2014  00:59:00      -55.249      -42.004        1.378       53.110       22.733       23.935     2820.721      516.791      572.904        0.436        0.196       69.404       28.090        0.164      332.909        1.879      854.108
04/02/2014  01:00:00      -51.655      -41.093        0.645       61.304       38.698       27.938     3758.123     1497.507      780.530        0.520        0.302       66.006       33.007        0.250      332.907        1.877      854.114
04/02/2014  01:01:00      -70.093      -45.655       -1.726       38.641       34.641       22.225     1493.090     1200.023      493.931        0.509        0.159       83.651       20.168        0.058      332.842        1.769      854.119
04/02/2014  01:02:00      -95.237      -24.548      -13.564       40.222       34.629       22.759     1617.818     1199.197      517.952        0.660        0.167       98.349        9.967        0.010      332.827        1.742      854.118
04/02/2014  01:03:00     -101.227      -40.911       -8.591       32.773       33.430       21.382     1074.077     1117.574      457.180        0.732        0.132      109.182       10.543        0.009      332.855        1.790      854.120
04/02/2014  01:04:00     -137.196      -59.287      -10.863       31.086       30.196       21.148      966.328      911.818      447.246        1.239        0.116      149.458       15.306        0.010      332.675        1.492      854.126
04/02/2014  01:05:00     -120.424      -53.964      -14.142       35.509       31.291       18.874     1260.865      979.105      356.236        1.010        0.130      131.963       14.300        0.012      332.695        1.524      854.125
04/02/2014  01:06:00     -105.685      -22.711       -3.538       52.967       40.050       22.608     2805.478     1604.041      511.120        0.831        0.246      108.098       20.404        0.036      332.604        1.375      854.127
04/02/2014  01:07:00     -144.610       -3.603      -20.335       39.488       31.831       19.784     1559.271     1013.197      391.404        1.215        0.148      144.655       13.161        0.008      332.603        1.372      854.133
04/02/2014  01:08:00     -113.109      -42.823       -7.365       45.476       36.033       22.781     2068.100     1298.381      518.996        0.928        0.194      120.944       22.609        0.035      332.570        1.316      854.130
04/02/2014  01:09:00     -104.123      -46.647        3.578       47.031       30.282       16.920     2211.961      917.025      286.289        0.822        0.171      114.095       19.835        0.030      332.577        1.330      854.133
04/02/2014  01:10:00     -109.322      -75.198       -7.294       47.285       50.113       24.840     2235.917     2511.272      617.024        1.151        0.268      132.688       23.069        0.030      332.563        1.307      854.134
04/02/2014  01:11:00     -149.451      -49.840        0.282       50.064       52.467       26.897     2506.365     2752.738      723.423        1.540        0.299      157.542       23.967        0.023      332.553        1.289      854.141
04/02/2014  01:12:00     -126.498      -39.815      -10.491       35.597       41.171       22.759     1267.169     1695.075      517.957        1.059        0.174      132.616       18.735        0.020      332.591        1.351      854.148
04/02/2014  01:13:00     -122.146      -19.102       -0.591       48.225       41.781       26.319     2325.609     1745.645      692.712        1.002        0.238      123.630       23.331        0.036      332.581        1.335      854.157
04/02/2014  01:14:00     -126.216      -37.412        1.507       61.564       40.283       32.717     3790.095     1622.723     1070.376        1.191        0.324      131.644       30.610        0.054      332.596        1.360      854.163
04/02/2014  01:15:00     -139.904      -47.228       -7.180       59.171       41.912       24.381     3501.181     1756.648      594.453        1.385        0.293      147.661       25.993        0.031      332.628        1.414      854.170
04/02/2014  01:16:00     -154.475      -48.906       -9.070       37.140       43.945       29.285     1379.368     1931.197      857.582        1.525        0.208      162.032       20.479        0.016      332.627        1.412      854.169
04/02/2014  01:17:00     -152.261      -43.454       -4.435       53.105       43.404       28.531     2820.145     1883.876      814.042        1.530        0.276      158.340       24.203        0.023      332.706        1.542      854.167
04/02/2014  01:18:00     -150.642      -30.103      -11.748       53.245       44.024       31.818     2835.022     1938.110     1012.385        1.476        0.289      153.621       30.214        0.039      332.681        1.502      854.156
04/02/2014  01:19:00     -147.558       -7.108      -19.781       41.331       43.322       27.235     1708.218     1876.801      741.728        1.327        0.216      147.729       24.562        0.028      332.670        1.485      854.150
04/02/2014  01:20:00     -106.862       -9.967       -7.943       49.767       38.615       28.565     2476.742     1491.147      815.958        0.818        0.239      107.326       28.322        0.070      332.671        1.485      854.139
04/02/2014  01:21:00     -105.196      -30.792      -11.938       36.459       44.681       24.144     1329.287     1996.357      582.954        0.803        0.195      109.610       14.228        0.017      332.680        1.500      854.108
04/02/2014  01:22:00     -199.020      -68.360      -23.232       34.146       32.723       23.412     1165.916     1070.785      548.117        2.380        0.139      210.434       16.569        0.006      332.687        1.509      854.088
04/02/2014  01:23:00     -184.347      -59.054      -26.400       36.846       34.649       23.720     1357.647     1200.541      562.647        2.064        0.156      193.574       16.984        0.008      332.690        1.514      854.070
04/02/2014  01:24:00     -172.312      -58.105      -18.259       43.403       44.878       28.474     1883.861     2014.014      810.756        1.905        0.235      181.845       22.206        0.015      332.645        1.440      854.062
04/02/2014  01:25:00     -157.636      -59.073      -13.199       51.755       46.300       29.924     2678.630     2143.656      895.443        1.711        0.286      168.341       30.237        0.032      332.642        1.437      854.045
04/02/2014  01:26:00     -128.238      -61.056      -10.390       67.506       34.174       31.437     4557.087     1167.850      988.254        1.350        0.336      142.031       27.730        0.038      332.630        1.418      854.041
04/02/2014  01:27:00     -136.594      -49.603      -10.771       48.200       37.416       22.803     2323.247     1399.961      519.991        1.274        0.212      145.321       17.278        0.014      332.629        1.416      854.037
04/02/2014  01:28:00     -160.496       -2.031      -13.681       45.220       33.335       24.469     2044.871     1111.254      598.742        1.485        0.188      160.509       22.649        0.020      332.627        1.412      854.028
04/02/2014  01:29:00     -147.592      -32.733      -14.577       41.284       61.614       30.801     1704.333     3796.288      948.694        1.476        0.322      151.179       14.815        0.010      332.623        1.405      854.022
04/02/2014  01:30:00     -113.788      -27.261      -11.458       37.313       48.508       19.758     1392.246     2352.996      390.393        0.898        0.207      117.008       12.688        0.012      332.597        1.363      854.030
04/02/2014  01:31:00      -96.501      -37.431      -19.487       31.217       34.098       22.872      974.509     1162.678      523.144        0.688        0.133      103.506        8.313        0.006      332.627        1.412      854.044
04/02/2014  01:32:00      -47.738       37.848      -10.097       56.911       51.896       24.908     3238.828     2693.147      620.390        0.518        0.328       60.921       32.778        0.289      332.646        1.444      854.064
04/02/2014  01:33:00     -112.181      171.064      -25.521       42.073       56.620       36.713     1770.139     3205.783     1347.829        2.441        0.316      204.567       37.288        0.033      332.722        1.567      854.081
04/02/2014  01:34:00     -103.252      107.465      -24.250       34.303       40.040       25.414     1176.674     1603.203      645.886        1.311        0.171      149.030       21.384        0.021      332.725        1.574      854.088
04/02/2014  01:35:00     -116.393       87.393      -23.874       42.153       42.982       28.457     1776.886     1847.464      809.789        1.309        0.222      145.550       24.480        0.028      332.671        1.485      854.099
04/02/2014  01:36:00      -99.544       60.674      -20.099       51.661       36.823       19.070     2668.828     1355.950      363.648        0.919        0.219      116.578       16.355        0.020      332.639        1.434      854.113
04/02/2014  01:37:00     -118.742      146.008      -28.104       44.011       61.056       33.421     1936.969     3727.825     1116.939        2.149        0.339      188.197       29.421        0.024      332.546        1.276      854.120
04/02/2014  01:38:00      -90.733      125.297      -24.807       51.172       49.340       27.573     2618.572     2434.461      760.280        1.518        0.291      154.699       30.379        0.039      332.602        1.370      854.120
04/02/2014  01:39:00     -107.569      156.947      -25.309       40.250       51.116       31.728     1620.075     2612.813     1006.692        2.104        0.262      190.272       27.979        0.022      332.490        1.184      854.114
04/02/2014  01:40:00     -134.716      127.829      -31.843       62.207       69.785       34.166     3869.709     4869.889     1167.337        2.270        0.495      185.711       37.390        0.041      332.509        1.216      854.103
04/02/2014  01:41:00     -107.439      137.349      -25.676       42.798       62.824       30.144     1831.705     3946.873      908.636        1.888        0.334      174.379       16.476        0.009      332.526        1.245      854.092
04/02/2014  01:42:00      -97.742       84.912      -17.222       43.426       49.903       31.782     1885.804     2490.271     1010.081        1.122        0.269      129.474       28.816        0.050      332.472        1.156      854.085
04/02/2014  01:43:00     -121.258      125.364      -34.450       47.834       48.732       24.916     2288.129     2374.762      620.830        1.844        0.264      174.412       23.529        0.018      332.424        1.078      854.070
04/02/2014  01:44:00     -115.393      133.910      -25.645       47.277       46.971       28.986     2235.081     2206.230      840.215        1.859        0.264      176.770       26.142        0.022      332.425        1.077      854.054
04/02/2014  01:45:00     -100.875       76.924      -20.523       40.596       44.917       25.121     1648.032     2017.547      631.042        1.040        0.215      126.859       19.161        0.023      332.419        1.069      854.043
04/02/2014  01:46:00     -106.994       60.600      -20.143       35.453       56.575       23.807     1256.945     3200.771      566.768        1.027        0.251      122.964       21.682        0.031      332.488        1.184      854.042
04/02/2014  01:47:00     -115.903       80.394      -14.734       36.855       51.026       23.654     1358.277     2603.623      559.535        1.232        0.226      141.055       21.476        0.023      332.394        1.028      854.043
04/02/2014  01:48:00     -106.354       52.434      -16.880       46.710       68.975       29.791     2181.856     4757.492      887.498        1.108        0.391      118.577       32.121        0.073      332.455        1.129      854.048
04/02/2014  01:49:00      -94.103       55.956      -13.859       46.797       57.905       32.389     2189.921     3352.938     1049.063        0.938        0.330      109.483       32.342        0.087      332.460        1.138      854.041
04/02/2014  01:50:00     -104.991       75.356      -24.352       34.061       44.836       23.867     1160.181     2010.255      569.627        1.052        0.187      129.235       12.546        0.009      332.497        1.197      854.040
04/02/2014  01:51:00     -125.856       68.108      -27.456       42.553       49.035       27.394     1810.782     2404.418      750.404        1.310        0.248      143.102       31.457        0.048      332.462        1.140      854.038
04/02/2014  01:52:00     -109.412       71.689      -18.435       33.750       66.277       22.196     1139.033     4392.632      492.659        1.174        0.301      130.806       21.360        0.027      332.444        1.109      854.046
04/02/2014  01:53:00      -77.279       76.582      -15.581       49.821       49.424       30.755     2482.130     2442.767      945.871        0.897        0.294      108.797       36.879        0.115      332.469        1.151      854.042
04/02/2014  01:54:00      -69.925       56.849      -11.849       35.309       44.875       27.724     1246.714     2013.734      768.608        0.614        0.201       90.118       22.029        0.060      332.459        1.136      854.033
04/02/2014  01:55:00      -77.371      -13.485        2.096       34.689       37.917       21.593     1203.323     1437.685      466.237        0.464        0.155       78.537       18.402        0.055      332.514        1.226      854.020
04/02/2014  01:56:00      -80.014      -19.443       -6.519       31.987       30.352       20.209     1023.164      921.218      408.388        0.459        0.118       82.342       12.786        0.024      332.487        1.182      854.013
04/02/2014  01:57:00      -49.065      -18.836       10.734       26.668       35.257       22.590      711.174     1243.087      510.294        0.267        0.123       52.556        9.731        0.034      332.463        1.143      854.014
04/02/2014  01:58:00     -124.266      -14.996      -11.524       32.553       41.571       22.932     1059.675     1728.149      525.886        0.956        0.166      125.167       18.760        0.022      332.507        1.214      854.009
04/02/2014  01:59:00     -102.979      -28.784       -8.047       49.628       40.352       27.535     2462.917     1628.249      758.187        0.817        0.242      106.926       23.913        0.050      332.454        1.125      853.995
04/02/2014  02:00:00     -120.390      -41.311      -14.138       44.460       28.190       27.161     1976.730      794.665      737.695        0.995        0.175      127.281       13.174        0.011      332.402        1.041      853.990
04/02/2014  02:01:00     -106.016      -30.185      -19.525       37.036       35.770       23.033     1371.661     1279.477      530.513        0.786        0.159      110.229       15.763        0.020      332.382        1.008      853.989
04/02/2014  02:02:00     -107.322      -51.336      -20.145       38.733       34.706       26.005     1500.263     1204.540      676.260        0.897        0.169      118.968       12.096        0.010      332.395        1.029      853.991
04/02/2014  02:03:00     -116.261      -40.265      -10.009       48.974       40.862       25.586     2398.459     1669.700      654.641        0.998        0.236      123.036       18.588        0.023      332.409        1.052      853.999
04/02/2014  02:04:00      -21.205      -24.384        6.550       52.114       31.445       29.245     2715.834      988.806      855.295        0.282        0.228       32.314       16.912        0.274      332.420        1.070      853.996
04/02/2014  02:05:00      -72.710      -24.082       -4.654       38.455       30.016       22.450     1478.814      900.967      503.998        0.439        0.144       76.594       16.569        0.047      332.388        1.018      854.005
04/02/2014  02:06:00      -47.021      -33.234       -7.726       39.949       26.025       28.070     1595.942      677.310      787.929        0.322        0.153       57.580       13.191        0.052      332.373        0.992      854.016
04/02/2014  02:07:00      -95.430      -45.972      -10.692       36.178       25.417       17.676     1308.851      646.047      312.449        0.680        0.113      105.926       14.634        0.019      332.333        0.928      854.009
04/02/2014  02:08:00     -125.331      -46.125       -8.072       26.868       19.855       15.145      721.895      394.221      229.379        0.962        0.067      133.549        5.730        0.002      332.203        0.714      854.003
04/02/2014  02:09:00      -87.348      -28.751       -9.796       41.902       20.588       14.444     1755.757      423.869      208.622        0.547        0.119       91.958       16.170        0.031      332.174        0.667      854.004
04/02/2014  02:10:00      -83.863      -34.666       -1.026       35.600       23.788       14.544     1267.392      565.854      211.528        0.514        0.102       90.745       14.400        0.025      332.224        0.749      853.999
04/02/2014  02:11:00      -13.986       -4.156       -5.936       34.035       28.639       14.813     1158.360      820.207      219.429        0.122        0.110       14.590       15.233        1.090      332.357        0.967      854.003
04/02/2014  02:12:00      -26.551        3.352       -9.431       13.582       11.974        8.598      184.481      143.369       73.918        0.060        0.020       26.761        6.743        0.063      332.362        0.976      854.005
04/02/2014  02:13:00       -6.485       32.749        4.591       28.346       24.450       14.919      803.514      597.779      222.585        0.138        0.081       33.385       12.489        0.140      332.502        1.207      854.008
04/02/2014  02:14:00      -22.578       16.227        0.014       24.622       31.061       12.545      606.248      964.798      157.387        0.125        0.086       27.804        5.996        0.047      332.443        1.108      854.014
04/02/2014  02:15:00       -0.525       86.036       -5.823       29.765       48.520       23.657      885.950     2354.190      559.644        0.562        0.190       86.037       14.121        0.027      332.596        1.361      854.021
04/02/2014  02:16:00       81.392       45.868        9.372       42.633       27.873       26.001     1817.603      776.913      676.064        0.604        0.164       93.427       17.433        0.035      332.410        1.053      854.028
04/02/2014  02:17:00       92.380       80.651       11.558       42.664       43.700       32.520     1820.228     1909.695     1057.545        0.998        0.239      122.632       25.536        0.043      332.269        0.823      854.032
04/02/2014  02:18:00       73.821       72.339       -3.068       40.046       33.046       31.633     1603.708     1092.022     1000.621        0.719        0.185      103.356       22.610        0.048      332.263        0.812      854.029
04/02/2014  02:19:00       54.879       32.048       13.312       34.375       26.171       21.347     1181.629      684.897      455.704        0.327        0.116       63.552       17.717        0.078      332.254        0.798      854.030
04/02/2014  02:20:00       21.658        9.979       19.256       24.459       13.274       12.379      598.220      176.209      153.243        0.093        0.046       23.846        5.152        0.047      332.246        0.784      854.034
04/02/2014  02:21:00        6.220       16.655       32.559       15.391       18.594       15.480      236.882      345.742      239.629        0.110        0.041       17.778       10.351        0.339      332.272        0.827      854.038
04/02/2014  02:22:00       -5.169      -50.545       12.050       21.778       56.331       28.679      474.277     3173.147      822.498        0.360        0.223       50.808       34.161        0.452      332.525        1.243      854.039
04/02/2014  02:23:00        1.461      -79.107      -21.141       48.526       36.933       23.518     2354.819     1364.053      553.079        0.549        0.214       79.120       18.635        0.055      332.546        1.279      854.039
04/02/2014  02:24:00       17.869      -87.640      -22.509       49.000       34.971       23.100     2400.989     1222.971      533.626        0.633        0.208       89.443       18.024        0.041      332.580        1.335      854.039
04/02/2014  02:25:00      -45.603      -84.354       -5.531       62.191       55.817       24.933     3867.745     3115.506      621.630        0.841        0.380       95.892       19.925        0.043      332.567        1.312      854.042
04/02/2014  02:26:00     -118.281      -75.281       -1.428       84.604       44.470       31.939     7157.817     1977.602     1020.087        1.491        0.508      140.206       38.489        0.075      332.501        1.202      854.042
04/02/2014  02:27:00      -19.085      -45.491       10.801       30.299       29.068       16.900      918.010      844.948      285.610        0.230        0.102       49.332       14.951        0.092      332.533        1.257      854.056
04/02/2014  02:28:00      -28.096      -61.918        3.301       38.319       24.240       19.635     1468.338      587.571      385.539        0.354        0.122       67.994       13.170        0.038      332.666        1.476      854.064
04/02/2014  02:29:00     -101.569      -43.900       -4.047       64.298       34.975       25.496     4134.264     1223.231      650.059        0.913        0.300      110.650       31.235        0.080      332.507        1.213      854.069
04/02/2014  02:30:00      -64.765       33.736      -11.088       38.328       51.701       23.275     1469.008     2672.988      541.718        0.507        0.234       73.025       23.510        0.104      332.539        1.265      854.073
04/02/2014  02:31:00      -95.361       28.567      -15.235       40.042       29.572       24.820     1603.363      874.515      616.020        0.662        0.155       99.548       19.604        0.039      332.530        1.253      854.075
04/02/2014  02:32:00     -100.669       38.090       -7.389       50.596       32.643       25.853     2559.976     1065.550      668.403        0.797        0.215      107.634       29.233        0.074      332.516        1.229      854.088
04/02/2014  02:33:00     -100.701       37.879      -17.884       43.959       71.450       19.181     1932.437     5105.049      367.895        0.965        0.370      107.589        9.708        0.008      332.574        1.326      854.095
04/02/2014  02:34:00     -125.446       26.412      -17.675       34.540       33.822       24.561     1192.989     1143.938      603.260        0.984        0.147      128.196       13.419        0.011      332.515        1.227      854.112
04/02/2014  02:35:00     -105.260      -43.616       -6.711       30.093       24.775       23.725      905.564      613.792      562.863        0.755        0.104      113.939       20.253        0.032      332.468        1.149      854.131
04/02/2014  02:36:00     -104.882      -55.239       -7.492       29.742       27.602       17.445      884.610      761.848      304.340        0.803        0.098      118.539       10.362        0.008      332.508        1.214      854.142
04/02/2014  02:37:00     -116.774      -59.752        6.391       49.616       39.961       25.764     2461.786     1596.875      663.782        1.098        0.236      131.173       20.784        0.025      332.471        1.156      854.140
04/02/2014  02:38:00      -80.760      -51.522       -2.231       46.732       46.765       21.528     2183.861     2187.005      463.439        0.701        0.242       95.795       22.288        0.054      332.422        1.074      854.137
04/02/2014  02:39:00      -56.315      -65.232       -0.089       48.784       45.844       21.969     2379.902     2101.716      482.650        0.619        0.248       86.177       25.762        0.089      332.410        1.054      854.127
04/02/2014  02:40:00      -38.594      -36.311       15.279       45.061       32.946       22.680     2030.468     1085.444      514.378        0.334        0.182       52.990       23.362        0.194      332.398        1.034      854.116
04/02/2014  02:41:00     -103.917      -58.622       -4.789       31.936       22.442       19.171     1019.896      503.637      367.519        0.807        0.095      119.311       16.463        0.019      332.292        0.858      854.104
04/02/2014  02:42:00      -96.185      -34.891       -2.322       23.291       18.182       15.130      542.452      330.584      228.925        0.579        0.055      102.318       13.390        0.017      332.272        0.827      854.096
04/02/2014  02:43:00      -63.642      -41.249        3.736       53.217       30.138       29.173     2832.077      908.310      851.079        0.518        0.230       75.841       24.195        0.102      332.393        1.028      854.072
04/02/2014  02:44:00      -94.804      -59.211        1.953       59.632       34.204       21.947     3555.940     1169.899      481.655        0.885        0.260      111.775       27.423        0.060      332.407        1.049      854.052
04/02/2014  02:45:00      -93.474      -61.354        0.148       41.011       36.882       24.219     1681.936     1360.246      586.583        0.806        0.181      111.811       26.899        0.058      332.344        0.947      854.043
04/02/2014  02:46:00      -87.789      -14.297       -7.549       32.694       24.017       13.266     1068.886      576.794      175.994        0.489        0.091       88.946       13.394        0.023      332.335        0.930      854.031
04/02/2014  02:47:00      -31.095      -28.499        3.788       72.440       33.436       26.739     5247.506     1117.936      714.992        0.444        0.354       42.179       35.317        0.701      332.341        0.940      854.026
04/02/2014  02:48:00     -110.286      -42.405       -2.254       63.236       41.292       23.650     3998.776     1705.065      559.344        1.011        0.313      118.157       32.560        0.076      332.288        0.854      854.030
04/02/2014  02:49:00     -109.604      -77.589       -5.779       39.810       31.301       25.375     1584.848      979.738      643.894        1.064        0.160      134.287       20.932        0.024      332.365        0.980      854.035
04/02/2014  02:50:00     -111.902      -97.785      -14.049       42.274       38.911       26.161     1787.083     1514.083      684.391        1.313        0.199      148.606       17.848        0.014      332.366        0.981      854.041
04/02/2014  02:51:00      -60.155      -47.864        4.166       53.474       34.147       25.396     2859.484     1166.028      644.949        0.530        0.234       76.874       26.049        0.115      332.328        0.917      854.065
04/02/2014  02:52:00      -99.023      -60.035       -3.275       36.927       43.120       18.700     1363.610     1859.316      349.677        0.850        0.179      115.800       10.704        0.009      332.369        0.986      854.086
04/02/2014  02:53:00      -32.352       -7.485       11.913       43.737       17.299       16.144     1912.939      299.245      260.635        0.186        0.124       33.207       21.303        0.412      332.296        0.865      854.097
04/02/2014  02:54:00      -93.456      -19.619       -9.199       37.568       26.101       16.787     1411.371      681.278      281.818        0.579        0.119       95.493       14.568        0.023      332.405        1.046      854.104
04/02/2014  02:55:00      -97.490      -70.242        3.054       43.726       39.545       23.806     1911.972     1563.780      566.745        0.924        0.202      120.159       21.398        0.032      332.367        0.983      854.106
04/02/2014  02:56:00     -102.419      -54.515       -1.250       39.934       48.503       21.437     1594.743     2352.527      459.553        0.893        0.220      116.023       21.533        0.034      332.307        0.885      854.108
04/02/2014  02:57:00     -133.651      -45.772       -9.822       69.610       45.625       23.547     4845.585     2081.633      554.476        1.377        0.374      141.271       26.006        0.034      332.319        0.904      854.101
04/02/2014  02:58:00     -106.067      -33.343       -0.671       63.127       47.474       32.664     3985.025     2253.786     1066.963        0.983        0.365      111.184       31.051        0.078      332.297        0.868      854.093
04/02/2014  02:59:00     -125.040      -47.674        0.288       38.668       39.642       26.495     1495.183     1571.508      702.000        1.084        0.188      133.820       22.546        0.028      332.219        0.742      854.089
04/02/2014  03:00:00      -87.484       -5.299       -6.029       33.468       35.103       25.235     1120.094     1232.229      636.809        0.535        0.149       87.644       20.180        0.053      332.177        0.672      854.081
04/02/2014  03:01:00     -127.232      -34.402       -7.151       36.253       41.824       20.946     1314.265     1749.216      438.723        1.046        0.175      131.801       14.190        0.012      332.178        0.673      854.067
04/02/2014  03:02:00     -105.580      -26.823       -1.285       48.375       49.053       23.152     2340.105     2406.197      536.001        0.857        0.264      108.934       16.800        0.024      332.127        0.590      854.054
04/02/2014  03:03:00     -138.708       14.508       -5.446       41.499       36.981       22.611     1722.169     1367.625      511.269        1.154        0.180      139.465       18.090        0.017      332.063        0.483      854.048
04/02/2014  03:04:00     -138.677      -61.187      -15.959       39.655       35.760       28.801     1572.547     1278.753      829.489        1.345        0.184      151.575       27.238        0.032      332.153        0.630      854.053
04/02/2014  03:05:00     -158.612      -84.705       -7.938       59.518       33.431       27.795     3542.434     1117.644      772.559        1.891        0.272      179.813       13.391        0.006      332.079        0.505      854.060
04/02/2014  03:06:00     -168.528      -99.266       -2.989       75.970       54.246       36.168     5771.436     2942.607     1308.116        2.414        0.501      195.590       44.030        0.051      332.008        0.389      854.067
04/02/2014  03:07:00     -138.815      -92.394       -6.570       74.636       58.463       34.613     5570.472     3417.949     1198.074        1.902        0.509      166.752       40.114        0.058      332.010        0.392      854.070
04/02/2014  03:08:00     -143.351     -100.246       -6.348       59.104       51.042       27.177     3493.277     2605.289      738.604        1.874        0.342      174.925       23.687        0.018      332.049        0.457      854.074
04/02/2014  03:09:00      -75.755      -97.116        1.173       52.212       56.129       25.442     2726.105     3150.469      647.310        1.085        0.326      123.167       28.174        0.052      332.078        0.507      854.065
04/02/2014  03:10:00      -78.208      -53.463        2.643       37.673       43.922       22.018     1419.237     1929.163      484.785        0.641        0.192       94.735       23.193        0.060      332.095        0.536      854.062
04/02/2014  03:11:00     -101.449      -54.574       -8.735       40.116       35.146       19.936     1609.330     1235.210      397.432        0.829        0.162      115.196       20.882        0.033      332.121        0.579      854.067
04/02/2014  03:12:00     -139.949      -61.768      -11.049       30.573       33.659       18.741      934.734     1132.910      351.229        1.297        0.121      152.974       10.880        0.005      332.030        0.426      854.069
04/02/2014  03:13:00      -98.802      -40.951        9.126       51.305       37.400       27.248     2632.154     1398.764      742.469        0.815        0.239      106.952       27.471        0.066      332.011        0.396      854.062
04/02/2014  03:14:00      -95.891      -51.703       -1.385       34.623       33.453       21.786     1198.749     1119.081      474.629        0.733        0.140      108.942       21.445        0.039      332.019        0.409      854.058
04/02/2014  03:15:00     -143.619      -68.964        0.045       28.194       27.616       19.684      794.900      762.663      387.457        1.366        0.097      159.318       15.645        0.010      332.025        0.418      854.059
04/02/2014  03:16:00     -150.046      -45.149        0.559       31.617       26.065       20.799      999.641      679.397      432.593        1.333        0.106      156.692       16.437        0.011      332.121        0.579      854.068
04/02/2014  03:17:00      -27.601      -20.443        9.429       47.116       34.132       22.767     2219.958     1164.978      518.316        0.259        0.195       34.347       24.087        0.492      332.108        0.558      854.070
04/02/2014  03:18:00      -22.481      -57.039        5.008       33.042       40.391       21.722     1091.778     1631.398      471.853        0.349        0.160       61.309       22.179        0.131      332.147        0.622      854.071
04/02/2014  03:19:00      -58.267      -84.557       -4.021       22.100       24.287       16.968      488.404      589.877      287.900        0.596        0.068      102.689        7.118        0.005      332.087        0.523      854.061
04/02/2014  03:20:00      -37.146      -20.734        9.316       32.676       19.001       14.692     1067.750      361.039      215.869        0.177        0.082       42.541       10.035        0.056      332.108        0.556      854.060
04/02/2014  03:21:00      -48.642      -17.061        1.218       24.013       19.033       11.318      576.601      362.264      128.095        0.186        0.053       51.547        8.567        0.028      332.120        0.577      854.056
04/02/2014  03:22:00       -6.697      -29.103        6.124       25.534       23.862       17.659      651.992      569.401      311.851        0.123        0.077       29.863       12.439        0.173      332.145        0.617      854.061
04/02/2014  03:23:00      -18.001      -48.768       15.928       32.937       45.028       24.363     1084.874     2027.552      593.548        0.333        0.185       51.984       25.395        0.239      332.017        0.406      854.061
04/02/2014  03:24:00      -33.326      -43.465        5.054       28.514       28.319       18.385      813.062      801.992      337.993        0.249        0.098       54.771       18.683        0.116      332.027        0.422      854.060
04/02/2014  03:25:00      -43.394      -44.111        5.063       37.669       43.605       24.049     1418.946     1901.393      578.374        0.388        0.195       61.878       22.583        0.133      331.965        0.320      854.059
04/02/2014  03:26:00      -46.027     -108.146        3.141       47.100       43.037       27.277     2218.438     1852.194      744.039        0.932        0.241      117.533       20.840        0.031      331.808        0.062      854.057
04/02/2014  03:27:00      -94.823      -86.963       -9.747       27.036       21.334       16.796      730.921      455.129      282.094        0.906        0.073      128.663       10.992        0.007      331.872        0.168      854.059
04/02/2014  03:28:00      -12.624     -109.687       -3.760       37.726       40.525       26.038     1423.250     1642.275      677.961        0.797        0.187      110.411       11.136        0.010      331.882        0.183      854.064
04/02/2014  03:29:00      -47.703      -95.399      -10.568       34.240       44.623       30.977     1172.367     1991.248      959.549        0.780        0.206      106.661       24.990        0.055      331.792        0.035      854.065
04/02/2014  03:30:00      -22.610      -71.793        0.053       35.780       51.922       20.107     1280.239     2695.912      404.274        0.502        0.219       75.269       21.369        0.081      331.819        0.080      854.078
04/02/2014  03:31:00      -17.560      -92.780        5.733       45.708       39.963       28.801     2089.192     1597.051      829.507        0.673        0.226       94.427       27.671        0.086      331.812        0.070      854.082
04/02/2014  03:32:00      -44.904      -78.419        2.322       36.982       42.503       21.475     1367.676     1806.498      461.156        0.590        0.182       90.366       13.022        0.021      331.795        0.040      854.095
04/02/2014  03:33:00      -39.887      -77.765       -7.444       31.251       35.616       18.896      976.619     1268.527      357.066        0.515        0.130       87.398       12.254        0.020      331.781        0.017      854.106
04/02/2014  03:34:00      -31.323      -28.598       11.638       27.843       19.596       17.025      775.205      384.019      289.838        0.169        0.072       42.415       13.637        0.103      331.812        0.068      854.121
04/02/2014  03:35:00       -7.002      -61.860       -2.878       21.309       24.276       18.627      454.084      589.301      346.974        0.264        0.070       62.255       10.413        0.028      331.853        0.137      854.131
04/02/2014  03:36:00       17.786        7.556        7.320       16.921       19.368       15.970      286.312      375.106      255.056        0.067        0.046       19.325       10.468        0.293      331.848        0.128      854.138
04/02/2014  03:37:00       18.995        4.390       14.789       20.458       13.058       19.671      418.515      170.524      386.954        0.079        0.049       19.496       15.016        0.593      331.731       -0.065      854.143
04/02/2014  03:38:00       35.459        8.019        1.367       17.939       18.596       16.292      321.798      345.825      265.431        0.113        0.047       36.354       12.944        0.127      331.684       -0.142      854.151
04/02/2014  03:39:00       31.025       34.875        1.563       26.548       25.523       13.530      704.795      651.404      183.052        0.186        0.077       46.678       11.901        0.065      331.590       -0.296      854.150
04/02/2014  03:40:00       88.064       51.761       -0.933       19.923       16.664       13.805      396.944      277.688      190.573        0.565        0.043      102.149        4.740        0.002      331.593       -0.293      854.143
04/02/2014  03:41:00       82.009       61.192       14.849       30.893       21.081       19.932      954.352      444.418      397.282        0.624        0.090      102.323       14.236        0.019      331.626       -0.237      854.144
04/02/2014  03:42:00       53.460       46.641        4.646       27.665       17.215       20.604      765.362      296.368      424.544        0.327        0.074       70.946       11.424        0.026      331.751       -0.032      854.150
04/02/2014  03:43:00       34.693       26.506       -3.800       13.338       16.229       10.158      177.914      263.376      103.180        0.123        0.027       43.660        8.856        0.041      331.759       -0.018      854.158
04/02/2014  03:44:00       52.482       33.093        4.645       19.300       16.545       10.299      372.501      273.743      106.066        0.231        0.038       62.044        4.932        0.006      331.748       -0.037      854.165
04/02/2014  03:45:00       65.878       44.795        8.512       17.368       12.938       13.603      301.655      167.399      185.042        0.354        0.033       79.665        7.558        0.009      331.747       -0.038      854.173
04/02/2014  03:46:00       83.517       40.850        3.024       16.231       13.796       15.135      263.443      190.333      229.058        0.467        0.034       92.972        6.141        0.004      331.765       -0.010      854.174
04/02/2014  03:47:00       55.523       43.529       32.445       38.672       22.022       24.096     1495.536      484.966      580.625        0.430        0.128       70.552       17.110        0.059      331.803        0.053      854.177
04/02/2014  03:48:00       70.128       41.403       29.256       29.215       25.733       24.294      853.539      662.206      590.183        0.480        0.105       81.438       16.625        0.042      331.719       -0.084      854.191
04/02/2014  03:49:00       74.820       49.082       37.678       17.074       14.269       16.613      291.513      203.591      276.001        0.510        0.039       89.482        3.245        0.001      331.686       -0.138      854.203
04/02/2014  03:50:00       39.204       23.950       23.391       25.116       25.188       18.843      630.793      634.422      355.047        0.214        0.081       45.941       13.984        0.093      331.699       -0.117      854.212
04/02/2014  03:51:00       46.493       33.784       28.980       16.399       11.958       12.548      268.926      142.993      157.463        0.236        0.028       57.472        9.125        0.025      331.663       -0.177      854.214
04/02/2014  03:52:00       40.267       39.773       34.467       21.934       17.536       12.314      481.110      307.500      151.641        0.267        0.047       56.598        8.600        0.023      331.685       -0.141      854.213
04/02/2014  03:53:00       50.782       48.606       37.720       19.784       13.253       15.482      391.407      175.629      239.699        0.359        0.040       70.294       11.948        0.029      331.878        0.178      854.211
04/02/2014  03:54:00       41.118       39.698       29.712       24.695       15.948       22.212      609.845      254.329      493.352        0.275        0.068       57.154       17.455        0.093      331.902        0.217      854.211
04/02/2014  03:55:00       56.070       44.890       37.481       24.435       24.731       18.843      597.079      611.629      355.063        0.406        0.078       71.826       17.886        0.062      331.950        0.296      854.206
04/02/2014  03:56:00       43.714       41.723       27.167       22.830       23.210       19.276      521.205      538.696      371.557        0.291        0.072       60.429       16.481        0.074      331.933        0.269      854.209
04/02/2014  03:57:00       43.252       35.639       21.610       29.369       18.388       22.167      862.526      338.112      491.397        0.265        0.085       56.043       20.835        0.138      331.884        0.188      854.201
04/02/2014  03:58:00       31.081       36.807       19.121       12.259       10.543       12.245      150.278      111.146      149.930        0.155        0.021       48.175        5.344        0.012      331.860        0.147      854.201
04/02/2014  03:59:00        0.909       12.844       18.170        6.657       14.591        7.148       44.321      212.891       51.093        0.040        0.015       12.876        3.980        0.096      331.882        0.183      854.201
04/02/2014  04:00:00       -5.160        5.185        7.634       17.035        8.351       12.080      290.206       69.733      145.937        0.031        0.025        7.315       12.371        2.860      331.847        0.126      854.207
04/02/2014  04:01:00      -24.512       -5.599       -2.320        9.456        9.505       10.213       89.407       90.342      104.307        0.046        0.014       25.143        1.393        0.003      331.862        0.153      854.214
04/02/2014  04:02:00      -14.655        3.626       -1.269        9.792        6.417        7.376       95.879       41.181       54.407        0.021        0.010       15.097        4.738        0.099      331.896        0.208      854.218
04/02/2014  04:03:00       -7.440        0.585        1.949        9.363        5.374        7.319       87.673       28.876       53.570        0.011        0.009        7.463        4.114        0.304      331.939        0.277      854.225
04/02/2014  04:04:00        7.891       20.962       -1.618        8.579       10.206        6.882       73.601      104.158       47.369        0.036        0.011       22.398        7.117        0.101      331.957        0.309      854.224
04/02/2014  04:05:00        4.354       38.526       -7.965        7.905        7.223        5.158       62.485       52.177       26.605        0.085        0.007       38.772        1.172        0.001      331.941        0.279      854.232
04/02/2014  04:06:00      -11.854        3.931        6.019       14.813       13.060        8.327      219.423      170.566       69.345        0.033        0.023       12.489        6.072        0.236      331.890        0.197      854.233
04/02/2014  04:07:00      -38.284        3.804       -4.126       13.387       11.285        6.452      179.205      127.351       41.628        0.092        0.017       38.472        4.124        0.011      331.851        0.133      854.237
04/02/2014  04:08:00      -47.484      -12.631       -1.139       23.621       21.501       12.277      557.956      462.274      150.716        0.179        0.059       49.135       10.742        0.048      331.684       -0.139      854.235
04/02/2014  04:09:00      -60.550      -16.047       -8.996       25.387       24.240       17.383      644.508      587.576      302.159        0.277        0.077       62.640       14.857        0.056      331.605       -0.272      854.227
04/02/2014  04:10:00      -71.896        0.656      -16.101       44.660       35.737       22.192     1994.555     1277.155      492.465        0.460        0.188       71.899       17.464        0.059      331.501       -0.443      854.214
04/02/2014  04:11:00     -144.852       17.558      -20.660       49.096       36.147       25.431     2410.408     1306.610      646.749        1.304        0.218      145.913       22.857        0.025      331.317       -0.745      854.207
04/02/2014  04:12:00     -135.076      -17.522      -19.076       27.881       27.138       16.948      777.365      736.458      287.244        1.036        0.090      136.207       15.071        0.012      331.296       -0.781      854.197
04/02/2014  04:13:00     -126.675       -9.620       -6.225       34.814       35.076       23.675     1212.035     1230.319      560.506        0.959        0.150      127.040       18.533        0.021      331.301       -0.771      854.191
04/02/2014  04:14:00     -148.612      -15.835      -25.713       21.755       28.341       18.259      473.265      803.225      333.376        1.230        0.080      149.453       12.371        0.007      331.325       -0.733      854.184
04/02/2014  04:15:00     -125.755      -44.423      -14.658       29.717       21.233       14.533      883.122      450.825      211.221        0.977        0.077      133.371       14.941        0.013      331.163       -0.998      854.180
04/02/2014  04:16:00     -137.497      -10.563      -14.131       34.179       29.227       21.563     1168.190      854.235      464.982        1.085        0.124      137.902       19.329        0.020      331.160       -1.004      854.177
04/02/2014  04:17:00     -129.478        1.439       -8.421       35.364       32.389       24.807     1250.623     1049.019      615.398        0.988        0.146      129.486       19.533        0.023      331.095       -1.112      854.173
04/02/2014  04:18:00     -134.195       -3.582      -11.227       33.901       34.605       22.089     1149.293     1197.474      487.918        1.049        0.142      134.243       16.029        0.014      331.076       -1.142      854.170
04/02/2014  04:19:00     -116.622        0.097       -2.977       51.672       34.509       24.752     2670.024     1190.904      612.679        0.904        0.224      116.622       26.942        0.053      331.113       -1.082      854.163
04/02/2014  04:20:00     -121.176        1.762       -5.862       45.653       34.178       28.999     2084.159     1168.139      840.946        0.941        0.205      121.189       27.608        0.052      331.133       -1.048      854.161
04/02/2014  04:21:00      -90.055       -2.627       -4.991       41.755       28.589       23.913     1743.477      817.348      571.818        0.564        0.157       90.094       23.557        0.068      331.187       -0.960      854.156
04/02/2014  04:22:00      -91.130       -2.813       -4.846       31.383       27.602       18.317      984.886      761.847      335.522        0.521        0.104       91.174       11.577        0.016      331.202       -0.936      854.163
04/02/2014  04:23:00      -97.686      -10.227       -3.198       44.822       31.637       23.472     2008.999     1000.890      550.954        0.661        0.178       98.219       24.023        0.060      331.204       -0.931      854.167
04/02/2014  04:24:00     -126.019       19.207       -9.383       38.589       36.869       22.153     1489.123     1359.309      490.745        0.984        0.167      127.475       20.750        0.026      331.272       -0.820      854.181
04/02/2014  04:25:00     -120.051       11.272       -7.987       41.571       33.683       26.985     1728.109     1134.544      728.216        0.910        0.180      120.579       22.586        0.035      331.235       -0.880      854.192
04/02/2014  04:26:00     -143.157      -16.054      -15.158       39.385       36.677       24.105     1551.160     1345.189      581.067        1.223        0.174      144.054       16.457        0.013      331.233       -0.883      854.208
04/02/2014  04:27:00     -110.943      -20.205      -12.068       35.172       37.053       24.910     1237.080     1372.895      620.489        0.805        0.162      112.768       12.185        0.012      331.315       -0.749      854.215
04/02/2014  04:28:00      -99.866      -13.501      -10.299       24.543       31.626       21.573      602.373     1000.206      465.391        0.616        0.103      100.774       13.230        0.017      331.291       -0.788      854.223
04/02/2014  04:29:00     -112.352       16.804      -13.990       45.919       26.776       18.994     2108.524      716.962      360.787        0.814        0.159      113.602       13.277        0.014      331.273       -0.818      854.231
04/02/2014  04:30:00     -115.234       -6.850      -11.484       43.983       45.605       24.490     1934.520     2079.805      599.763        0.903        0.231      115.438       22.030        0.036      331.298       -0.777      854.231
04/02/2014  04:31:00     -106.945      -19.241       -7.448       39.840       34.963       21.009     1587.187     1222.405      441.370        0.756        0.163      108.662       16.921        0.024      331.276       -0.812      854.227
04/02/2014  04:32:00     -129.023       -4.654      -16.023       33.916       25.404       18.877     1150.297      645.344      356.358        0.954        0.108      129.107       13.703        0.011      331.267       -0.827      854.239
04/02/2014  04:33:00     -142.613       21.667      -17.544       38.775       37.627       21.053     1503.483     1415.755      443.242        1.224        0.168      144.250        9.274        0.004      331.236       -0.879      854.243
04/02/2014  04:34:00     -145.592       -0.557      -16.051       29.129       36.661       17.811      848.478     1344.063      317.236        1.198        0.125      145.593       12.584        0.007      331.258       -0.841      854.237
04/02/2014  04:35:00     -149.270       12.692      -19.893       39.627       27.273       19.880     1570.327      743.838      395.216        1.277        0.135      149.808       17.068        0.013      331.221       -0.903      854.237
04/02/2014  04:36:00     -131.244       -0.316      -12.059       41.286       31.897       23.702     1704.562     1017.403      561.798        1.033        0.164      131.245       23.688        0.033      331.169       -0.989      854.243
04/02/2014  04:37:00     -127.171        4.914      -15.380       32.581       31.886       19.634     1061.509     1016.705      385.504        0.945        0.123      127.266       16.324        0.016      331.255       -0.848      854.242
04/02/2014  04:38:00     -154.641       22.727      -11.104       30.139       24.859       17.745      908.346      617.968      314.885        1.320        0.092      156.302       12.416        0.006      331.297       -0.779      854.253
04/02/2014  04:39:00     -164.739       27.640      -21.034       46.881       40.986       18.635     2197.789     1679.858      347.251        1.628        0.211      167.041       15.527        0.009      331.248       -0.859      854.265
04/02/2014  04:40:00     -176.855       29.697      -18.169       43.705       33.124       20.750     1910.151     1097.169      430.582        1.796        0.172      179.331       11.275        0.004      331.240       -0.875      854.274
04/02/2014  04:41:00     -195.664        0.786      -25.489       40.172       33.468       19.782     1613.753     1120.114      391.325        2.103        0.156      195.665       15.444        0.006      331.179       -0.975      854.277
04/02/2014  04:42:00      -86.091      -13.619       -4.063       41.405       35.303       23.960     1714.369     1246.327      574.104        0.557        0.177       87.162       16.991        0.038      331.126       -1.060      854.283
04/02/2014  04:43:00     -117.417      -34.767       -8.607       44.731       30.900       26.218     2000.838      954.801      687.377        0.936        0.182      122.456       24.347        0.040      331.198       -0.941      854.282
04/02/2014  04:44:00      -98.385        1.639       -8.781       42.697       33.026       18.812     1823.000     1090.737      353.890        0.651        0.163       98.399       17.995        0.033      331.177       -0.976      854.287
04/02/2014  04:45:00      -87.892      -35.265       -4.437       61.319       34.398       27.650     3760.044     1183.194      764.499        0.735        0.285       94.703       29.727        0.099      331.137       -1.044      854.293
04/02/2014  04:46:00     -120.556       -4.309      -10.772       38.528       38.104       27.206     1484.396     1451.929      740.163        0.917        0.184      120.633       23.134        0.037      331.109       -1.088      854.288
04/02/2014  04:47:00     -115.473      -10.816       -7.830       47.821       30.818       24.883     2286.876      949.760      619.147        0.868        0.193      115.978       27.035        0.054      331.102       -1.099      854.294
04/02/2014  04:48:00     -120.645       -5.584      -15.609       33.047       36.940       18.820     1092.084     1364.540      354.204        0.882        0.141      120.775       15.805        0.017      331.150       -1.020      854.294
04/02/2014  04:49:00     -135.304       -6.150      -13.097       41.156       31.550       21.110     1693.820      995.422      445.645        1.083        0.157      135.443       15.764        0.014      331.120       -1.072      854.316
04/02/2014  04:50:00     -114.136       11.677       -8.569       40.292       25.549       19.251     1623.483      652.749      370.618        0.794        0.132      114.731       21.810        0.036      331.132       -1.051      854.326
04/02/2014  04:51:00     -110.553      -33.642       -6.705       33.404       28.101       20.482     1115.820      789.662      419.503        0.786        0.116      115.559       13.617        0.014      331.172       -0.984      854.338
04/02/2014  04:52:00     -117.426      -15.158      -16.419       44.860       31.521       18.526     2012.462      993.590      343.218        0.882        0.167      118.400       18.266        0.024      331.152       -1.018      854.340
04/02/2014  04:53:00     -106.254      -12.979      -14.606       24.736       26.693       16.752      611.870      712.494      280.637        0.664        0.080      107.043       12.706        0.014      331.182       -0.967      854.354
04/02/2014  04:54:00      -99.448        9.880      -14.555       28.772       25.821       20.231      827.857      666.727      409.289        0.605        0.095       99.937       14.581        0.021      331.243       -0.868      854.364
04/02/2014  04:55:00     -136.671       20.896      -19.433       29.982       23.730       17.294      898.943      563.104      299.084        1.063        0.088      138.259       10.980        0.006      331.228       -0.892      854.383
04/02/2014  04:56:00     -175.708       16.039      -14.181       28.452       28.971       18.848      809.508      839.341      355.229        1.667        0.100      176.438       15.330        0.008      331.177       -0.976      854.404
04/02/2014  04:57:00     -150.401       -1.149      -15.816       45.298       27.417       22.956     2051.917      751.691      526.971        1.310        0.167      150.406       21.998        0.021      331.171       -0.986      854.415
04/02/2014  04:58:00     -154.620       32.510      -25.725       27.927       30.653       21.479      779.904      939.613      461.340        1.390        0.109      158.001       11.871        0.006      331.218       -0.907      854.422
04/02/2014  04:59:00     -135.966        3.115      -15.138       42.363       27.655       21.831     1794.589      764.781      476.574        1.088        0.152      136.001       18.345        0.018      331.199       -0.939      854.431
04/02/2014  05:00:00     -138.008       -9.230      -11.400       50.678       34.701       24.759     2568.268     1204.149      613.026        1.182        0.219      138.317       28.213        0.042      331.109       -1.088      854.452
04/02/2014  05:01:00     -189.318       -2.470      -18.189       34.178       26.615       21.062     1168.139      708.341      443.618        1.925        0.116      189.334       16.298        0.007      331.117       -1.076      854.460
04/02/2014  05:02:00     -202.263       17.891      -25.617       29.888       26.739       20.646      893.303      714.949      426.263        2.196        0.102      203.053       15.619        0.006      331.152       -1.020      854.461
04/02/2014  05:03:00     -166.496        7.799      -19.359       32.707       35.358       21.145     1069.732     1250.173      447.115        1.546        0.138      166.679       17.066        0.010      331.077       -1.141      854.461
04/02/2014  05:04:00     -116.954        5.500      -13.166       39.812       27.473       22.052     1585.009      754.775      486.296        0.835        0.141      117.083       19.243        0.027      331.062       -1.167      854.456
04/02/2014  05:05:00      -94.373       -0.882       -7.513       27.872       26.100       18.699      776.823      681.184      349.639        0.539        0.090       94.377       13.604        0.021      331.054       -1.177      854.448
04/02/2014  05:06:00     -115.857        3.515       -3.626       36.334       39.513       20.144     1320.178     1561.263      405.800        0.837        0.164      115.911       17.871        0.024      331.104       -1.097      854.459
04/02/2014  05:07:00     -113.538        8.190       -4.099       45.261       28.224       26.673     2048.578      796.573      711.430        0.826        0.178      113.833       22.479        0.039      331.136       -1.044      854.465
04/02/2014  05:08:00     -113.559       12.143       -7.089       36.664       19.683       19.208     1344.256      387.409      368.932        0.760        0.105      114.206       20.845        0.033      331.174       -0.980      854.466
04/02/2014  05:09:00      -88.998       -0.087       -6.113       30.848       23.598       20.878      951.628      556.866      435.873        0.495        0.097       88.998       16.053        0.033      331.168       -0.990      854.470
04/02/2014  05:10:00      -77.067      -10.103      -11.572       20.763       24.091       15.516      431.107      580.376      240.735        0.371        0.063       77.727       12.372        0.025      331.233       -0.883      854.486
04/02/2014  05:11:00      -91.403        7.422      -10.195       29.380       22.485       19.299      863.191      505.558      372.450        0.513        0.087       91.704        8.264        0.008      331.214       -0.914      854.510
04/02/2014  05:12:00     -104.981        5.008      -16.463       23.948       19.980       15.800      573.524      399.204      249.637        0.627        0.061      105.100       10.046        0.009      331.254       -0.849      854.530
04/02/2014  05:13:00      -69.853      -12.594       -3.535       28.244       16.811       20.060      797.747      282.618      402.421        0.327        0.074       70.979       17.246        0.059      331.323       -0.736      854.546
04/02/2014  05:14:00      -71.270       -6.126       -6.580       25.235       21.329       16.558      636.818      454.912      274.155        0.326        0.068       71.533       12.401        0.030      331.335       -0.715      854.564
04/02/2014  05:15:00      -89.140      -17.353       -7.946       32.206       26.959       17.179     1037.245      726.802      295.134        0.518        0.103       90.814       15.005        0.027      331.440       -0.544      854.572
04/02/2014  05:16:00      -96.067      -19.992       -9.943       36.261       32.038       15.322     1314.891     1026.448      234.749        0.615        0.129       98.125       13.163        0.018      331.374       -0.652      854.585
04/02/2014  05:17:00      -78.830      -43.266        4.279       57.104       33.366       25.427     3260.855     1113.321      646.535        0.656        0.251       89.923       23.761        0.070      331.469       -0.495      854.587
04/02/2014  05:18:00      -64.000      -20.674       12.038       53.511       28.743       25.014     2863.464      826.184      625.695        0.449        0.216       67.256       29.847        0.197      331.362       -0.672      854.592
04/02/2014  05:19:00      -68.003      -26.778       -3.184       40.937       37.331       22.151     1675.853     1393.580      490.656        0.446        0.178       73.085       18.684        0.065      331.339       -0.710      854.604
04/02/2014  05:20:00      -58.185      -40.252       -2.131       50.295       29.974       23.109     2529.572      898.444      534.048        0.449        0.198       70.751       23.597        0.111      331.441       -0.540      854.612
04/02/2014  05:21:00      -78.498       -9.926      -14.185       31.573       27.186       17.946      996.828      739.063      322.046        0.426        0.103       79.123        8.965        0.013      331.363       -0.669      854.618
04/02/2014  05:22:00     -108.811        3.563      -14.891       24.132       24.709       18.086      582.338      610.550      327.112        0.680        0.076      108.869       13.520        0.015      331.354       -0.683      854.628
04/02/2014  05:23:00     -133.300       33.778      -15.945       19.220       22.409       12.919      369.418      502.163      166.903        1.010        0.052      137.513        5.763        0.002      331.337       -0.712      854.641
04/02/2014  05:24:00     -147.670       19.432      -11.450       20.839       22.776       11.259      434.280      518.736      126.775        1.170        0.054      148.943        2.210        0.000      331.296       -0.780      854.653
04/02/2014  05:25:00     -131.093       -6.755       -8.500       35.849       35.265       18.789     1285.136     1243.610      353.044        1.009        0.144      131.267       19.101        0.021      331.295       -0.784      854.663
04/02/2014  05:26:00      -75.109      -33.198       -4.266       35.607       30.912       21.201     1267.878      955.579      449.480        0.472        0.134       82.119       19.908        0.059      331.253       -0.850      854.666
04/02/2014  05:27:00     -138.334        0.688      -12.452       24.735       17.341       19.127      611.826      300.696      365.831        1.028        0.064      138.335       15.485        0.013      331.266       -0.830      854.665
04/02/2014  05:28:00      -67.703      -29.091        4.297       47.840       22.388       21.924     2288.642      501.230      480.674        0.436        0.164       73.688       27.754        0.142      331.295       -0.783      854.678
04/02/2014  05:29:00      -24.865      -21.857        8.470       36.939       22.407       17.902     1364.484      502.096      320.477        0.168        0.109       33.105       20.953        0.401      331.328       -0.727      854.693
04/02/2014  05:30:00      -74.723        6.172       -5.003       29.425       27.407       22.046      865.828      751.135      486.008        0.387        0.105       74.977       19.508        0.068      331.314       -0.751      854.707
04/02/2014  05:31:00      -79.498      -35.352       -7.627       24.346       26.915       13.911      592.728      724.432      193.505        0.457        0.076       87.004       10.025        0.013      331.298       -0.778      854.725
04/02/2014  05:32:00      -95.235      -53.393       -3.102       28.532       20.615       13.613      814.070      424.965      185.323        0.668        0.071      109.181        9.089        0.007      331.271       -0.822      854.738
04/02/2014  05:33:00      -97.198      -51.386       -4.908       26.850       26.890       19.456      720.939      723.051      378.539        0.697        0.091      109.945       17.835        0.026      331.284       -0.799      854.754
04/02/2014  05:34:00      -88.828      -47.988       -9.610       36.918       23.747       16.991     1362.962      563.900      288.685        0.625        0.111      100.962       16.927        0.028      331.315       -0.749      854.766
04/02/2014  05:35:00      -34.576      -45.261       13.997       38.997       26.125       21.788     1520.758      682.541      474.730        0.306        0.134       56.957       20.410        0.128      331.360       -0.675      854.776
04/02/2014  05:36:00      -84.419      -62.174       -2.973       39.951       30.882       23.421     1596.047      953.707      548.555        0.705        0.155      104.844       23.194        0.049      331.283       -0.800      854.786
04/02/2014  05:37:00     -100.337      -44.788        1.319       44.026       21.266       21.543     1938.298      452.241      464.086        0.746        0.143      109.880       15.161        0.019      331.254       -0.850      854.793
04/02/2014  05:38:00     -144.234      -62.005       -0.999       31.047       24.553       20.618      963.895      602.866      425.082        1.332        0.100      156.997       15.534        0.010      331.162       -1.002      854.798
04/02/2014  05:39:00      -89.989      -54.340       -0.097       34.647       26.852       25.464     1200.407      721.011      648.426        0.681        0.128      105.123       20.062        0.036      331.133       -1.048      854.807
04/02/2014  05:40:00      -79.865      -59.656        0.788       38.340       39.412       21.417     1469.992     1553.319      458.703        0.671        0.174       99.686       19.973        0.040      331.167       -0.993      854.821
04/02/2014  05:41:00     -111.660      -26.414       -6.354       53.263       35.140       23.961     2836.980     1234.819      574.123        0.893        0.232      114.742       23.711        0.043      331.140       -1.036      854.832
04/02/2014  05:42:00     -140.631       -7.191      -11.915       35.810       19.520       21.615     1282.391      381.031      467.200        1.105        0.107      140.814       18.913        0.018      331.047       -1.189      854.843
04/02/2014  05:43:00     -126.644      -27.305       -7.590       25.657       24.653       19.356      658.257      607.766      374.655        0.924        0.082      129.554       15.114        0.014      331.001       -1.267      854.849
04/02/2014  05:44:00     -134.033       10.042      -26.263       36.485       41.015       17.796     1331.173     1682.205      316.711        1.104        0.167      134.409       12.855        0.009      331.084       -1.129      854.849
04/02/2014  05:45:00     -149.059       -0.707      -24.076       33.168       23.032       20.823     1100.142      530.475      433.585        1.243        0.103      149.060       19.614        0.017      331.066       -1.158      854.849
04/02/2014  05:46:00     -149.907        3.131      -26.209       18.422       19.875       16.837      339.366      395.023      283.474        1.209        0.051      149.940       11.831        0.006      331.135       -1.047      854.842
04/02/2014  05:47:00     -151.808       -0.400      -22.448       23.646       26.296       13.402      559.153      691.471      179.618        1.249        0.072      151.809       11.185        0.005      331.103       -1.100      854.837
04/02/2014  05:48:00     -130.476       -1.490      -12.020       27.696       35.892       20.744      767.042     1288.209      430.331        0.983        0.124      130.484       12.164        0.009      331.045       -1.194      854.837
04/02/2014  05:49:00     -140.919       -1.197      -22.263       25.492       21.561       16.166      649.822      464.860      261.339        1.087        0.069      140.924       10.379        0.005      331.163       -1.001      854.847
04/02/2014  05:50:00     -158.190      -18.201      -21.073       32.533       32.389       16.057     1058.383     1049.040      257.836        1.408        0.118      159.234       15.677        0.010      331.111       -1.085      854.856
04/02/2014  05:51:00      -71.876      -15.159       -4.600       26.546       34.120       15.799      704.664     1164.148      249.598        0.377        0.106       73.457       10.244        0.019      331.142       -1.033      854.861
04/02/2014  05:52:00      -96.621        8.829      -12.286       25.872       20.328       10.206      669.362      413.220      104.162        0.538        0.059       97.024        5.506        0.003      331.203       -0.932      854.856
04/02/2014  05:53:00      -40.915      -17.587       -4.520       17.447       12.352        8.826      304.413      152.574       77.904        0.127        0.027       44.535        4.429        0.010      331.354       -0.685      854.851
04/02/2014  05:54:00      -47.097      -21.050       -4.843       12.938       14.391        8.394      167.379      207.099       70.460        0.156        0.022       51.587        3.669        0.005      331.462       -0.508      854.856
04/02/2014  05:55:00      -37.158       -7.661       -5.807       11.118       15.391        9.432      123.618      236.896       88.970        0.096        0.022       37.940        6.387        0.028      331.451       -0.526      854.872
04/02/2014  05:56:00      -59.963      -12.431       -7.934       15.224       12.175       11.787      231.784      148.221      138.924        0.217        0.026       61.238        6.140        0.010      331.409       -0.594      854.895
04/02/2014  05:57:00      -48.350       -8.112       -2.188       20.254       17.959       12.737      410.213      322.516      162.230        0.165        0.045       49.026       11.437        0.054      331.328       -0.727      854.917
04/02/2014  05:58:00      -42.060       17.680       -8.550       18.199       12.959        7.916      331.209      167.924       62.667        0.136        0.028       45.624        4.825        0.011      331.283       -0.801      854.937
04/02/2014  05:59:00      -58.196       25.920      -12.752       21.861       22.956       12.849      477.893      526.972      165.092        0.270        0.058       63.707       13.424        0.044      331.271       -0.822      854.950
04/02/2014  06:00:00      -52.645        1.296       -8.180       21.878        8.356       10.129      478.632       69.828      102.594        0.175        0.033       52.661       12.449        0.056      331.340       -0.707      854.958
04/02/2014  06:01:00      -14.143       -4.263        1.250        7.421        9.145        5.175       55.071       83.635       26.780        0.019        0.008       14.772        4.518        0.094      331.383       -0.637      854.963
04/02/2014  06:02:00      -66.717      -13.620      -10.395       32.268       31.625       10.818     1041.202     1000.143      117.029        0.345        0.108       68.093        9.723        0.020      331.385       -0.634      854.977
04/02/2014  06:03:00      -51.164      -40.671        6.242       39.457       28.410       20.785     1556.870      807.138      432.012        0.355        0.140       65.360       23.664        0.131      331.366       -0.665      854.981
04/02/2014  06:04:00      -42.377      -43.446       10.472       42.155       27.332       17.780     1777.004      747.019      316.135        0.332        0.142       60.691       22.463        0.137      331.318       -0.744      854.979
04/02/2014  06:05:00      -52.473      -48.218       -3.883       21.943       16.927       10.483      481.479      286.529      109.901        0.299        0.044       71.263        4.927        0.005      331.330       -0.725      854.972
04/02/2014  06:06:00      -30.373      -23.114        8.920       41.698       27.205       19.112     1738.730      740.135      365.275        0.219        0.142       38.167       24.459        0.411      331.370       -0.657      854.971
04/02/2014  06:07:00      -37.025      -46.367        9.080       34.997       25.770       21.990     1224.794      664.087      483.559        0.299        0.119       59.336       19.051        0.103      331.371       -0.658      854.975
04/02/2014  06:08:00      -74.184      -60.469       -3.909       26.427       35.109       18.688      698.413     1232.613      349.231        0.573        0.114       95.707       13.291        0.019      331.351       -0.690      854.975
04/02/2014  06:09:00      -49.329      -45.759        8.409       40.791       26.964       17.958     1663.931      727.042      322.486        0.366        0.136       67.284       22.012        0.107      331.401       -0.607      854.975
04/02/2014  06:10:00      -32.532      -36.600        2.836       38.008       20.002       20.002     1444.600      400.062      400.086        0.232        0.112       48.969       21.546        0.194      331.327       -0.729      854.975
04/02/2014  06:11:00      -73.828      -66.352       -2.965       30.258       22.731       17.456      915.542      516.714      304.726        0.580        0.087       99.263        9.021        0.008      331.379       -0.644      854.984
04/02/2014  06:12:00      -29.755      -33.007       10.779       36.511       28.069       19.477     1333.064      787.867      379.348        0.230        0.125       44.439       23.220        0.273      331.377       -0.646      854.992
04/02/2014  06:13:00      -77.676      -48.114       -0.705       28.275       23.974       12.965      799.478      574.757      168.085        0.495        0.077       91.370       12.282        0.018      331.363       -0.670      854.991
04/02/2014  06:14:00      -76.880      -45.982       -5.077       17.675       15.429       12.849      312.388      238.040      165.098        0.438        0.036       89.582        8.996        0.010      331.331       -0.722      854.997
04/02/2014  06:15:00      -75.106      -58.401       -7.259       25.892       23.144       12.552      670.393      535.630      157.557        0.523        0.068       95.139        7.334        0.006      331.356       -0.682      855.010
04/02/2014  06:16:00      -60.932      -46.655       -2.367       26.510       23.625       14.819      702.785      558.123      219.600        0.369        0.074       76.742       10.997        0.021      331.423       -0.571      855.029
04/02/2014  06:17:00      -49.603      -38.168       10.240       41.662       21.618       17.950     1735.750      467.356      322.193        0.327        0.126       62.588       21.439        0.117      331.303       -0.769      855.050
04/02/2014  06:18:00      -28.555      -24.383       11.954       26.403       13.131       16.296      697.099      172.421      265.575        0.134        0.057       37.549       15.487        0.170      331.357       -0.679      855.071
04/02/2014  06:19:00      -18.771      -14.250        4.065       20.670       14.981       12.753      427.236      224.421      162.648        0.069        0.041       23.567       14.430        0.375      331.329       -0.724      855.084
04/02/2014  06:20:00        1.146       -0.288        3.340       11.897        7.739        7.649      141.529       59.886       58.508        0.014        0.013        1.181        4.835       16.757      331.343       -0.701      855.105
04/02/2014  06:21:00       -6.579       -5.164        4.031       13.198       11.360        7.289      174.180      129.046       53.134        0.022        0.018        8.364        9.000        1.158      331.330       -0.725      855.120
04/02/2014  06:22:00       -2.970        7.212        5.610        8.615        9.281        8.032       74.214       86.145       64.510        0.016        0.011        7.800        5.109        0.429      331.300       -0.772      855.141
04/02/2014  06:23:00       -6.752        0.972        0.692        9.638        4.383        6.722       92.886       19.214       45.189        0.010        0.008        6.822        5.184        0.578      331.192       -0.951      855.169
04/02/2014  06:24:00       20.832       21.271        9.716       19.787       19.130       10.574      391.512      365.956      111.812        0.092        0.043       29.773       10.770        0.131      331.173       -0.983      855.196
04/02/2014  06:25:00       51.956       48.867       -7.168       24.203       17.655       17.027      585.798      311.701      289.933        0.316        0.059       71.326        9.207        0.017      331.192       -0.952      855.222
04/02/2014  06:26:00       57.853       46.271      -11.120       33.005       23.413       20.534     1089.353      548.172      421.657        0.383        0.103       74.081       14.891        0.040      331.029       -1.219      855.242
04/02/2014  06:27:00      114.866       55.912        0.444       30.843       24.397       21.368      951.300      595.226      456.582        0.916        0.100      127.751       11.479        0.008      330.993       -1.279      855.258
04/02/2014  06:28:00      100.497       54.529       27.460       34.763       35.137       32.188     1208.488     1234.587     1036.057        0.865        0.174      114.337       18.411        0.026      331.008       -1.255      855.269
04/02/2014  06:29:00      118.544       70.268       23.145       55.910       33.154       37.074     3125.903     1099.216     1374.464        1.256        0.280      137.805       38.821        0.079      330.923       -1.393      855.270
04/02/2014  06:30:00      135.059       59.706       35.645       47.935       31.825       34.624     2297.744     1012.844     1198.856        1.379        0.225      147.668       20.719        0.020      330.987       -1.288      855.278
04/02/2014  06:31:00      122.549       65.680       32.736       32.689       22.955       27.837     1068.568      526.934      774.917        1.139        0.119      139.040       19.361        0.019      331.078       -1.140      855.274
04/02/2014  06:32:00      103.152       52.675       19.016       38.158       25.568       29.357     1456.005      653.711      861.862        0.837        0.149      115.823       22.475        0.038      331.111       -1.085      855.272
04/02/2014  06:33:00       75.892       55.571       42.489       33.556       22.658       20.331     1125.980      513.364      413.339        0.635        0.103       94.063       13.931        0.022      331.159       -1.007      855.270
04/02/2014  06:34:00       30.593       32.140       41.746       28.315       23.492       16.371      801.718      551.886      267.998        0.267        0.081       44.372        9.684        0.048      331.163       -0.999      855.266
04/02/2014  06:35:00       65.805       37.266       23.392       28.190       15.459       19.062      794.697      238.967      363.377        0.383        0.070       75.624       15.408        0.042      331.288       -0.792      855.261
04/02/2014  06:36:00       74.433       40.514       11.677       11.899       14.188       11.455      141.591      201.307      131.209        0.390        0.024       84.744        7.260        0.007      331.202       -0.935      855.274
04/02/2014  06:37:00       84.613       44.880       12.280       11.324       12.901       10.899      128.229      166.444      118.792        0.487        0.021       95.778        7.985        0.007      331.164       -0.998      855.280
04/02/2014  06:38:00       98.562       44.278        7.499       13.922       17.001       11.791      193.834      289.037      139.029        0.618        0.031      108.051        4.240        0.002      331.198       -0.943      855.288
04/02/2014  06:39:00       84.674       48.186        5.927       13.558        9.528       12.653      183.828       90.774      160.093        0.498        0.022       97.425        4.882        0.003      331.135       -1.045      855.296
04/02/2014  06:40:00       57.489       33.988        5.871       16.271       13.614       17.967      264.760      185.344      322.821        0.263        0.039       66.784       10.289        0.024      331.130       -1.053      855.309
04/02/2014  06:41:00       64.562       22.699        7.217       12.766       11.784       13.206      162.973      138.872      174.387        0.261        0.024       68.436        6.574        0.009      331.186       -0.962      855.328
04/02/2014  06:42:00       51.605       37.672       15.718       12.292        7.573        9.499      151.103       57.346       90.232        0.231        0.015       63.893        6.801        0.011      331.205       -0.930      855.345
04/02/2014  06:43:00       37.323       27.740       18.245        9.909        8.188        9.544       98.189       67.047       91.079        0.138        0.013       46.503        6.123        0.017      331.246       -0.864      855.356
04/02/2014  06:44:00       21.440       28.041       24.200       24.609       14.532       11.826      605.607      211.185      139.843        0.139        0.048       35.298       12.180        0.119      331.249       -0.857      855.363
04/02/2014  06:45:00       25.066       26.561       25.144       21.920       20.585       14.682      480.505      423.756      215.548        0.154        0.056       36.521       13.479        0.136      331.228       -0.891      855.379
04/02/2014  06:46:00       18.067       24.737       26.605       13.429       14.200        6.154      180.328      201.629       37.867        0.103        0.021       30.632        1.606        0.003      331.200       -0.938      855.397
04/02/2014  06:47:00       13.557       16.986       23.104       17.269       12.944        8.308      298.232      167.552       69.019        0.077        0.027       21.733        2.062        0.009      331.171       -0.986      855.405
04/02/2014  06:48:00       31.865       25.066       18.568       15.655       10.939       14.975      245.080      119.659      224.249        0.129        0.029       40.542        2.721        0.005      331.184       -0.965      855.413
04/02/2014  06:49:00       15.669       17.114       19.504       10.729       13.959        9.254      115.104      194.849       85.639        0.066        0.020       23.204        6.854        0.087      331.285       -0.798      855.424
04/02/2014  06:50:00        3.523       11.594        9.479       15.354       10.056       11.064      235.754      101.118      122.402        0.035        0.023       12.117       10.047        0.687      331.229       -0.891      855.432
04/02/2014  06:51:00        4.174       18.542       23.523       14.978       12.976        8.763      224.327      168.367       76.789        0.069        0.023       19.006        7.994        0.177      331.182       -0.967      855.443
04/02/2014  06:52:00       12.718       13.402       15.999       17.441       13.124        9.727      304.186      172.244       94.614        0.058        0.029       18.476        7.605        0.169      331.222       -0.902      855.449
04/02/2014  06:53:00        5.826      -10.624        2.932        9.597       13.092       11.855       92.107      171.391      140.545        0.028        0.020       12.116        6.387        0.278      331.298       -0.777      855.459
04/02/2014  06:54:00       -8.603        7.521       24.387        7.941       16.442       10.376       63.059      270.349      107.666        0.058        0.022       11.427       11.137        0.950      331.249       -0.858      855.472
04/02/2014  06:55:00        2.350        7.729       18.804       14.810       10.081       10.958      219.344      101.621      120.072        0.043        0.022        8.079       10.310        1.629      331.266       -0.830      855.489
04/02/2014  06:56:00        3.055       15.347       21.576       12.278       11.821       15.316      150.749      139.733      234.592        0.062        0.026       15.649       11.187        0.511      331.316       -0.746      855.506
04/02/2014  06:57:00       47.304       26.779        8.740       22.011       20.358       14.896      484.472      414.455      221.889        0.208        0.056       54.358       13.592        0.063      331.166       -0.995      855.531
04/02/2014  06:58:00       56.324       35.348        3.460       20.331       19.002       13.438      413.339      361.071      180.578        0.269        0.048       66.497        8.793        0.017      331.063       -1.162      855.553
04/02/2014  06:59:00       77.141       43.287       -0.431       14.637       14.225       11.634      214.252      202.363      135.340        0.419        0.028       88.456        4.785        0.003      331.134       -1.048      855.566
04/02/2014  07:00:00       49.218       39.368       23.355       17.791       11.330       16.444      316.520      128.366      270.395        0.262        0.036       63.025        8.542        0.018      331.178       -0.976      855.588
04/02/2014  07:01:00       50.415       33.759       11.605       12.586       10.118       12.645      158.404      102.370      159.885        0.212        0.021       60.674        6.028        0.010      331.209       -0.923      855.612
04/02/2014  07:02:00       46.346       33.816        8.978        9.550       10.012       11.160       91.201      100.238      124.544        0.184        0.016       57.371        7.575        0.017      331.212       -0.917      855.641
04/02/2014  07:03:00       45.093       40.681        9.603       14.060       16.212       11.115      197.671      262.826      123.539        0.218        0.029       60.731        4.037        0.004      331.184       -0.963      855.659
04/02/2014  07:04:00       81.735       58.652        9.869       11.498       11.347       13.176      132.210      128.752      173.607        0.533        0.022      100.601        3.820        0.001      331.278       -0.810      855.676
04/02/2014  07:05:00       72.702       45.713        5.191       14.822       14.463       12.999      219.701      209.171      168.967        0.400        0.030       85.879        8.864        0.011      331.233       -0.884      855.697
04/02/2014  07:06:00       50.953       40.392        9.738       23.020       20.826       21.989      529.901      433.722      483.528        0.288        0.072       65.021        9.742        0.022      331.238       -0.876      855.716
04/02/2014  07:07:00       23.414       29.060        3.045       23.597       15.083       11.914      556.827      227.484      141.955        0.116        0.046       37.319        7.664        0.042      331.195       -0.947      855.737
04/02/2014  07:08:00        4.747       35.261        0.063       11.382       14.248        8.416      129.554      202.996       70.828        0.083        0.020       35.579        5.226        0.022      331.195       -0.949      855.744
04/02/2014  07:09:00       11.080       32.126       -1.305        8.223        9.766        6.560       67.617       95.379       43.038        0.068        0.010       33.983        2.151        0.004      331.186       -0.962      855.757
04/02/2014  07:10:00       27.802       19.639        3.160       13.390        8.059       10.458      179.285       64.950      109.366        0.076        0.018       34.039        6.858        0.041      331.214       -0.916      855.780
04/02/2014  07:11:00       30.346       27.806       -3.987       13.873        9.988       14.120      192.469       99.763      199.372        0.110        0.025       41.159        2.417        0.003      331.213       -0.916      855.799
04/02/2014  07:12:00       51.198       26.157        6.107       13.881       10.709       16.166      192.692      114.685      261.353        0.196        0.028       57.493        6.357        0.012      331.261       -0.838      855.812
04/02/2014  07:13:00       26.093       22.940       25.641       24.840       14.652       14.042      617.006      214.675      197.165        0.145        0.051       34.743       12.072        0.121      331.314       -0.750      855.826
04/02/2014  07:14:00       42.752       24.072       36.527       29.013       31.890       26.903      841.766     1016.987      723.773        0.316        0.129       49.063       26.336        0.288      331.323       -0.735      855.839
04/02/2014  07:15:00       53.359       47.111       38.775       32.967       22.361       21.074     1086.855      500.016      444.133        0.430        0.102       71.180       14.677        0.043      331.311       -0.756      855.854
04/02/2014  07:16:00       31.681       14.806       31.814       33.837       23.568       24.674     1144.931      555.446      608.792        0.227        0.115       34.970       19.846        0.322      331.358       -0.679      855.863
04/02/2014  07:17:00       16.864       28.192       46.671       20.963       26.684       22.826      439.443      712.037      521.031        0.246        0.084       32.851       19.088        0.338      331.369       -0.660      855.879
04/02/2014  07:18:00       44.989       16.964       30.938       34.088       27.996       20.693     1162.014      783.754      428.212        0.282        0.119       48.081       22.796        0.225      331.305       -0.765      855.883
04/02/2014  07:19:00       57.026       15.808       13.166       36.700       17.869       15.005     1346.867      319.311      225.135        0.278        0.095       59.176        7.384        0.016      331.262       -0.835      855.874
04/02/2014  07:20:00       40.043       16.200       20.510       26.242       24.714       15.924      688.626      610.800      253.587        0.192        0.078       43.196       10.973        0.065      331.321       -0.738      855.869
04/02/2014  07:21:00       26.044       34.867       25.569       12.635       15.487       14.141      159.649      239.862      199.970        0.157        0.030       43.520        9.073        0.043      331.377       -0.646      855.863
04/02/2014  07:22:00       38.449       20.937       16.848       17.371       25.557       17.407      301.756      653.167      302.998        0.173        0.063       43.780       11.603        0.070      331.399       -0.613      855.876
04/02/2014  07:23:00       42.571       15.784       17.562       18.937       20.486       19.837      358.615      419.664      393.523        0.177        0.059       45.403       13.232        0.085      331.426       -0.566      855.879
04/02/2014  07:24:00       39.099       24.143       25.406       18.241       24.842       22.676      332.737      617.122      514.187        0.211        0.073       45.953       21.973        0.229      331.353       -0.685      855.892
04/02/2014  07:25:00       40.327        9.361       13.426       16.824       11.806       13.183      283.037      139.383      173.786        0.125        0.030       41.399        9.618        0.054      331.426       -0.567      855.906
04/02/2014  07:26:00        6.290       25.499       43.036       18.073       17.423       11.666      326.621      303.559      136.084        0.165        0.038       26.263        7.388        0.079      331.626       -0.236      855.907
04/02/2014  07:27:00       11.178       15.114       41.140       15.495       15.780       12.052      240.089      248.997      145.260        0.134        0.032       18.799        7.090        0.142      331.602       -0.276      855.919
04/02/2014  07:28:00        0.765      -29.222       21.150       17.455       28.177       22.833      304.671      793.951      521.323        0.146        0.081       29.232       16.298        0.311      331.721       -0.082      855.924
04/02/2014  07:29:00       21.312      -11.817       18.157       24.291       28.707       28.599      590.048      824.087      817.907        0.158        0.112       24.369       22.659        0.865      331.710       -0.099      855.934
04/02/2014  07:30:00       24.438      -32.556        2.609       33.724       30.535       25.272     1137.303      932.396      638.685        0.219        0.135       40.707       22.248        0.299      331.675       -0.157      855.940
04/02/2014  07:31:00       -5.693      -35.562       25.773       16.466       23.370       18.926      271.125      546.137      358.183        0.157        0.059       36.015       10.895        0.092      331.757       -0.022      855.936
04/02/2014  07:32:00      -21.375        4.594        7.146       19.358       28.207       16.667      374.716      795.649      277.775        0.099        0.072       21.863       15.091        0.476      331.621       -0.248      855.939
04/02/2014  07:33:00       -8.346       25.166       31.407       12.462       22.761       24.237      155.311      518.051      587.412        0.147        0.063       26.514        9.066        0.117      331.761       -0.016      855.932
04/02/2014  07:34:00      -12.608       30.620       49.960       11.342       22.753       12.213      128.634      517.691      149.161        0.219        0.040       33.114       11.099        0.112      331.917        0.242      855.953
04/02/2014  07:35:00        8.958       -9.747       28.515       27.050       27.145       29.728      731.705      736.849      883.730        0.167        0.118       13.238       24.424        3.404      331.798        0.046      855.962
04/02/2014  07:36:00       -6.037       21.541       29.985       17.172       18.897       22.566      294.875      357.105      509.234        0.128        0.058       22.371       14.498        0.420      331.834        0.105      855.984
04/02/2014  07:37:00       -0.968       21.748       -7.147       18.697       17.475       19.780      349.561      305.376      391.267        0.079        0.052       21.769        8.344        0.147      331.696       -0.121      855.992
04/02/2014  07:38:00      -25.057      -30.609      -25.061       29.342       25.774       18.966      860.976      664.295      359.693        0.204        0.094       39.557       10.461        0.070      331.710       -0.099      855.992
04/02/2014  07:39:00      -12.218      -40.093       -2.641       34.733       32.165       25.471     1206.362     1034.575      648.755        0.233        0.144       41.913       17.642        0.177      331.771       -0.001      855.984
04/02/2014  07:40:00       11.863      -28.599        2.578       33.750       27.585       22.407     1139.092      760.930      502.087        0.168        0.120       30.962       10.963        0.125      331.803        0.053      855.983
04/02/2014  07:41:00      -15.119      -32.018        7.240       50.757       41.335       31.567     2576.298     1708.560      996.483        0.329        0.264       35.408       26.344        0.554      331.789        0.032      855.985
04/02/2014  07:42:00      -16.984      -13.964       11.702       41.356       38.105       20.545     1710.286     1452.021      422.091        0.210        0.179       21.987       20.765        0.892      331.889        0.196      855.990
04/02/2014  07:43:00      -48.059      -40.164        6.516       44.998       31.792       25.446     2024.822     1010.719      647.508        0.382        0.184       62.632       25.142        0.161      331.652       -0.194      855.999
04/02/2014  07:44:00     -115.353      -76.417       -8.755       21.672       28.454       16.268      469.672      809.637      264.635        1.038        0.077      138.368       11.981        0.007      331.564       -0.340      856.013
04/02/2014  07:45:00     -123.882      -68.763        0.330       34.634       32.783       22.997     1199.480     1074.702      528.874        1.144        0.140      141.687       17.658        0.016      331.532       -0.393      856.020
04/02/2014  07:46:00      -91.272      -55.255        8.127       57.640       34.877       18.344     3322.369     1216.378      336.489        0.816        0.244      106.694       21.758        0.042      331.572       -0.327      856.032
04/02/2014  07:47:00      -85.652      -73.731       -3.761       44.472       36.528       26.234     1977.745     1334.267      688.215        0.839        0.200      113.016       20.768        0.034      331.529       -0.397      856.045
04/02/2014  07:48:00      -97.264      -38.755        6.261       57.251       44.047       26.337     3277.725     1940.151      693.626        0.846        0.296      104.701       23.253        0.049      331.547       -0.366      856.043
04/02/2014  07:49:00     -122.927      -92.316       -4.326       47.138       35.007       27.616     2221.982     1225.491      762.648        1.393        0.211      153.732       27.462        0.032      331.442       -0.541      856.054
04/02/2014  07:50:00      -75.162      -91.681       -6.216       44.723       36.286       19.231     2000.160     1316.675      369.835        0.889        0.184      118.553       21.797        0.034      331.423       -0.572      856.066
04/02/2014  07:51:00     -136.076      -92.330      -11.951       31.027       33.339       17.720      962.655     1111.466      313.986        1.479        0.119      164.443       13.294        0.007      331.479       -0.480      856.070
04/02/2014  07:52:00      -71.074      -54.884       -0.737       37.692       27.906       28.619     1420.676      778.758      819.050        0.554        0.151       89.798       23.705        0.070      331.577       -0.318      856.077
04/02/2014  07:53:00      -89.826      -72.988       -0.572       33.657       37.912       23.425     1132.821     1437.293      548.737        0.826        0.156      115.741       21.088        0.033      331.522       -0.409      856.093
04/02/2014  07:54:00      -79.707      -72.072       -3.530       40.056       33.103       23.676     1604.446     1095.792      560.554        0.741        0.163      107.460       20.099        0.035      331.576       -0.320      856.108
04/02/2014  07:55:00     -105.048      -29.022       -7.418       16.879       31.774       14.182      284.905     1009.589      201.134        0.671        0.075      108.983        7.872        0.005      331.599       -0.281      856.126
04/02/2014  07:56:00      -88.198      -12.927       -1.472       26.022       29.798       15.480      677.166      887.945      239.634        0.488        0.090       89.141       10.507        0.014      331.589       -0.298      856.141
04/02/2014  07:57:00      -21.077      -28.681       -6.726       22.826       20.325       16.089      521.027      413.110      258.849        0.125        0.060       35.593        5.656        0.025      331.717       -0.088      856.149
04/02/2014  07:58:00      -66.653       41.328      -15.872       25.607       16.089       15.366      655.738      258.850      236.109        0.378        0.058       78.426       16.378        0.044      331.544       -0.371      856.147
04/02/2014  07:59:00      -57.289       29.976       -6.824       17.739       16.228       11.534      314.673      263.332      133.039        0.247        0.036       64.658        9.719        0.023      331.583       -0.308      856.154
04/02/2014  08:00:00      -55.220       26.970       -2.714       15.728       12.383       10.386      247.358      153.340      107.878        0.215        0.025       61.455        7.286        0.014      331.625       -0.238      856.151
04/02/2014  08:01:00      -42.197        9.160       -7.966       15.028        9.359        7.546      225.829       87.599       56.935        0.115        0.019       43.180        4.382        0.010      331.615       -0.255      856.168
04/02/2014  08:02:00      -50.253      -12.996       -5.918       17.884       14.175       15.223      319.842      200.917      231.744        0.174        0.038       51.906       14.078        0.074      331.729       -0.067      856.197
04/02/2014  08:03:00      -41.579       17.898       -7.527       19.231       16.936       11.233      369.848      286.836      126.189        0.144        0.039       45.268        9.622        0.045      331.812        0.069      856.226
04/02/2014  08:04:00      -42.569        9.934        0.508       14.912       11.139        9.600      222.360      124.076       92.169        0.117        0.022       43.713        5.695        0.017      331.748       -0.036      856.242
04/02/2014  08:05:00      -63.385       25.181       -7.004       12.540       14.125       11.424      157.240      199.524      130.497        0.259        0.024       68.204        3.229        0.002      331.730       -0.065      856.271
04/02/2014  08:06:00      -47.096       18.241       -9.897       18.267       16.414       11.625      333.669      269.409      135.139        0.169        0.037       50.505        6.148        0.015      331.745       -0.042      856.284
04/02/2014  08:07:00      -57.513       -2.479       -0.800       14.130       18.578       11.245      199.668      345.133      126.448        0.199        0.034       57.567        8.044        0.020      331.811        0.066      856.318
04/02/2014  08:08:00       -4.450       51.265        1.972       21.801       42.487       18.279      475.301     1805.119      334.115        0.263        0.131       51.458       23.557        0.210      332.106        0.553      856.339
04/02/2014  08:09:00        7.837       67.699        1.346       22.043       28.193       20.844      485.900      794.825      434.483        0.318        0.086       68.151       15.555        0.052      332.104        0.549      856.365
04/02/2014  08:10:00       39.915       76.383       -0.190       31.402       45.042       25.648      986.117     2028.778      657.830        0.555        0.184       86.183       25.170        0.085      331.978        0.342      856.380
04/02/2014  08:11:00       36.035       18.300       19.018       44.809       21.829       21.089     2007.822      476.496      444.741        0.246        0.146       40.415        7.933        0.039      332.115        0.568      856.397
04/02/2014  08:12:00       59.761       30.220       -6.790       22.006       34.339       27.895      484.257     1179.185      778.124        0.349        0.122       66.967        9.371        0.020      331.919        0.244      856.413
04/02/2014  08:13:00       12.218       -9.961        2.107       26.959       14.118       14.707      726.805      199.316      216.288        0.070        0.057       15.764        8.066        0.262      331.993        0.367      856.421
04/02/2014  08:14:00        5.638       22.388        8.218       22.518       29.616       19.670      507.050      877.091      386.908        0.119        0.089       23.087       16.660        0.521      332.201        0.712      856.432
04/02/2014  08:15:00       43.794       31.964       18.156       45.584       28.472       20.150     2077.895      810.678      406.005        0.328        0.165       54.218       10.627        0.038      332.294        0.864      856.447
04/02/2014  08:16:00       58.261       33.984        1.491       35.523       26.915       17.243     1261.863      724.440      297.312        0.342        0.114       67.449       13.658        0.041      332.098        0.540      856.457
04/02/2014  08:17:00       63.771       40.202       -5.094       28.780       25.004       24.948      828.289      625.190      622.420        0.389        0.104       75.385       14.152        0.035      332.087        0.522      856.471
04/02/2014  08:18:00       58.177       45.417        9.008       26.271       32.141       28.543      690.152     1033.061      814.682        0.403        0.127       73.806       10.697        0.021      332.049        0.457      856.492
04/02/2014  08:19:00       51.160       61.734        2.959       28.476       24.733       27.432      810.869      611.706      752.526        0.431        0.109       80.177       18.159        0.051      332.188        0.689      856.515
04/02/2014  08:20:00       78.113       66.329       -2.384       21.226       18.971       17.880      450.526      359.916      319.677        0.582        0.057      102.475       14.116        0.019      332.013        0.399      856.538
04/02/2014  08:21:00       81.277       61.451       10.814       33.582       26.452       28.002     1127.778      699.708      784.116        0.655        0.131      101.893       16.097        0.025      332.178        0.671      856.551
04/02/2014  08:22:00       54.119       53.129       -6.191       33.843       25.615       18.181     1145.370      656.145      330.539        0.396        0.107       75.839       10.031        0.017      332.185        0.683      856.570
04/02/2014  08:23:00       16.828       64.368        6.186       22.217       40.235       23.093      493.596     1618.826      533.285        0.355        0.132       66.531       22.612        0.116      332.325        0.914      856.586
04/02/2014  08:24:00       26.027       67.842      -22.347       22.239       22.334       20.218      494.582      498.795      408.749        0.359        0.070       72.663       12.437        0.029      332.088        0.524      856.604
04/02/2014  08:25:00       -2.733       42.411       -6.647       25.979       21.983       20.454      674.884      483.246      418.352        0.171        0.079       42.499       15.585        0.134      332.267        0.818      856.622
04/02/2014  08:26:00      -18.932       23.051        8.279       17.755       22.410       21.628      315.239      502.201      467.757        0.112        0.064       29.829       13.444        0.203      332.637        1.431      856.625
04/02/2014  08:27:00       -9.569       23.949       13.691       18.832       27.062       19.282      354.627      732.351      371.794        0.116        0.073       25.790       17.483        0.460      332.792        1.686      856.622
04/02/2014  08:28:00       -3.351       -3.482       10.549       11.278       15.824       11.295      127.184      250.413      127.574        0.032        0.025        4.833        8.025        2.757      332.730        1.583      856.615
04/02/2014  08:29:00       19.881       25.430       13.059       16.943       30.778       17.903      287.074      947.258      320.520        0.138        0.078       32.279       16.018        0.246      332.850        1.781      856.611
04/02/2014  08:30:00       21.539       12.018       34.062       24.038       37.392       34.850      577.820     1398.149     1214.531        0.248        0.160       24.665       30.609        1.540      332.849        1.781      856.603
04/02/2014  08:31:00       33.311       62.418       59.865       44.242       33.090       21.457     1957.363     1094.975      460.423        0.605        0.176       70.750       17.565        0.062      332.553        1.292      856.594
04/02/2014  08:32:00       36.488       44.981       16.495       35.334       26.324       39.427     1248.459      692.964     1554.520        0.356        0.175       57.919       30.640        0.280      332.572        1.322      856.608
04/02/2014  08:33:00       23.730       -8.118       14.217       25.833       41.015       27.450      667.363     1682.197      753.484        0.197        0.155       25.080       27.332        1.188      332.596        1.362      856.620
04/02/2014  08:34:00       27.649       51.812       -1.392       34.639       28.080       20.277     1199.862      788.512      411.166        0.292        0.120       58.727       16.963        0.083      332.468        1.150      856.631
04/02/2014  08:35:00       -9.898       -6.208        4.873       17.613       19.278       15.697      310.227      371.635      246.385        0.054        0.046       11.684        7.258        0.386      332.683        1.505      856.658
04/02/2014  08:36:00        1.298        7.491       33.429       29.182       23.644       27.549      851.568      559.016      758.926        0.167        0.108        7.603       19.901        6.852      333.313        2.546      856.668
04/02/2014  08:37:00       33.030      -26.789       30.363       47.521       70.375       51.976     2258.240     4952.701     2701.475        0.632        0.496       42.528       59.754        1.974      332.882        1.834      856.687
04/02/2014  08:38:00       76.896     -106.027      -11.457       55.302       37.762       27.082     3058.359     1425.977      733.418        1.125        0.261      130.976       22.388        0.029      332.641        1.435      856.703
04/02/2014  08:39:00       43.530       50.521       63.032       32.189       34.126       41.550     1036.126     1164.610     1726.417        0.617        0.196       66.688       14.658        0.048      332.758        1.628      856.713
04/02/2014  08:40:00       41.949       41.952       21.704       27.406       18.307       21.202      751.077      335.154      449.505        0.276        0.077       59.326        7.616        0.016      332.668        1.481      856.725
04/02/2014  08:41:00       41.443       52.041       51.509       41.438       28.123       31.577     1717.090      790.881      997.081        0.529        0.175       66.527       25.021        0.141      332.921        1.898      856.720
04/02/2014  08:42:00       51.454       46.962       57.608       50.101       48.186       39.278     2510.128     2321.907     1542.771        0.727        0.319       69.663       38.414        0.304      332.925        1.906      856.719
04/02/2014  08:43:00       50.653       44.871       30.277       39.987       46.091       31.114     1598.959     2124.418      968.068        0.509        0.235       67.669       25.693        0.144      332.803        1.703      856.721
04/02/2014  08:44:00       50.496       49.334       56.707       45.994       32.757       36.802     2115.456     1073.052     1354.411        0.637        0.227       70.596       28.054        0.158      332.982        2.000      856.714
04/02/2014  08:45:00       12.382       13.127       60.249       35.412       77.131       40.632     1254.029     5949.172     1650.963        0.640        0.443       18.045       49.666        7.576      333.135        2.252      856.704
04/02/2014  08:46:00       22.209      -26.675       30.832       38.880       60.571       41.556     1511.645     3668.889     1726.873        0.453        0.345       34.710       38.395        1.224      333.433        2.744      856.701
04/02/2014  08:47:00       14.550       33.580       49.371       38.493       42.436       37.172     1481.675     1800.780     1381.767        0.422        0.233       36.597       10.541        0.083      333.416        2.716      856.707
04/02/2014  08:48:00       26.143      -77.797       10.405       38.419       61.717       47.580     1476.007     3808.984     2263.836        0.719        0.377       82.071       40.697        0.246      333.260        2.458      856.724
04/02/2014  08:49:00       63.579      -28.759       30.674       67.219       86.726       65.882     4518.359     7521.378     4340.399        1.109        0.819       69.781       73.081        1.097      333.051        2.113      856.723
04/02/2014  08:50:00      -12.826      -45.774       27.835       47.863       82.417       45.510     2290.860     6792.640     2071.163        0.709        0.558       47.537       49.433        1.081      333.415        2.714      856.720
04/02/2014  08:51:00        8.989        3.156       54.892       40.878       48.333       33.989     1670.986     2336.088     1155.233        0.413        0.258        9.527       10.062        1.115      333.577        2.983      856.723
04/02/2014  08:52:00       -1.053        5.466       32.960       47.341       43.057       34.838     2241.189     1853.933     1213.658        0.321        0.265        5.567       34.687       38.828      333.589        3.004      856.720
04/02/2014  08:53:00      -16.854       22.816       40.824       32.909       29.188       23.768     1082.994      851.962      564.910        0.249        0.125       28.366       14.071        0.246      333.757        3.281      856.709
04/02/2014  08:54:00       11.633       57.874       38.720       38.414       32.661       32.432     1475.634     1066.771     1051.866        0.429        0.180       59.032       19.396        0.108      333.560        2.956      856.705
04/02/2014  08:55:00      -69.366       -0.043       -1.500       61.422       50.313       34.398     3772.719     2531.388     1183.236        0.615        0.374       69.366       26.074        0.141      333.332        2.578      856.705
04/02/2014  08:56:00      -43.973      -32.805        9.114       62.059       45.233       31.752     3851.289     2046.017     1008.169        0.500        0.345       54.861       26.825        0.239      333.311        2.541      856.722
04/02/2014  08:57:00      -75.927      -37.851       -0.006       39.113       35.893       22.535     1529.826     1288.314      507.840        0.526        0.166       84.839       20.435        0.058      332.865        1.805      856.749
04/02/2014  08:58:00       -0.420       43.239       66.161       29.424       49.117       33.561      865.776     2412.492     1126.327        0.532        0.220       43.241       21.180        0.240      333.504        2.864      856.759
04/02/2014  08:59:00      -12.611        0.580       52.113       16.969       22.292       24.065      287.945      496.943      579.146        0.212        0.068       12.625       16.572        1.723      333.843        3.425      856.774
04/02/2014  09:00:00       -9.640       -5.666       36.690       17.097       39.830       30.854      292.313     1586.406      951.981        0.215        0.142       11.181       30.572        7.476      333.983        3.655      856.785
04/02/2014  09:01:00      -53.233      -37.271        2.956       40.807       33.478       18.574     1665.201     1120.780      344.992        0.368        0.157       64.983       15.956        0.060      333.354        2.615      856.796
04/02/2014  09:02:00      -27.898       -9.450       -5.711       21.985       25.558       17.533      483.342      653.195      307.392        0.117        0.072       29.455       11.857        0.162      333.306        2.535      856.801
04/02/2014  09:03:00       28.206      -33.019       12.041       50.379       71.929       45.113     2538.036     5173.823     2035.192        0.589        0.487       43.426       49.980        1.325      333.776        3.314      856.799
04/02/2014  09:04:00      -49.480      -35.749       38.199       52.651       48.629       42.449     2772.117     2364.798     1801.940        0.606        0.347       61.043       34.239        0.315      333.528        2.901      856.801
04/02/2014  09:05:00      -21.248       10.584       23.821       43.890       36.477       29.776     1926.325     1330.580      886.587        0.264        0.207       23.738       23.457        0.976      333.695        3.179      856.803
04/02/2014  09:06:00       15.265      -11.912       44.164       42.164       47.131       38.189     1777.771     2221.305     1458.402        0.389        0.273       19.363       27.959        2.085      333.790        3.337      856.807
04/02/2014  09:07:00       45.187      -96.693        0.229       55.375       71.514       53.186     3066.343     5114.195     2828.702        1.120        0.550      106.731       44.642        0.175      333.632        3.074      856.805
04/02/2014  09:08:00       17.852      -17.582       27.106       39.873       49.680       47.651     1589.890     2468.086     2270.644        0.384        0.316       25.056       28.316        1.277      334.056        3.779      856.810
04/02/2014  09:09:00        3.242       20.200       61.790       32.887       55.024       27.581     1081.577     3027.595      760.684        0.455        0.243       20.459       27.978        1.870      334.091        3.835      856.819
04/02/2014  09:10:00       42.289       88.430       85.563       49.950       47.059       34.093     2495.041     2214.508     1162.309        1.140        0.294       98.022       32.273        0.108      333.524        2.896      856.834
04/02/2014  09:11:00      101.388       98.113       39.748       41.114       29.521       50.767     1690.343      871.477     2577.269        1.331        0.257      141.088       23.430        0.028      333.268        2.471      856.838
04/02/2014  09:12:00       83.762       79.332       29.076       21.199       19.752       23.245      449.386      390.139      540.327        0.777        0.069      115.367       11.172        0.009      333.279        2.490      856.855
04/02/2014  09:13:00      125.203      108.059       73.462       52.379       42.904       36.763     2743.588     1840.717     1351.532        1.934        0.297      165.387       18.054        0.012      333.337        2.585      856.866
04/02/2014  09:14:00      109.539       90.245       67.164       62.799       43.883       29.256     3943.683     1925.724      855.901        1.569        0.336      141.926       20.735        0.021      333.276        2.486      856.869
04/02/2014  09:15:00       68.017      -13.342       32.804       61.665      103.656       68.606     3802.616    10744.561     4706.851        1.256        0.963       69.313       70.115        1.023      333.697        3.181      856.896
04/02/2014  09:16:00       59.817      -18.378       29.923       64.615       61.789       69.797     4175.054     3817.883     4871.616        0.884        0.643       62.576       58.968        0.888      333.896        3.513      856.905
04/02/2014  09:17:00        5.687      -41.410       42.351       30.317       64.286       48.987      919.128     4132.631     2399.719        0.549        0.373       41.798       41.651        0.993      333.927        3.564      856.927
04/02/2014  09:18:00      -12.651       36.018       80.653       22.702       45.294       28.211      515.359     2051.507      795.843        0.566        0.168       38.175       29.782        0.609      334.314        4.205      856.934
04/02/2014  09:19:00       42.259      -42.673       29.584       39.712       66.290       55.441     1577.042     4394.392     3073.720        0.676        0.452       60.057       51.324        0.730      334.169        3.964      856.942
04/02/2014  09:20:00       30.607       50.155       75.332       44.995       37.533       34.828     2024.581     1408.736     1213.003        0.689        0.232       58.757       26.597        0.205      334.068        3.798      856.950
04/02/2014  09:21:00       31.182       -8.078       44.956       45.230       66.017       48.009     2045.775     4358.194     2304.857        0.588        0.435       32.211       43.751        1.845      333.879        3.484      856.958
04/02/2014  09:22:00       14.569       72.258       93.766       40.062       39.101       24.025     1604.965     1528.855      577.214        0.897        0.186       73.712       15.976        0.047      333.983        3.657      856.949
04/02/2014  09:23:00        8.680      -13.814       40.334       64.041       58.682       52.241     4101.217     3443.627     2729.108        0.608        0.514       16.315       42.593        6.816      334.227        4.061      856.952
04/02/2014  09:24:00       70.627       67.525       79.369       54.522       47.088       45.638     2972.626     2217.280     2082.838        1.156        0.364       97.713       35.386        0.131      333.771        3.304      856.952
04/02/2014  09:25:00       43.375        7.824       40.002       57.181       84.033       53.100     3269.645     7061.621     2819.663        0.834        0.658       44.075       60.656        1.894      333.818        3.384      856.943
04/02/2014  09:26:00       31.302       84.815      109.696       67.238       99.614       55.776     4520.891     9922.985     3110.976        1.888        0.878       90.407       61.062        0.456      334.200        4.015      856.939
04/02/2014  09:27:00       19.098       13.010       48.046       89.128      120.039       66.789     7943.770    14409.402     4460.737        1.482        1.341       23.108       89.772       15.092      333.821        3.386      856.930
04/02/2014  09:28:00      -43.381      -36.992       15.061       38.254       51.956       30.768     1463.346     2699.417      946.669        0.429        0.255       57.012       34.441        0.365      334.350        4.266      856.942
04/02/2014  09:29:00       14.384      -23.002       32.789       50.026       54.600       55.554     2502.596     2981.204     3086.219        0.519        0.429       27.129       34.868        1.652      334.383        4.320      856.954
04/02/2014  09:30:00       35.863      -81.886        2.138       66.261       86.252       66.647     4390.565     7439.422     4441.774        1.213        0.814       89.395       50.907        0.324      334.333        4.237      856.959
04/02/2014  09:31:00       25.770       22.561       66.062       43.278       44.796       37.019     1873.002     2006.688     1370.394        0.539        0.263       34.251       38.390        1.256      334.432        4.400      856.978
04/02/2014  09:32:00        3.002       61.895       60.871       24.447       28.421       29.516      597.664      807.781      871.165        0.491        0.114       61.968       19.322        0.097      334.242        4.086      856.991
04/02/2014  09:33:00       34.609       54.224       39.561       36.704       39.323       26.544     1347.200     1546.330      704.585        0.465        0.180       64.327       22.593        0.123      334.299        4.181      856.989
04/02/2014  09:34:00       53.764       20.715       34.529       39.799       41.086       39.205     1583.927     1688.055     1537.052        0.466        0.240       57.616       27.611        0.230      334.271        4.134      856.997
04/02/2014  09:35:00       43.194       63.093       47.082       55.586       36.098       36.565     3089.816     1303.079     1337.030        0.690        0.286       76.462       33.459        0.191      334.054        3.775      857.012
04/02/2014  09:36:00       -2.597       27.323       59.477       26.930       55.345       38.196      725.224     3063.062     1458.948        0.477        0.262       27.446       41.658        2.304      334.484        4.487      857.026
04/02/2014  09:37:00      -14.154        2.726       19.331       25.597       32.578       34.551      655.214     1061.335     1193.739        0.175        0.146       14.414       25.343        3.091      334.431        4.400      857.050
04/02/2014  09:38:00      -15.490      -30.530       13.090       24.299       21.788       17.904      590.423      474.720      320.566        0.136        0.069       34.235       10.138        0.088      334.164        3.957      857.078
04/02/2014  09:39:00      -10.562       16.831       36.731       12.180       17.709       20.570      148.358      313.610      423.137        0.131        0.044       19.871        9.389        0.223      334.907        5.189      857.100
04/02/2014  09:40:00       59.925       47.451       24.393       70.645       46.741       39.528     4990.719     2184.693     1562.476        0.759        0.437       76.437       20.135        0.069      334.293        4.170      857.126
04/02/2014  09:41:00       96.932       66.688        8.806       49.559       33.770       34.938     2456.093     1140.394     1220.667        0.937        0.241      117.656       27.550        0.055      334.034        3.740      857.151
04/02/2014  09:42:00        2.122       71.672       20.681       41.210       36.322       44.441     1698.238     1319.303     1975.012        0.528        0.250       71.703       30.014        0.175      334.491        4.500      857.166
04/02/2014  09:43:00        5.978       43.558       76.728       32.041       41.847       20.929     1026.646     1751.154      438.017        0.552        0.161       43.967       21.882        0.248      334.732        4.900      857.186
04/02/2014  09:44:00       49.799       -0.233       67.633       39.921       37.301       25.594     1593.665     1391.372      655.059        0.535        0.182       49.799       22.312        0.201      334.347        4.259      857.209
04/02/2014  09:45:00       59.984       35.033       46.100       34.539       39.729       25.801     1192.932     1578.386      665.677        0.519        0.172       69.465       23.932        0.119      334.205        4.025      857.224
04/02/2014  09:46:00      103.109       62.584       15.984       62.110       52.251       44.494     3857.615     2730.152     1979.752        1.168        0.428      120.616       33.363        0.077      334.492        4.501      857.234
04/02/2014  09:47:00      102.368       82.976       39.380       42.354       39.956       45.557     1793.897     1596.491     2075.482        1.219        0.273      131.774       27.958        0.045      334.291        4.166      857.236
04/02/2014  09:48:00        9.952       70.593       44.531       57.453       38.181       47.013     3300.864     1457.765     2210.268        0.702        0.348       71.291       30.178        0.179      334.491        4.500      857.242
04/02/2014  09:49:00       90.608       65.294        4.583       41.317       33.117       29.045     1707.105     1096.720      843.632        0.807        0.182      111.683       17.463        0.024      334.135        3.908      857.263
04/02/2014  09:50:00       71.054       38.274       12.196       52.951       28.238       37.523     2803.835      797.407     1407.991        0.583        0.250       80.707       11.752        0.021      334.142        3.920      857.286
04/02/2014  09:51:00       83.859       42.824       31.489       77.975       34.436       33.511     6080.034     1185.850     1122.989        0.912        0.419       94.161       34.641        0.135      334.411        4.367      857.286
04/02/2014  09:52:00       57.678       55.918       21.233       69.705       50.885       26.608     4858.815     2589.242      708.005        0.753        0.408       80.334       16.622        0.043      334.256        4.108      857.304
04/02/2014  09:53:00      -96.734       26.626       -3.950       45.674       61.995       38.958     2086.114     3843.328     1517.689        0.876        0.372      100.331       36.987        0.136      334.311        4.200      857.316
04/02/2014  09:54:00        2.012      197.257      -14.580       34.326       61.862       36.941     1178.272     3826.967     1364.605        2.275        0.318      197.267       32.552        0.027      334.277        4.141      857.345
04/02/2014  09:55:00      -30.001      162.650      -15.049       21.665       73.986       29.354      469.363     5473.881      861.661        1.719        0.340      165.393       31.652        0.037      334.341        4.249      857.351
04/02/2014  09:56:00        6.516      127.643       -3.637       32.395       65.464       35.304     1049.408     4285.470     1246.372        1.146        0.329      127.810       40.343        0.100      334.468        4.460      857.356
04/02/2014  09:57:00        9.622      117.344       -9.261       43.855       52.815       42.478     1923.269     2789.394     1804.408        1.023        0.326      117.738       33.011        0.079      334.452        4.434      857.358
04/02/2014  09:58:00       -3.158       66.790        9.212       17.528       47.093       32.214      307.233     2217.726     1037.729        0.406        0.178       66.864       28.607        0.183      334.832        5.065      857.354
04/02/2014  09:59:00       56.095       40.512       13.920       38.192       36.689       34.032     1458.651     1346.058     1158.192        0.447        0.198       69.194       27.269        0.155      334.839        5.078      857.363
04/02/2014  10:00:00       30.904       21.631       21.765       41.375       61.809       51.950     1711.877     3820.364     2698.783        0.506        0.412       37.722       46.592        1.526      334.744        4.920      857.348
04/02/2014  10:01:00      261.579      143.627       30.261      126.920       84.060       72.929    16108.614     7066.019     5318.618        5.922        1.425      298.416       32.893        0.012      334.720        4.873      857.337
04/02/2014  10:02:00      170.137      119.187       -4.470      124.754       85.804       59.189    15563.594     7362.279     3503.312        3.480        1.321      207.731       46.435        0.050      334.934        5.231      857.336
04/02/2014  10:03:00      123.248      123.555       -8.123       98.217       49.389       42.987     9646.589     2439.236     1847.844        2.223        0.697      174.517       34.202        0.038      334.847        5.086      857.344
04/02/2014  10:04:00       35.527       44.557       17.739       83.208       91.783       54.019     6923.517     8424.102     2918.061        1.091        0.913       56.987       30.575        0.288      335.359        5.940      857.351
04/02/2014  10:05:00       93.616       81.229        8.111      100.007       62.228       52.523    10001.393     3872.320     2758.700        1.603        0.832      123.944       37.637        0.092      335.208        5.688      857.340
04/02/2014  10:06:00      185.915      106.907       -2.775       67.724       44.244       44.676     4586.485     1957.570     1995.914        2.727        0.427      214.461       28.580        0.018      334.597        4.672      857.351
04/02/2014  10:07:00       49.808      211.681       -0.237      154.058      108.875       65.976    23733.928    11853.727     4352.865        4.361        1.997      217.462       61.492        0.080      334.914        5.198      857.362
04/02/2014  10:08:00      165.842      126.650        9.021      109.877       78.658       67.445    12072.900     6187.148     4548.876        3.321        1.140      208.672       43.842        0.044      334.972        5.296      857.380
04/02/2014  10:09:00      -14.718      164.250       -1.147       79.861       75.326       45.713     6377.813     5673.962     2089.681        2.067        0.707      164.908       39.637        0.058      334.986        5.318      857.415
04/02/2014  10:10:00        0.358      124.316       -2.187       55.049       79.369       40.532     3030.416     6299.385     1642.831        1.321        0.549      124.317       46.586        0.140      335.054        5.434      857.409
04/02/2014  10:11:00       -2.188       28.044       13.395       83.374       36.548       35.920     6951.159     1335.736     1290.261        0.527        0.479       28.129       27.589        0.962      335.259        5.775      857.393
04/02/2014  10:12:00      -98.688       55.495        2.443       70.760       44.601       44.418     5006.970     1989.265     1972.939        1.090        0.448      113.221       45.745        0.163      335.342        5.914      857.432
04/02/2014  10:13:00     -265.392      110.847      -49.141      100.241      127.071       57.433    10048.197    16146.974     3298.570        5.731        1.475      287.611       67.239        0.055      334.990        5.324      857.445
04/02/2014  10:14:00     -163.160      -31.404      -15.402       95.349       78.368       49.776     9091.338     6141.566     2477.643        2.277        0.886      166.154       25.988        0.024      335.005        5.350      857.430
04/02/2014  10:15:00     -247.225      -11.850      -31.956      118.606       98.682       53.853    14067.300     9738.042     2900.153        4.449        1.335      247.509       45.391        0.034      334.959        5.273      857.425
04/02/2014  10:16:00      -88.697       14.307       -1.885       98.636       81.760       41.849     9729.069     6684.670     1751.364        1.312        0.908       89.843       30.715        0.117      335.113        5.532      857.440
04/02/2014  10:17:00        8.185      296.711      -15.446       94.058      152.854       82.010     8846.903    23364.311     6725.653        6.363        1.947      296.824       90.683        0.093      335.282        5.809      857.435
04/02/2014  10:18:00       15.115      247.727      -29.692       74.777       90.282       52.276     5591.572     8150.754     2732.748        3.947        0.824      248.188       43.863        0.031      335.103        5.511      857.440
04/02/2014  10:19:00      -16.446      205.014      -14.140       78.716      110.986       55.214     6196.232    12317.910     3048.619        3.203        1.078      205.673       59.554        0.084      335.269        5.789      857.454
04/02/2014  10:20:00      -85.968      379.825      -35.511       99.502      131.119       64.629     9900.729    17192.121     4176.921        9.209        1.563      389.432       54.374        0.019      335.086        5.483      857.475
04/02/2014  10:21:00      -57.234      286.711      -21.812       74.452      125.230       62.281     5543.126    15682.547     3878.890        5.552        1.255      292.368       67.771        0.054      335.268        5.786      857.472
04/02/2014  10:22:00      -28.372      190.089       -6.911       72.905      140.783       61.775     5315.210    19819.774     3816.168        3.296        1.448      192.195       69.567        0.131      335.264        5.783      857.455
04/02/2014  10:23:00      -59.767      335.174      -33.326       73.641      152.331       52.888     5422.963    23204.674     2797.125        7.422        1.571      340.461       55.777        0.027      335.187        5.652      857.456
04/02/2014  10:24:00     -110.613      429.704      -27.796       90.748      109.431       70.232     8235.121    11975.183     4932.507       11.139        1.257      443.713       63.810        0.021      335.065        5.450      857.474
04/02/2014  10:25:00     -129.587      447.689      -42.000       68.623       94.436       58.992     4709.065     8918.118     3480.025       11.804        0.855      466.067       52.717        0.013      334.786        4.985      857.476
04/02/2014  10:26:00      -71.323      226.044      -17.185       64.452      139.211       53.845     4154.034    19379.646     2899.308        4.145        1.322      237.029       52.507        0.049      335.123        5.545      857.458
04/02/2014  10:27:00      -73.790      247.157      -18.013       80.073      139.958       64.197     6411.624    19588.374     4121.235        4.848        1.506      257.937       69.966        0.074      335.190        5.659      857.452
04/02/2014  10:28:00     -159.751      156.924      -24.999      113.560      144.903       55.472    12895.801    20996.880     3077.138        4.386        1.848      223.932       55.354        0.061      335.246        5.750      857.449
04/02/2014  10:29:00     -128.888       50.520      -28.628       96.275       86.367       61.043     9268.815     7459.317     3726.266        2.022        1.023      138.436       51.760        0.140      335.428        6.055      857.449
04/02/2014  10:30:00      -90.862      168.585        3.285       81.716      102.078       56.520     6677.516    10419.899     3194.469        2.849        1.015      191.512       59.349        0.096      335.610        6.358      857.470
04/02/2014  10:31:00     -121.829      235.794      -30.525      103.012      130.311       54.176    10611.454    16981.050     2934.989        5.094        1.526      265.408       48.929        0.034      334.972        5.294      857.471
04/02/2014  10:32:00     -130.615      162.029      -34.877       91.087      101.061       47.158     8296.922    10213.380     2223.907        3.263        1.037      208.120       43.326        0.043      335.138        5.571      857.450
04/02/2014  10:33:00      -20.022      168.655      -13.317       53.961       90.360       49.379     2911.826     8164.937     2438.328        2.127        0.676      169.840       38.126        0.050      335.526        6.219      857.455
04/02/2014  10:34:00      -78.921       25.453       -8.263       62.874       82.952       43.149     3953.097     6880.989     1861.832        0.982        0.635       82.924       29.167        0.124      335.645        6.417      857.438
04/02/2014  10:35:00     -252.097       59.262      -23.154      156.115       98.249       61.104    24371.808     9652.931     3733.670        5.267        1.888      258.969       64.765        0.063      335.437        6.067      857.466
04/02/2014  10:36:00     -194.801       31.491       -8.313      103.193      133.624       58.072    10648.712    17855.277     3372.318        3.544        1.594      197.330       49.294        0.062      335.719        6.538      857.474
04/02/2014  10:37:00     -108.375       46.860       -3.031       74.842       94.813       54.388     5601.380     8989.469     2958.097        1.575        0.877      118.072       46.199        0.153      335.803        6.680      857.484
04/02/2014  10:38:00     -121.056      -63.921      -10.745      161.797      104.641       67.479    26178.369    10949.786     4553.373        3.026        2.084      136.896       62.487        0.208      335.698        6.505      857.482
04/02/2014  10:39:00     -283.802     -158.461       -3.672      140.360      100.312       69.698    19700.907    10062.398     4857.816        7.014        1.731      325.043       69.933        0.046      335.029        5.389      857.507
04/02/2014  10:40:00     -169.881      -72.624       -9.024       94.680       65.671       36.549     8964.338     4312.714     1335.851        2.441        0.731      184.753       34.674        0.035      335.068        5.455      857.512
04/02/2014  10:41:00      -27.322      115.656        2.654       50.906       81.260       40.878     2591.412     6603.135     1671.001        1.250        0.543      118.839       36.728        0.096      335.883        6.814      857.545
04/02/2014  10:42:00      -89.278      174.047      -12.433       62.720       90.532       49.510     3933.858     8196.108     2451.255        2.650        0.729      195.609       50.881        0.068      335.670        6.457      857.546
04/02/2014  10:43:00      -49.119      106.172       -4.437       50.845       85.131       40.760     2585.226     7247.255     1661.379        1.260        0.575      116.984       40.040        0.117      335.506        6.184      857.539
04/02/2014  10:44:00      -57.854      128.509      -11.298       74.373      116.295       57.634     5531.352    13524.428     3321.634        2.118        1.119      140.931       40.171        0.081      335.739        6.573      857.524
04/02/2014  10:45:00      -65.131      114.324        5.666       76.855       80.422       64.240     5906.665     6467.662     4126.815        1.692        0.825      131.575       54.218        0.170      335.973        6.963      857.540
04/02/2014  10:46:00     -108.614      132.126      -15.754      108.953       78.453       50.864    11870.713     6154.928     2587.153        2.505        1.031      171.039       43.463        0.065      335.852        6.761      857.576
04/02/2014  10:47:00     -134.125       84.096       -4.390      131.659      106.290       64.365    17333.970    11297.476     4142.866        2.892        1.639      158.309       65.218        0.170      335.720        6.540      857.588
04/02/2014  10:48:00     -137.878      241.605      -20.234       85.909      126.123       54.476     7380.327    15907.062     2967.654        5.202        1.313      278.178       51.777        0.035      335.448        6.084      857.610
04/02/2014  10:49:00     -136.670      278.603      -22.814       73.024      117.894       65.769     5332.434    13899.071     4325.611        6.018        1.178      310.320       67.873        0.048      335.341        5.909      857.600
04/02/2014  10:50:00     -101.273      196.228      -18.288       98.957      102.823       59.185     9792.527    10572.560     3502.885        3.648        1.193      220.821       55.381        0.063      335.520        6.207      857.586
04/02/2014  10:51:00     -227.143      155.570      -43.139       97.672      102.858       56.011     9539.828    10579.828     3137.275        5.045        1.163      275.311       50.518        0.034      335.197        5.667      857.588
04/02/2014  10:52:00      -63.838      192.639      -19.785      100.988       97.086       55.471    10198.645     9425.718     3077.086        3.213        1.135      202.941       49.291        0.059      335.449        6.089      857.565
04/02/2014  10:53:00      -61.181       88.579        1.827       85.943       55.646       40.992     7386.239     3096.500     1680.350        1.188        0.608      107.654       32.599        0.092      335.926        6.884      857.529
04/02/2014  10:54:00      -63.661       -5.313       -0.246       75.535       78.512       32.985     5705.517     6164.154     1088.015        0.852        0.648       63.882       24.421        0.146      335.994        6.997      857.540
04/02/2014  10:55:00     -121.195      -49.750        5.543       69.549       73.568       42.025     4837.126     5412.302     1766.073        1.460        0.601      131.009       29.826        0.052      336.000        7.008      857.552
04/02/2014  10:56:00      -80.850      171.915      -12.903       56.489      122.501       49.883     3191.050    15006.517     2488.363        2.847        1.034      189.978       44.721        0.055      335.854        6.764      857.588
04/02/2014  10:57:00     -107.639      268.220      -24.475       87.787       86.185       59.549     7706.518     7427.885     3546.135        5.140        0.934      289.012       54.139        0.035      335.457        6.100      857.596
04/02/2014  10:58:00      -64.556      312.432      -29.043       86.312      106.417       59.084     7449.706    11324.573     3490.960        6.244        1.113      319.032       58.310        0.033      335.374        5.963      857.594
04/02/2014  10:59:00        8.110      311.849      -24.552       68.823      133.139       62.637     4736.541    17725.905     3923.420        6.215        1.319      311.954       71.263        0.052      335.493        6.161      857.568
04/02/2014  11:00:00      -77.788      374.340      -43.326      166.923      196.149       81.769    27863.454    38474.333     6686.200       11.053        3.651      382.337       84.017        0.048      335.805        6.680      857.568
04/02/2014  11:01:00     -255.946      191.979      -50.633      139.061      121.941       77.726    19337.949    14869.535     6041.266        7.258        2.012      319.944       81.990        0.066      335.379        5.970      857.662
04/02/2014  11:02:00     -158.567      195.405      -27.556      107.761      121.005       60.543    11612.460    14642.300     3665.510        4.700        1.496      251.648       61.511        0.060      335.447        6.085      857.660
04/02/2014  11:03:00      -72.491      117.069      -13.094       87.555      100.473       48.604     7665.927    10094.910     2362.396        1.962        1.006      137.696       46.839        0.116      335.784        6.647      857.631
04/02/2014  11:04:00     -185.873      -38.511      -17.607      101.712       62.592       39.060    10345.420     3917.741     1525.696        2.606        0.789      189.821       27.595        0.021      335.652        6.427      857.634
04/02/2014  11:05:00      -96.686       30.975        7.031       86.442      120.835       46.678     7472.223    14601.169     2178.868        1.730        1.213      101.527       33.455        0.109      335.972        6.963      857.637
04/02/2014  11:06:00      -73.577      237.288      -26.221       79.360       99.392       45.096     6298.064     9878.865     2033.670        4.030        0.911      248.433       32.936        0.018      335.886        6.815      857.653
04/02/2014  11:07:00     -123.930       93.878       -8.466       64.310      178.754       46.546     4135.727    31952.928     2166.528        3.124        1.913      155.472       37.677        0.059      335.809        6.688      857.670
04/02/2014  11:08:00     -194.779       90.140      -21.028       96.981       92.240       41.156     9405.227     8508.182     1693.777        3.305        0.980      214.625       40.768        0.036      335.539        6.237      857.658
04/02/2014  11:09:00      -74.714       15.256       16.196       86.585       70.558       47.590     7497.030     4978.381     2264.782        1.041        0.737       76.255       44.497        0.341      336.032        7.062      857.656
04/02/2014  11:10:00     -151.026      -38.159      -11.815       68.182       58.354       39.075     4648.837     3405.243     1526.882        1.699        0.479      155.773       28.070        0.032      335.777        6.637      857.676
04/02/2014  11:11:00     -117.752       35.590      -16.933      103.118      113.110       57.857    10633.331    12793.775     3347.430        2.109        1.339      123.013       68.500        0.310      336.073        7.130      857.647
04/02/2014  11:12:00      -30.783      146.000      -14.068       57.901       96.894       59.113     3352.542     9388.440     3494.389        1.935        0.812      149.210       62.006        0.173      336.259        7.439      857.646
04/02/2014  11:13:00      -60.799      243.101       -8.556       69.483      132.954       54.977     4827.846    17676.716     3022.448        4.419        1.276      250.588       67.935        0.073      336.129        7.222      857.647
04/02/2014  11:14:00     -114.767      159.767      -23.516       78.114      129.313       52.162     6101.845    16721.932     2720.842        3.239        1.277      196.715       45.303        0.053      335.877        6.801      857.649
04/02/2014  11:15:00        8.245       95.307       -2.060       85.245       77.246       49.189     7266.687     5966.872     2419.547        1.240        0.783       95.663       38.131        0.159      336.141        7.244      857.642
04/02/2014  11:16:00     -113.833      178.633       -7.138       74.759       87.019       47.507     5588.840     7572.335     2256.959        3.017        0.771      211.820       35.586        0.028      336.221        7.377      857.666
04/02/2014  11:17:00      -40.033      112.947       -7.947       98.333       55.440       46.133     9669.389     3073.577     2128.211        1.464        0.744      119.832       31.714        0.070      336.419        7.708      857.664
04/02/2014  11:18:00       -1.181      271.458      -24.838       56.289      132.899       53.044     3168.419    17662.093     2813.624        4.897        1.182      271.461       69.213        0.065      335.661        6.442      857.644
04/02/2014  11:19:00      -17.345      225.510      -21.307       70.548       83.869       43.458     4976.974     7034.020     1888.600        3.275        0.695      226.176       38.978        0.030      335.853        6.762      857.653
04/02/2014  11:20:00      -67.733      215.585      -12.459       65.574      104.816       51.123     4299.998    10986.294     2613.593        3.456        0.895      225.975       58.208        0.066      335.883        6.811      857.659
04/02/2014  11:21:00      -94.606      162.826      -27.431       62.726       89.438       49.492     3934.581     7999.245     2449.466        2.530        0.719      188.315       36.219        0.037      335.948        6.921      857.699
04/02/2014  11:22:00     -158.810      214.543      -43.070       56.760      101.333       55.489     3221.749    10268.422     3079.010        4.483        0.828      266.925       40.938        0.024      335.653        6.427      857.741
04/02/2014  11:23:00     -164.030      267.475      -36.332      116.180      116.578       71.384    13497.715    13590.537     5095.663        6.597        1.609      313.765       67.922        0.047      335.822        6.709      857.743
04/02/2014  11:24:00      -91.349       40.286      -11.728       58.301       58.199       38.956     3399.000     3387.148     1517.582        0.920        0.415       99.838       34.369        0.119      335.904        6.847      857.725
04/02/2014  11:25:00     -198.304       53.719      -34.907       94.292      109.906       56.575     8891.001    12079.264     3200.719        3.380        1.209      205.452       51.163        0.062      335.597        6.335      857.731
04/02/2014  11:26:00     -142.456      -63.740       -1.415      142.782      128.731       58.102    20386.748    16571.742     3375.877        3.234        2.017      156.066       50.968        0.107      335.900        6.840      857.695
04/02/2014  11:27:00     -269.587     -117.919      -17.856      211.219       98.910       61.208    44613.321     9783.255     3746.414        7.251        2.907      294.248       64.208        0.048      335.826        6.717      857.670
04/02/2014  11:28:00     -463.608      -40.429      -37.491      159.258      115.404       72.481    25363.051    13318.038     5253.437       13.094        2.197      465.367       76.137        0.027      335.568        6.286      857.660
04/02/2014  11:29:00     -275.138      -51.449      -25.985      193.007      145.568       84.495    37251.540    21190.107     7139.488        7.229        3.279      279.907       73.581        0.069      335.671        6.458      857.683
04/02/2014  11:30:00     -345.165      -45.843      -17.007      132.406      146.610       79.489    17531.228    21494.541     6318.538        8.343        2.267      348.196       72.310        0.043      335.575        6.296      857.660
04/02/2014  11:31:00     -280.985       -2.658      -31.396      148.079      105.398       54.436    21927.492    11108.702     2963.296        5.797        1.800      280.998       35.504        0.016      335.494        6.162      857.685
04/02/2014  11:32:00     -235.922       31.724      -24.262       96.368       90.910       52.602     9286.779     8264.633     2767.014        3.878        1.016      238.046       42.226        0.031      335.455        6.097      857.725
04/02/2014  11:33:00     -219.275       25.298      -20.978       83.406      104.026       47.360     6956.560    10821.371     2242.954        3.459        1.001      220.730       42.112        0.036      335.340        5.906      857.746
04/02/2014  11:34:00     -234.075       67.801      -45.289      115.313       93.295       77.969    13297.180     8703.876     6079.169        4.475        1.404      243.697       66.912        0.075      335.501        6.175      857.755
04/02/2014  11:35:00     -120.004      -12.721      -10.428      128.481      108.583       74.450    16507.405    11790.342     5542.837        2.425        1.692      120.677       79.856        0.438      335.788        6.655      857.744
04/02/2014  11:36:00     -228.580      164.175      -45.207      118.190      109.499       62.714    13968.830    11989.941     3932.984        5.556        1.495      281.429       65.083        0.053      335.496        6.163      857.748
04/02/2014  11:37:00      -35.567      156.133       -8.325       94.064      155.769       50.600     8848.074    24264.131     2560.389        3.069        1.784      160.133       45.710        0.081      335.836        6.734      857.709
04/02/2014  11:38:00     -204.249      -32.159        0.102      109.401       88.619       54.770    11968.504     7853.386     2999.736        3.278        1.141      206.765       54.800        0.070      335.831        6.725      857.723
04/02/2014  11:39:00     -405.883      -25.815      -44.553      156.833      156.228       75.934    24596.651    24407.296     5765.931       11.107        2.738      406.703       74.427        0.033      335.559        6.270      857.715
04/02/2014  11:40:00     -354.427      -57.669      -19.572      216.333      165.783       85.326    46800.086    27484.155     7280.557       10.543        4.078      359.088      114.295        0.101      335.783        6.644      857.685
04/02/2014  11:41:00     -447.246      -28.567      -50.449      162.609      157.980       74.202    26441.581    24957.786     5506.004       13.014        2.845      448.157       64.044        0.020      335.639        6.402      857.662
04/02/2014  11:42:00     -324.746      116.206      -27.139      192.994      147.495       89.317    37246.622    21754.900     7977.567        9.333        3.349      344.911       93.497        0.073      335.640        6.405      857.737
04/02/2014  11:43:00     -176.492      230.676      -26.536      101.302      133.573       74.240    10262.121    17841.630     5511.651        5.933        1.681      290.449       70.427        0.059      335.920        6.872      857.745
04/02/2014  11:44:00     -113.253      212.738      -15.701       68.130       98.343       60.303     4641.743     9671.370     3636.468        3.814        0.897      241.006       52.755        0.048      336.219        7.372      857.750
04/02/2014  11:45:00     -218.322      247.220      -36.000      100.960      125.940       75.777    10192.872    15860.868     5742.215        7.093        1.590      329.822       56.851        0.030      335.920        6.873      857.748
04/02/2014  11:46:00     -170.371      129.304      -37.168      127.805      114.948       52.181    16334.112    13213.019     2722.841        3.969        1.613      213.883       73.204        0.117      335.799        6.671      857.739
04/02/2014  11:47:00      -58.877      329.618      -29.860       75.391      172.492       70.638     5683.816    29753.583     4989.731        7.671        2.021      334.835       62.443        0.035      335.969        6.955      857.699
04/02/2014  11:48:00      -81.393      312.716      -33.164      105.749      150.533       60.143    11182.919    22660.195     3617.159        7.148        1.873      323.135       55.405        0.029      336.076        7.132      857.722
04/02/2014  11:49:00     -143.462      335.609      -32.456       95.069      112.101       62.947     9038.127    12566.713     3962.300        7.991        1.278      364.986       50.958        0.019      335.765        6.613      857.734
04/02/2014  11:50:00     -239.864      157.971      -32.364      157.536      179.886       83.073    24817.484    32358.939     6901.171        7.379        3.204      287.210      104.616        0.133      335.835        6.730      857.687
04/02/2014  11:51:00     -256.922      191.359      -37.788      132.534      105.955       79.229    17565.214    11226.529     6277.182        6.956        1.753      320.354       76.301        0.057      335.878        6.803      857.686
04/02/2014  11:52:00      -17.793      358.175      -23.002      109.059      206.267       90.845    11893.892    42546.186     8252.800        9.590        3.135      358.617       99.421        0.077      336.191        7.324      857.645
04/02/2014  11:53:00     -133.827      372.187      -56.752      215.287      188.684       87.917    46348.520    35601.492     7729.458       12.465        4.484      395.516      101.202        0.065      336.203        7.344      857.611
04/02/2014  11:54:00     -330.657       83.720      -24.755      124.634      133.119       72.896    15533.755    17720.733     5313.869        7.775        1.928      341.091       65.783        0.037      335.996        6.999      857.692
04/02/2014  11:55:00     -368.119       39.549      -55.237      184.146      201.157      112.431    33909.788    40464.155    12640.654       11.355        4.351      370.238       87.822        0.056      335.878        6.802      857.678
04/02/2014  11:56:00     -335.379      127.337      -45.700      238.962      173.605       98.380    57102.925    30138.681     9678.690       11.383        4.846      358.739      120.430        0.113      335.919        6.871      857.688
04/02/2014  11:57:00     -350.375      147.175      -29.301      185.948      119.799       75.073    34576.765    14351.773     5635.943        9.991        2.728      380.030       76.286        0.040      336.173        7.294      857.678
04/02/2014  11:58:00     -252.866       97.641      -45.109      146.813      162.086       88.125    21553.983    26271.784     7766.005        6.554        2.780      271.063       77.508        0.082      335.807        6.684      857.739
04/02/2014  11:59:00     -222.713        9.513      -32.114      114.529       88.078       55.658    13116.835     7757.818     3097.777        3.734        1.199      222.916       53.594        0.058      335.794        6.663      857.712
04/02/2014  12:00:00      -50.864       82.409       -5.368       63.317       76.815       36.783     4008.991     5900.595     1353.022        1.033        0.563       96.842       37.529        0.150      335.995        7.001      857.657
04/02/2014  12:01:00      -69.859       77.910       -1.660       57.860       82.268       38.923     3347.791     6768.105     1514.998        1.129        0.582      104.643       38.707        0.137      336.304        7.515      857.654
04/02/2014  12:02:00     -224.190      207.294      -45.431      112.178      127.924       66.828    12583.904    16364.439     4466.009        6.435        1.671      305.340       45.129        0.022      335.984        6.979      857.690
04/02/2014  12:03:00      -83.302       97.888       -1.954       86.169      103.593       52.406     7425.096    10731.492     2746.380        1.871        1.045      128.536       46.956        0.133      336.418        7.705      857.655
04/02/2014  12:04:00      -67.111      169.038       -6.449       90.290      177.069       63.854     8152.369    31353.308     4077.375        3.834        2.179      181.873       76.747        0.178      336.308        7.521      857.666
04/02/2014  12:05:00      -56.480      496.308      -48.697       86.157      139.995       60.432     7423.063    19598.629     3652.083       14.127        1.534      499.511       69.852        0.020      335.712        6.526      857.698
04/02/2014  12:06:00        0.823      404.381      -39.887       80.575      162.638       73.469     6492.370    26451.257     5397.747       10.172        1.917      404.382       87.022        0.046      335.668        6.453      857.686
04/02/2014  12:07:00      -64.851      421.268      -40.555       99.386      106.994       64.824     9877.504    11447.822     4202.143       10.442        1.276      426.231       61.285        0.021      335.786        6.650      857.676
04/02/2014  12:08:00     -115.975      307.783      -31.518      117.272      142.991       62.434    13752.614    20446.496     3898.052        7.363        1.905      328.909       62.183        0.036      336.068        7.119      857.691
04/02/2014  12:09:00      -79.186      340.471      -36.378      107.803      198.256       71.161    11621.559    39305.380     5063.930        8.974        2.800      349.559       89.976        0.066      335.698        6.503      857.708
04/02/2014  12:10:00      -44.519      471.981      -57.526       98.526       86.165       48.059     9707.341     7424.414     2309.688       12.375        0.972      474.076       39.501        0.007      335.618        6.368      857.683
04/02/2014  12:11:00      -35.478      358.166      -40.500       54.735       82.392       42.184     2995.910     6788.482     1779.450        7.137        0.578      359.918       44.548        0.015      335.738        6.569      857.692
04/02/2014  12:12:00      -60.637      160.392       -3.571       55.242       79.634       57.454     3051.714     6341.546     3300.987        2.105        0.635      171.471       52.092        0.092      336.327        7.553      857.676
04/02/2014  12:13:00       -4.764      150.370       -8.489      118.314       75.417       66.961    13998.291     5687.697     4483.765        2.343        1.208      150.446       61.164        0.165      336.002        7.010      857.642
04/02/2014  12:14:00     -168.883       51.612       -1.434      107.785      130.829       51.370    11617.562    17116.163     2638.890        3.127        1.569      176.594       34.908        0.039      336.501        7.842      857.617
04/02/2014  12:15:00     -223.814      293.431      -59.779      114.240      154.864       84.647    13050.783    23982.734     7165.104        9.197        2.210      369.045       71.422        0.037      336.083        7.144      857.684
04/02/2014  12:16:00     -146.504      281.880      -20.345       85.623      135.114       69.634     7331.362    18255.742     4848.950        6.588        1.522      317.679       64.546        0.041      336.207        7.350      857.674
04/02/2014  12:17:00     -214.889      341.560      -34.634      119.981      170.455       88.500    14395.485    29054.979     7832.249       10.765        2.564      403.535       91.228        0.051      336.232        7.392      857.684
04/02/2014  12:18:00     -186.161      282.923      -30.720      118.247      129.579       67.646    13982.356    16790.741     4575.942        7.549        1.767      338.676       70.960        0.044      336.281        7.474      857.718
04/02/2014  12:19:00     -139.604      227.913      -24.728       89.139      117.299       73.648     7945.718    13759.101     5423.982        4.958        1.356      267.271       61.183        0.052      336.321        7.542      857.730
04/02/2014  12:20:00     -108.231      190.130      -16.429       88.763      115.470       62.781     7878.802    13333.411     3941.469        3.664        1.258      218.777       55.884        0.065      336.259        7.438      857.700
04/02/2014  12:21:00      -56.997       60.948        0.429       67.013       65.841       48.835     4490.694     4335.084     2384.886        0.908        0.561       83.446       42.027        0.254      336.597        8.006      857.648
04/02/2014  12:22:00     -160.961       42.482      -27.140       76.537       94.445       44.425     5857.941     8919.889     1973.605        2.260        0.838      166.473       53.366        0.103      336.187        7.320      857.633
04/02/2014  12:23:00      -30.420      137.013       26.347      109.433      142.083       65.986    11975.637    20187.706     4354.171        2.845        1.826      140.350       73.125        0.271      336.478        7.806      857.653
04/02/2014  12:24:00     -137.744      252.845      -17.102      117.118      135.819       79.325    13716.608    18446.846     6292.406        6.082        1.923      287.930       59.445        0.043      336.311        7.524      857.653
04/02/2014  12:25:00      -90.590      118.516      -14.129       64.480       69.927       46.648     4157.625     4889.782     2176.070        1.684        0.561      149.173       33.934        0.052      336.602        8.012      857.630
04/02/2014  12:26:00     -130.164      213.333      -16.080      119.871      131.384       64.957    14368.977    17261.806     4219.355        4.927        1.793      249.907       75.733        0.092      336.416        7.700      857.635
04/02/2014  12:27:00     -138.753      171.965      -23.150      105.138       82.890       50.002    11054.088     6870.696     2500.187        3.489        1.021      220.962       47.106        0.045      336.619        8.040      857.629
04/02/2014  12:28:00      -53.948      275.066        2.984       79.869      150.234       79.153     6378.988    22570.240     6265.152        5.689        1.761      280.306       79.636        0.081      336.678        8.137      857.638
04/02/2014  12:29:00     -130.560      312.036      -31.143      122.510      132.757       76.417    15008.582    17624.400     5839.523        7.692        1.924      338.249       63.930        0.036      336.336        7.567      857.648
04/02/2014  12:30:00     -183.752      379.364      -46.908      128.001      126.615       75.275    16384.287    16031.376     5666.274       10.897        1.904      421.523       78.523        0.035      336.219        7.371      857.677
04/02/2014  12:31:00     -211.322      323.947      -72.839      134.665      105.090       73.658    18134.761    11043.846     5425.461        9.475        1.730      386.780       75.335        0.038      336.060        7.105      857.642
04/02/2014  12:32:00      -85.916      293.024      -29.369       72.654       89.616       48.909     5278.656     8030.960     2392.078        5.490        0.785      305.360       25.040        0.007      336.400        7.674      857.635
04/02/2014  12:33:00     -216.412      157.548      -34.944      137.072      127.358       69.468    18788.746    16219.996     4825.856        5.635        1.992      267.686       66.732        0.062      336.639        8.073      857.692
04/02/2014  12:34:00     -150.037       53.560      -28.056       99.219       77.857       53.658     9844.363     6061.652     2879.140        2.247        0.939      159.310       57.225        0.129      336.777        8.305      857.676
04/02/2014  12:35:00     -339.466      -67.090      -35.577      197.631       73.177       50.492    39057.851     5354.807     2549.438        8.397        2.348      346.032       44.472        0.017      335.904        6.846      857.640
04/02/2014  12:36:00      -81.667       62.030       -4.409      162.200      121.943       71.634    26308.949    14870.098     5131.451        2.841        2.316      102.554       77.693        0.574      336.656        8.103      857.623
04/02/2014  12:37:00      -19.653      395.719      -20.982       97.616      246.709       92.272     9528.896    60865.199     8514.134       11.815        3.945      396.207      104.732        0.070      336.555        7.933      857.657
04/02/2014  12:38:00     -174.934      381.901      -47.175      139.494      139.400       78.196    19458.616    19432.495     6114.671       11.183        2.250      420.060       65.721        0.024      336.382        7.644      857.687
04/02/2014  12:39:00     -183.093      371.213      -38.739      101.997      107.205       72.108    10403.307    11492.826     5199.562        9.995        1.355      413.911       68.652        0.028      336.092        7.158      857.717
04/02/2014  12:40:00     -120.549      415.055      -35.128       69.979       97.200       58.532     4897.130     9447.804     3425.984       10.290        0.889      432.206       55.455        0.016      336.072        7.125      857.695
04/02/2014  12:41:00     -101.972      301.559      -46.788       83.073      114.781       50.974     6901.080    13174.622     2598.363        6.310        1.134      318.333       50.312        0.025      336.230        7.389      857.677
04/02/2014  12:42:00      -42.931      241.031       -7.852       82.600      151.588       70.328     6822.789    22978.817     4945.997        4.737        1.737      244.825       79.795        0.106      336.766        8.286      857.661
04/02/2014  12:43:00      -46.048      195.732      -23.328      101.653      104.791       65.022    10333.306    10981.181     4227.821        3.325        1.277      201.076       61.695        0.094      336.457        7.770      857.675
04/02/2014  12:44:00      -75.664      236.863      -28.225      126.704      102.405       67.352    16053.990    10486.822     4536.281        4.685        1.554      248.655       65.898        0.070      336.621        8.042      857.661
04/02/2014  12:45:00       97.262      148.352       14.693      114.378      122.095       80.540    13082.253    14907.296     6486.612        3.307        1.724      177.393       73.767        0.173      336.761        8.277      857.654
04/02/2014  12:46:00       32.983      372.779      -34.023      143.242      169.096       69.793    20518.160    28593.580     4871.016        9.759        2.699      374.235       75.092        0.040      336.580        7.974      857.650
04/02/2014  12:47:00       -8.895      247.025      -11.861      101.363      116.140       73.401    10274.441    13488.584     5387.646        4.519        1.458      247.186       69.044        0.078      336.479        7.805      857.694
04/02/2014  12:48:00       35.547      191.128      -19.335       86.418      103.692       52.900     7468.054    10751.992     2798.433        2.959        1.051      194.405       47.958        0.061      336.257        7.435      857.681
04/02/2014  12:49:00       22.379      219.849       -3.281       87.428      189.303       71.554     7643.684    35835.501     5120.036        4.871        2.430      220.985       91.457        0.171      336.410        7.692      857.673
04/02/2014  12:50:00     -155.661      470.170      -58.691      117.843      137.236       72.731    13887.070    18833.827     5289.853       14.337        1.901      495.268       68.578        0.019      336.204        7.345      857.726
04/02/2014  12:51:00     -105.318      376.020      -33.553      115.650      162.404       94.147    13374.936    26375.061     8863.732       10.110        2.431      390.491       87.631        0.050      336.315        7.529      857.750
04/02/2014  12:52:00     -288.840      377.770      -69.965      135.743      208.056       84.409    18426.047    43287.347     7124.838       14.992        3.442      475.541      103.148        0.047      335.863        6.777      857.777
04/02/2014  12:53:00     -113.969      235.218      -30.559       93.056      149.516       69.028     8659.414    22355.050     4764.933        5.251        1.789      261.374       65.490        0.063      336.099        7.173      857.766
04/02/2014  12:54:00     -215.436       82.550      -13.426      121.616      133.873       65.318    14790.393    17922.088     4266.384        4.519        1.849      230.711       73.587        0.102      336.258        7.438      857.743
04/02/2014  12:55:00     -157.254      188.616      -32.206      126.829      163.190       71.870    16085.574    26630.839     5165.270        5.460        2.394      245.570       69.629        0.080      336.316        7.533      857.739
04/02/2014  12:56:00      -65.979      395.822      -35.276       86.082      224.061       75.177     7410.124    50203.454     5651.651       11.276        3.163      401.284      106.958        0.071      336.582        7.977      857.755
04/02/2014  12:57:00      -98.712      506.690      -47.917      135.360      178.120       84.342    18322.241    31726.624     7113.583       16.296        2.858      516.215       62.093        0.014      336.293        7.494      857.786
04/02/2014  12:58:00     -179.692      555.373      -74.073      116.784      216.279       75.011    13638.403    46776.724     5626.691       20.612        3.302      583.719       89.214        0.023      336.151        7.256      857.816
04/02/2014  12:59:00     -210.749      432.811      -62.050      113.764      138.846       77.929    12942.206    19278.339     6072.974       13.693        1.915      481.394       67.457        0.020      336.073        7.127      857.850
04/02/2014  13:00:00     -158.391      294.677      -28.717       94.347      122.619       63.147     8901.408    15035.363     3987.541        7.033        1.396      334.548       65.199        0.038      336.394        7.662      857.844
04/02/2014  13:01:00      -86.813      345.226      -26.003       80.488      139.046       60.006     6478.296    19333.742     3600.730        7.840        1.471      355.974       58.355        0.027      336.188        7.318      857.830
04/02/2014  13:02:00     -145.996      167.232      -24.718       85.970      133.391       54.023     7390.796    17793.037     2918.508        3.899        1.405      221.994       53.715        0.059      336.254        7.429      857.801
04/02/2014  13:03:00     -151.496      126.335      -37.194       99.439       78.547       58.779     9888.141     6169.627     3454.942        2.990        0.976      197.260       59.569        0.091      336.407        7.684      857.768
04/02/2014  13:04:00       56.306      158.000      -17.664       99.770       76.485       50.732     9954.147     5849.936     2573.772        2.341        0.919      167.733       39.459        0.055      336.804        8.349      857.763
04/02/2014  13:05:00       81.848      210.322      -20.099      121.675      101.869       67.829    14804.745    10377.312     4600.737        4.055        1.489      225.687       64.111        0.081      336.408        7.688      857.745
04/02/2014  13:06:00      -41.461      369.956      -47.251       96.662      143.484       53.566     9343.622    20587.611     2869.292        8.680        1.640      372.272       62.376        0.028      336.393        7.660      857.747
04/02/2014  13:07:00     -121.939      308.098      -28.427      119.519      120.161       70.311    14284.699    14438.612     4943.706        7.213        1.683      331.351       70.413        0.045      336.701        8.178      857.761
04/02/2014  13:08:00     -168.313      267.957      -18.899      156.334      178.312       88.485    24440.270    31795.189     7829.535        8.226        3.203      316.434       94.607        0.089      336.650        8.092      857.781
04/02/2014  13:09:00     -164.751      256.015      -36.232      164.098      124.488       71.490    26928.079    15497.291     5110.852        7.076        2.377      304.445       86.318        0.080      336.616        8.034      857.820
04/02/2014  13:10:00     -204.997      129.330      -32.843      140.828      163.092       60.426    19832.489    26599.131     3651.316        5.495        2.504      242.384       64.649        0.071      336.397        7.669      857.868
04/02/2014  13:11:00     -150.157       43.284      -13.024       81.266       88.369       44.332     6604.161     7809.022     1965.358        2.048        0.819      156.271       43.796        0.079      336.322        7.545      857.847
04/02/2014  13:12:00       -3.112      140.826      -11.556       66.561       92.251       53.227     4430.415     8510.184     2833.151        1.787        0.789      140.860       52.875        0.141      336.651        8.094      857.808
04/02/2014  13:13:00      -16.553      -13.629        7.843       97.537       71.191       58.732     9513.510     5068.158     3449.434        0.927        0.902       21.442       45.289        4.461      337.568        9.629      857.783
04/02/2014  13:14:00      -43.300       80.299       30.835      108.431       97.175       74.517    11757.285     9443.021     5552.857        1.801        1.338       91.229       87.485        0.920      337.494        9.506      857.810
04/02/2014  13:15:00      -44.763      225.345       -7.839      130.136      268.889       83.599    16935.426    72301.500     6988.861        7.452        4.811      229.747      101.958        0.197      337.293        9.167      857.837
04/02/2014  13:16:00      -48.157      595.986      -71.007       88.717      121.626       57.260     7870.786    14792.948     3278.726       19.425        1.297      597.929       46.273        0.006      336.347        7.585      857.878
04/02/2014  13:17:00     -156.086      514.980      -55.835      136.453      191.644       80.710    18619.383    36727.547     6514.039       17.726        3.093      538.115       95.453        0.031      336.410        7.688      857.899
04/02/2014  13:18:00     -103.143      240.084       -8.223      112.200      234.873       70.847    12588.920    55165.169     5019.269        7.055        3.639      261.303      100.473        0.148      337.096        8.839      857.915
04/02/2014  13:19:00     -122.839      269.870      -16.892       80.334      157.570       76.395     6453.546    24828.436     5836.178        6.265        1.856      296.512       64.186        0.047      337.084        8.817      857.900
04/02/2014  13:20:00     -197.404      516.694      -48.407      138.209      181.927       87.628    19101.791    33097.509     7678.599       18.407        2.994      553.119       85.523        0.024      336.362        7.610      857.934
04/02/2014  13:21:00     -160.905      405.355      -43.135      106.299      191.521       73.270    11299.406    36680.422     5368.557       12.270        2.667      436.123       74.375        0.029      336.305        7.515      857.924
04/02/2014  13:22:00      -79.780      221.054      -15.902      125.847       98.245       62.979    15837.503     9652.022     3966.388        4.246        1.473      235.010       57.436        0.060      336.961        8.609      857.910
04/02/2014  13:23:00     -121.478      525.072      -47.769       93.714      133.348       66.918     8782.406    17781.635     4478.072       16.188        1.552      538.941       55.855        0.011      336.462        7.776      857.936
04/02/2014  13:24:00     -133.138      301.543      -37.606      101.323      132.288       58.663    10266.267    17500.136     3441.356        7.063        1.560      329.627       66.688        0.041      336.495        7.832      857.948
04/02/2014  13:25:00     -116.062      358.090      -41.566      102.996      168.164       59.870    10608.231    28279.036     3584.375        9.294        2.124      376.429       78.218        0.043      336.186        7.316      857.935
04/02/2014  13:26:00      -54.521      184.494        3.380       57.584       85.913       51.080     3315.884     7381.092     2609.155        2.516        0.665      192.381       55.695        0.084      336.989        8.660      857.912
04/02/2014  13:27:00     -114.737      280.779      -28.694      116.133      123.307       63.716    13486.926    15204.509     4059.761        6.278        1.638      303.318       77.842        0.066      336.950        8.593      857.914
04/02/2014  13:28:00      -21.902      224.019      -29.805       81.945       73.065       44.473     6714.972     5338.546     1977.822        3.279        0.702      225.087       38.346        0.029      336.796        8.335      857.905
04/02/2014  13:29:00     -269.158       83.367      -52.211      138.598      151.710       66.232    19209.442    23016.022     4386.741        6.436        2.331      281.773       46.992        0.028      336.756        8.268      857.909
04/02/2014  13:30:00     -266.916      287.897      -58.813      114.555      144.444       59.193    13122.923    20864.002     3503.832        9.753        1.875      392.593       52.270        0.018      336.339        7.570      857.961
04/02/2014  13:31:00     -183.325      208.393      -43.326      108.855       92.994       53.768    11849.309     8647.862     2890.989        5.115        1.169      277.553       63.974        0.053      336.523        7.879      857.950
04/02/2014  13:32:00      -75.341      162.417        8.467       98.170      107.467       62.872     9637.336    11549.130     3952.897        2.863        1.257      179.040       58.318        0.106      337.196        9.006      857.967
04/02/2014  13:33:00       28.353      344.573      -29.215      130.822      144.170       90.768    17114.266    20785.098     8238.752        8.325        2.307      345.738       82.205        0.057      336.942        8.579      857.965
04/02/2014  13:34:00      -15.881      333.472      -20.785      114.029      139.837       75.462    13002.587    19554.289     5694.485        7.506        1.913      333.850       77.758        0.054      336.595        8.000      857.986
04/02/2014  13:35:00       17.274      426.274      -48.097      107.022      164.816       81.948    11453.670    27164.211     6715.549       11.482        2.267      426.624       94.377        0.049      336.423        7.713      857.953
04/02/2014  13:36:00       -9.028      277.907      -21.692       99.331      144.352       57.404     9866.668    20837.598     3295.223        5.589        1.700      278.054       71.492        0.066      336.178        7.303      857.932
04/02/2014  13:37:00     -202.962      176.927      -43.230       93.661       80.627       49.860     8772.445     6500.783     2486.005        4.606        0.888      269.252       35.006        0.017      336.442        7.743      857.939
04/02/2014  13:38:00      -90.507      400.858      -41.651       62.729      129.541       40.457     3934.868    16780.948     1636.756        9.648        1.118      410.949       39.828        0.009      336.447        7.751      857.970
04/02/2014  13:39:00      -86.267      404.337      -54.363       67.451      175.645       49.985     4549.656    30851.182     2498.472       10.589        1.895      413.438       47.912        0.013      336.571        7.957      857.973
04/02/2014  13:40:00     -107.501      260.440      -23.247       81.182      113.328       63.461     6590.536    12843.139     4027.289        5.169        1.173      281.754       59.849        0.045      336.413        7.695      858.009
04/02/2014  13:41:00     -111.332      220.359      -24.998       80.022      101.344       54.240     6403.582    10270.613     2941.979        4.059        0.981      246.886       48.275        0.038      336.796        8.333      857.988
04/02/2014  13:42:00      -75.957       79.526       -2.783       91.179      124.996       60.856     8313.649    15624.012     3703.398        1.987        1.382      109.972       53.214        0.234      336.918        8.541      857.987
04/02/2014  13:43:00     -142.856      184.875        5.010      164.831      128.019       84.758    27169.232    16388.825     7183.887        5.267        2.537      233.638       62.368        0.071      336.784        8.315      857.976
04/02/2014  13:44:00      -57.981      296.892       -6.628       86.263       97.528       64.028     7441.277     9511.654     4099.557        5.630        1.053      302.501       56.614        0.035      336.671        8.127      857.947
04/02/2014  13:45:00     -218.086      190.235      -37.590      114.720       99.935       68.171    13160.564     9986.915     4647.312        5.647        1.390      289.398       71.210        0.061      336.852        8.430      857.944
04/02/2014  13:46:00      -62.288      222.007      -26.215      115.102      138.036       52.620    13248.551    19053.810     2768.916        4.446        1.754      230.579       61.787        0.072      336.850        8.426      857.948
04/02/2014  13:47:00      -90.547      466.379      -49.329       74.675      149.332       54.947     5576.305    22299.933     3019.178       12.951        1.545      475.088       58.009        0.015      336.613        8.030      857.937
04/02/2014  13:48:00     -137.342      396.760      -34.555      171.368      253.228       93.026    29366.949    64124.526     8653.824       13.979        5.107      419.859      101.261        0.058      336.823        8.380      857.947
04/02/2014  13:49:00     -183.613      530.353      -55.246      125.955      137.061       78.703    15864.676    18785.767     6194.229       17.943        2.042      561.238       71.740        0.016      336.520        7.873      858.014
04/02/2014  13:50:00      -16.416      380.970      -36.925      105.705      130.530       85.869    11173.447    17038.011     7373.491        9.117        1.779      381.324       79.195        0.043      336.540        7.909      858.046
04/02/2014  13:51:00      -93.562      314.491      -40.731      124.962      193.091       76.122    15615.524    37283.991     5794.550        8.399        2.935      328.114       91.423        0.078      336.857        8.436      858.026
04/02/2014  13:52:00     -127.662      267.058      -37.560       73.425      186.128       46.041     5391.182    34643.695     2119.790        6.558        2.108      296.003       58.232        0.039      336.494        7.830      858.022
04/02/2014  13:53:00      -94.096      165.426      -12.645      108.047      137.929       56.412    11674.097    19024.413     3182.275        3.512        1.694      190.315       73.039        0.147      337.069        8.793      858.017
04/02/2014  13:54:00     -183.409      320.669      -48.277       89.568      151.559       65.555     8022.505    22970.179     4297.473        8.704        1.765      369.415       61.293        0.028      336.620        8.040      858.061
04/02/2014  13:55:00      -63.350      231.588      -24.228      133.236      102.786       71.796    17751.757    10565.056     5154.680        4.585        1.674      240.096       59.079        0.061      336.784        8.317      858.032
04/02/2014  13:56:00      -19.608      341.575      -38.922       79.847      122.976       59.568     6375.622    15123.020     3548.324        7.180        1.252      342.137       65.877        0.037      336.747        8.254      857.982
04/02/2014  13:57:00      -95.997      272.868      -26.666       80.653      120.059       55.068     6504.969    14414.195     3032.479        5.416        1.198      289.262       52.162        0.033      336.797        8.337      857.976
04/02/2014  13:58:00     -221.272      148.598      -38.822      145.577      145.504       80.590    21192.523    21171.537     6494.677        6.069        2.443      266.539       68.655        0.066      337.223        9.049      857.985
04/02/2014  13:59:00     -277.263      -25.209      -52.762      142.774      116.797       70.245    20384.291    13641.540     4934.337        5.962        1.948      278.407       65.954        0.056      336.832        8.396      857.976
04/02/2014  14:00:00     -118.178       81.941       -7.710      141.088      170.367       68.616    19905.729    29024.850     4708.158        3.718        2.682      143.807       74.251        0.267      337.126        8.890      857.973
04/02/2014  14:01:00      -66.145      355.728      -30.968       70.634       93.203       55.963     4989.111     8686.796     3131.904        7.434        0.840      361.825       49.098        0.018      336.674        8.130      858.002
04/02/2014  14:02:00     -175.612      133.412      -18.135      135.293      155.502       81.458    18304.109    24180.958     6635.377        4.903        2.456      220.541       72.230        0.107      337.021        8.712      857.997
04/02/2014  14:03:00      -73.814      142.173      -28.009       79.061       90.315       65.841     6250.657     8156.827     4334.992        2.259        0.937      160.192       38.493        0.058      337.526        9.558      857.982
04/02/2014  14:04:00     -170.063       87.335      -28.163      121.662      144.065       55.690    14801.652    20754.581     3101.407        3.799        1.933      191.177       51.058        0.071      337.361        9.280      857.990
04/02/2014  14:05:00     -305.065        3.747      -26.816      120.738      132.909       58.114    14577.653    17664.779     3377.281        6.470        1.781      305.088       23.885        0.006      337.088        8.823      857.957
04/02/2014  14:06:00     -282.864     -104.657      -15.453      147.339      114.042       77.237    21708.737    13005.644     5965.568        6.593        2.034      301.605       72.197        0.057      336.980        8.644      857.908
04/02/2014  14:07:00     -206.836      249.560      -49.615      144.320      185.499       73.584    20828.260    34409.802     5414.532        8.408        3.033      324.131       79.462        0.060      336.937        8.570      857.949
04/02/2014  14:08:00     -207.441      160.588      -31.859      120.390      127.488       62.806    14493.657    16253.130     3944.572        5.226        1.735      262.337       64.211        0.060      336.916        8.536      857.972
04/02/2014  14:09:00     -228.202      378.086      -45.573      107.414      158.994       77.725    11537.717    25279.147     6041.101       11.997        2.143      441.616       86.998        0.039      336.614        8.033      857.981
04/02/2014  14:10:00      -78.556      247.017      -21.808       93.101      111.273       54.825     8667.715    12381.684     3005.811        4.585        1.203      259.207       55.672        0.046      336.822        8.380      857.969
04/02/2014  14:11:00     -187.447      -52.205      -10.456      134.992      122.456       48.922    18222.952    14995.413     2393.352        3.678        1.781      194.581       44.179        0.052      337.031        8.729      857.937
04/02/2014  14:12:00      -85.238       79.880        7.785       81.728       82.398       55.762     6679.437     6789.439     3109.360        1.514        0.829      116.818       43.441        0.138      336.958        8.607      857.913
04/02/2014  14:13:00       31.430       30.126       19.401       40.617       37.095       31.118     1649.735     1376.061      968.319        0.313        0.200       43.536       23.085        0.281      336.998        8.676      857.897
04/02/2014  14:14:00      -38.251      119.312       10.518       93.972      120.305       51.845     8830.713    14473.376     2687.857        2.090        1.300      125.294       63.020        0.253      337.072        8.799      857.888
04/02/2014  14:15:00     -107.564      225.462       -7.373       90.458      107.701       55.403     8182.563    11599.446     3069.529        4.265        1.143      249.806       60.717        0.059      336.999        8.676      857.910
04/02/2014  14:16:00     -179.581      135.209      -29.390       91.409      116.516       63.339     8355.552    13576.081     4011.796        3.866        1.297      224.791       54.351        0.058      337.133        8.900      857.920
04/02/2014  14:17:00     -142.767      197.364      -20.037      104.549      226.802       68.712    10930.504    51438.945     4721.400        6.340        3.355      243.587       63.614        0.068      337.032        8.731      857.930
04/02/2014  14:18:00      -92.052      153.706      -16.687       75.669      117.587       51.432     5725.872    13826.687     2645.210        2.728        1.110      179.162       27.267        0.023      337.502        9.518      857.964
04/02/2014  14:19:00      -25.740       -9.498       14.170       95.148       51.543       47.260     9053.221     2656.633     2233.536        0.745        0.697       27.437       46.889        2.921      337.551        9.603      857.976
04/02/2014  14:20:00      -66.191      156.770        3.103      103.634      123.930       56.316    10740.098    15358.765     3171.543        2.911        1.464      170.170       67.374        0.157      337.131        8.896      857.978
04/02/2014  14:21:00       53.720       94.421        5.639       72.588       78.456       43.211     5269.066     6155.292     1867.211        1.256        0.665      108.633       40.933        0.142      337.168        8.959      857.945
04/02/2014  14:22:00     -143.800       79.842       -6.746      116.954       87.620       43.616    13678.171     7677.240     1902.358        2.517        1.163      164.479       14.273        0.008      337.197        9.006      857.974
04/02/2014  14:23:00     -221.077       69.584      -37.752      157.612      136.361       68.074    24841.637    18594.257     4634.115        5.160        2.404      231.769       72.930        0.099      336.975        8.635      858.017
04/02/2014  14:24:00     -125.069      -34.352        5.891      133.536      112.238       49.622    17831.834    12597.475     2462.352        2.487        1.645      129.701       49.704        0.147      337.301        9.181      857.976
04/02/2014  14:25:00     -145.020      -35.836       14.450      129.227       83.588       59.593    16699.572     6986.881     3551.338        2.488        1.362      149.382       70.443        0.222      337.297        9.174      857.943
04/02/2014  14:26:00     -171.719       88.297      -18.438      181.081      125.665       66.207    32790.297    15791.655     4383.431        4.528        2.648      193.090       87.760        0.207      337.375        9.305      857.993
04/02/2014  14:27:00     -191.816      175.977      -41.865      123.738      140.793       69.263    15311.116    19822.792     4797.335        5.471        1.997      260.310       80.290        0.095      336.984        8.650      858.045
04/02/2014  14:28:00     -157.281      149.990      -24.390      113.852       77.614       54.743    12962.235     6023.989     2996.769        3.490        1.099      217.335       58.314        0.072      336.836        8.403      858.059
04/02/2014  14:29:00     -174.693      -10.103      -28.646      125.514       98.095       37.647    15753.710     9622.566     1417.322        2.911        1.340      174.985       34.132        0.038      336.769        8.289      858.019
04/02/2014  14:30:00      -43.431       11.401       21.002       97.630       47.154       45.537     9531.547     2223.458     2073.657        0.814        0.691       44.903       56.016        1.556      337.234        9.072      857.996
04/02/2014  14:31:00       40.574      254.562      -17.205       87.662      124.266       68.956     7684.626    15442.126     4754.882        4.731        1.394      257.775       73.031        0.080      336.908        8.523      858.014
04/02/2014  14:32:00       58.589      409.218      -41.212      107.693      186.999      101.030    11597.775    34968.770    10207.050       11.467        2.839      413.391      107.049        0.067      336.678        8.137      858.010
04/02/2014  14:33:00      -44.838      337.291      -34.819       66.931      105.802       53.121     4479.807    11194.118     2821.890        6.774        0.925      340.259       52.942        0.024      336.690        8.158      858.017
04/02/2014  14:34:00        1.626      332.306      -38.287       83.896       93.103       50.513     7038.504     8668.186     2551.602        6.507        0.913      332.310       53.468        0.026      337.062        8.780      858.012
04/02/2014  14:35:00      -78.338      245.710      -24.172       70.671      109.384       45.533     4994.434    11964.926     2073.298        4.306        0.952      257.896       48.402        0.035      337.066        8.787      858.009
04/02/2014  14:36:00      -23.557      398.315      -32.435       84.954      144.047       70.080     7217.105    20749.474     4911.206        9.656        1.644      399.011       71.090        0.032      337.007        8.687      857.992
04/02/2014  14:37:00     -226.789      290.931      -47.324      109.150      152.179       63.891    11913.649    23158.319     4082.035        8.873        1.958      368.882       55.710        0.023      336.888        8.488      858.029
04/02/2014  14:38:00     -224.880      306.149      -52.091       98.623      157.642       62.006     9726.451    24850.956     3844.724        9.271        1.921      379.866       69.870        0.034      336.827        8.388      858.055
04/02/2014  14:39:00      -90.474      301.789      -27.537      101.986      140.921       72.469    10401.092    19858.799     5251.709        6.776        1.776      315.059       70.403        0.050      337.119        8.876      858.066
04/02/2014  14:40:00     -107.831      371.621      -43.357      139.603      126.268       80.618    19489.126    15943.509     6499.256        9.676        2.097      386.950       79.341        0.042      336.814        8.364      858.051
04/02/2014  14:41:00     -148.956      181.037      -30.255      105.749       93.352       53.029    11182.917     8714.569     2812.087        3.929        1.135      234.440       53.281        0.052      336.923        8.549      858.017
04/02/2014  14:42:00      -39.420      258.784      -30.025       47.422       69.147       37.555     2248.847     4781.343     1410.397        3.893        0.422      261.769       35.823        0.019      336.684        8.146      858.030
04/02/2014  14:43:00      -38.236       65.661       12.099       59.000       65.963       37.809     3480.956     4351.091     1429.548        0.759        0.463       75.983       37.570        0.244      337.504        9.524      858.005
04/02/2014  14:44:00     -125.066       92.657      -19.922      117.831      105.210       47.140    13884.192    11069.235     2222.184        2.589        1.359      155.650       64.417        0.171      337.446        9.425      857.985
04/02/2014  14:45:00     -215.621       48.989      -23.376      101.875      133.684       50.503    10378.474    17871.405     2550.510        4.011        1.540      221.116       38.725        0.031      337.104        8.850      857.990
04/02/2014  14:46:00     -231.736      386.545      -57.118       90.860      109.381       69.533     8255.544    11964.298     4834.845       11.571        1.253      450.687       47.755        0.011      336.817        8.369      858.009
04/02/2014  14:47:00     -170.982      223.802      -43.547       85.641      121.625       44.916     7334.410    14792.680     2017.402        5.268        1.207      281.642       45.854        0.027      336.966        8.620      858.013
04/02/2014  14:48:00        2.645      307.842      -29.536       88.644      150.857       66.379     7857.735    22757.801     4406.193        6.533        1.751      307.853       77.705        0.064      336.998        8.674      858.008
04/02/2014  14:49:00      -51.918      190.679      -18.168       57.215      147.449       50.907     3273.544    21741.151     2591.518        3.349        1.380      197.621       41.339        0.044      337.033        8.732      857.996
04/02/2014  14:50:00     -225.691      212.484      -27.233      120.268      103.399       65.694    14464.315    10691.429     4315.710        6.314        1.474      309.977       59.060        0.036      337.224        9.051      858.031
04/02/2014  14:51:00     -102.544      124.837        0.758       88.730       93.635       66.265     7872.983     8767.477     4391.087        2.356        1.052      161.553       60.017        0.138      337.334        9.237      858.042
04/02/2014  14:52:00      -63.457      277.660      -12.799       91.042      116.518       63.338     8288.634    13576.482     4011.679        5.358        1.294      284.819       66.997        0.055      336.997        8.672      858.047
04/02/2014  14:53:00      -18.842       97.109      -22.173       49.015       61.290       37.263     2402.508     3756.451     1388.514        0.891        0.377       98.920       33.577        0.115      336.920        8.546      858.029
04/02/2014  14:54:00      -53.730       -9.004      -24.735       41.908       77.269       31.832     1756.268     5970.568     1013.304        0.616        0.437       54.479       13.114        0.058      336.676        8.138      857.982
04/02/2014  14:55:00       28.270      212.799      -22.245       84.829       78.364       61.347     7195.979     6140.893     3763.450        3.184        0.855      214.669       60.406        0.079      336.989        8.657      857.988
04/02/2014  14:56:00      -14.159       88.115       -0.669      112.504       82.440       50.376    12657.130     6796.322     2537.792        1.497        1.100       89.245       47.590        0.284      337.371        9.300      857.974
04/02/2014  14:57:00       -3.713      241.427      -33.127       74.800       94.106       51.103     5595.019     8855.909     2611.544        3.823        0.853      241.456       48.151        0.040      337.012        8.697      857.976
04/02/2014  14:58:00     -133.508      175.029      -24.568       73.449      161.792       59.135     5394.739    26176.555     3496.906        4.206        1.753      220.136       52.864        0.058      337.319        9.210      858.033
04/02/2014  14:59:00     -167.197      149.853      -23.849       85.855      113.315       52.523     7371.088    12840.196     2758.661        3.697        1.148      224.524       51.530        0.053      336.979        8.643      858.043
04/02/2014  15:00:00     -241.362      135.600      -28.992       99.356      143.989       60.358     9871.648    20732.934     3643.107        5.586        1.712      276.844       56.831        0.042      337.062        8.779      858.048
04/02/2014  15:01:00      -51.141      169.865       -9.418       61.379       79.044       47.051     3767.440     6248.015     2213.820        2.189        0.611      177.397       41.782        0.055      337.148        8.925      858.040
04/02/2014  15:02:00        1.591      160.858       10.801       36.046       76.572       43.296     1299.317     5863.277     1874.506        1.751        0.452      160.866       43.155        0.072      337.197        9.008      857.978
04/02/2014  15:03:00       27.169       33.602       13.171       41.058       37.328       35.419     1685.753     1393.381     1254.480        0.319        0.217       43.212       24.403        0.319      337.500        9.515      857.940
04/02/2014  15:04:00      -58.955       67.936      -12.466      123.498       79.292       34.606    15251.682     6287.290     1197.593        1.549        1.137       89.950       23.945        0.071      337.361        9.284      857.943
04/02/2014  15:05:00     -155.482      109.205      -25.946       87.224       88.578       47.076     7608.037     7846.130     2216.118        2.722        0.884      190.001       35.092        0.034      337.449        9.430      857.931
04/02/2014  15:06:00      -78.037      141.355      -14.489       48.145       76.347       46.486     2317.942     5828.896     2160.946        1.829        0.515      161.466       37.767        0.055      337.566        9.627      857.923
04/02/2014  15:07:00      -71.558      110.415      -23.529      105.306      135.714       41.000    11089.257    18418.410     1681.033        2.452        1.559      131.575       25.925        0.039      337.244        9.086      857.888
04/02/2014  15:08:00     -258.808      121.226      -45.844      151.743       82.539       62.513    23025.987     6812.671     3907.841        5.876        1.687      285.792       72.078        0.064      337.609        9.696      857.934
04/02/2014  15:09:00     -175.706       49.738      -13.757      125.353       77.321       70.874    15713.484     5978.542     5023.160        3.012        1.336      182.610       58.422        0.102      337.506        9.524      857.940
04/02/2014  15:10:00     -148.477      205.993      -28.985       73.305       98.577       53.904     5373.655     9717.357     2905.637        4.165        0.900      253.927       40.600        0.026      337.167        8.955      857.968
04/02/2014  15:11:00      -95.903       88.909        0.916       97.909      101.746       57.249     9586.261    10352.239     3277.443        2.015        1.161      130.775       52.666        0.162      337.535        9.575      857.941
04/02/2014  15:12:00      -35.545      269.919      -13.364       78.837      153.902       79.303     6215.253    23685.732     6288.949        5.524        1.809      272.250       80.332        0.087      337.214        9.035      857.958
04/02/2014  15:13:00     -135.502       52.872      -29.761       74.685       95.608       54.800     5577.785     9140.938     3003.018        1.988        0.886      145.452       45.610        0.098      337.413        9.369      857.966
04/02/2014  15:14:00      -62.023      159.447      -13.158       77.287      108.170       51.993     5973.253    11700.808     2703.236        2.491        1.019      171.085       35.840        0.044      337.436        9.406      857.968
04/02/2014  15:15:00      -13.111      264.737       -6.349       80.498      124.503       69.460     6479.958    15500.977     4824.754        4.855        1.340      265.062       66.011        0.062      337.385        9.321      857.944
04/02/2014  15:16:00     -141.786      208.933      -16.234      110.886      171.536       72.799    12295.804    29424.534     5299.734        5.551        2.351      252.500       83.961        0.111      337.421        9.381      857.966
04/02/2014  15:17:00     -139.164      314.766      -39.003       88.653      133.308       67.299     7859.415    17771.094     4529.173        7.506        1.508      344.157       75.314        0.048      337.086        8.820      857.998
04/02/2014  15:18:00     -131.584      335.995      -37.326       92.872      147.566       54.908     8625.251    21775.830     3014.910        8.250        1.671      360.842       64.542        0.032      336.974        8.631      857.979
04/02/2014  15:19:00     -166.563      308.485      -47.744      142.963      132.615       64.438    20438.369    17586.793     4152.277        8.367        2.109      350.580       60.314        0.030      337.008        8.688      857.981
04/02/2014  15:20:00      -88.327      210.760       -7.332       64.943       79.266       48.897     4217.607     6283.169     2390.947        3.258        0.645      228.520       48.847        0.046      337.236        9.071      857.987
04/02/2014  15:21:00      -48.738      149.076      -12.904       71.940       61.423       42.936     5175.422     3772.835     1843.496        1.778        0.540      156.841       40.019        0.065      337.326        9.223      857.958
04/02/2014  15:22:00     -109.258       74.380      -20.686       91.442       59.931       42.931     8361.642     3591.676     1843.095        1.584        0.690      132.173       35.577        0.072      337.117        8.872      857.951
04/02/2014  15:23:00        5.696      129.780       19.620       58.041       80.768       44.652     3368.758     6523.401     1993.777        1.457        0.594      129.905       42.069        0.105      337.443        9.418      857.929
04/02/2014  15:24:00       84.898      189.867       13.716      123.947      137.244       84.785    15362.837    18835.909     7188.498        4.241        2.069      207.983       84.329        0.164      337.347        9.258      857.945
04/02/2014  15:25:00      -60.239      200.033      -26.923       89.602      136.765       52.081     8028.443    18704.680     2712.456        3.690        1.472      208.906       69.497        0.111      337.178        8.974      857.978
04/02/2014  15:26:00      -44.271      268.714      -31.070       78.149      140.875       50.710     6107.310    19845.741     2571.473        5.182        1.426      272.336       53.284        0.038      337.231        9.063      857.978
04/02/2014  15:27:00       19.531      128.902       -9.057       92.599      135.869       49.927     8574.637    18460.473     2492.663        2.330        1.476      130.373       63.140        0.235      337.341        9.247      857.961
04/02/2014  15:28:00       23.154      126.182       -6.255       58.849       76.290       41.161     3463.256     5820.148     1694.193        1.374        0.549      128.289       48.205        0.141      337.217        9.042      857.946
04/02/2014  15:29:00      -59.399      229.621      -26.745       80.467      104.744       44.415     6474.904    10971.314     1972.656        3.819        0.971      237.180       39.495        0.028      337.152        8.929      857.964
04/02/2014  15:30:00      -99.200      156.165      -16.373       95.081       82.664       58.345     9040.434     6833.408     3404.101        2.688        0.964      185.008       51.688        0.078      337.215        9.038      857.962
04/02/2014  15:31:00      -25.802      101.534        8.550       50.441       70.808       43.145     2544.287     5013.843     1861.499        1.023        0.471      104.761       29.737        0.081      337.306        9.190      857.940
04/02/2014  15:32:00      -21.677      201.114      -21.255       52.910       72.446       41.312     2799.497     5248.457     1706.716        2.556        0.488      202.279       35.519        0.031      337.258        9.108      857.944
04/02/2014  15:33:00     -145.975      183.735      -23.749       98.028       86.282       67.334     9609.422     7444.638     4533.851        3.861        1.079      234.664       66.107        0.079      337.340        9.247      857.965
04/02/2014  15:34:00      -71.118      146.022       -2.262       63.442       95.491       47.861     4024.909     9118.575     2290.640        2.091        0.772      162.420       50.305        0.096      337.469        9.464      857.968
04/02/2014  15:35:00      -86.963      128.683      -12.972       87.232       93.501       45.820     7609.367     8742.408     2099.518        2.137        0.923      155.312       50.462        0.106      337.410        9.364      857.997
04/02/2014  15:36:00      -12.309      249.041      -10.720       88.611      151.809       70.319     7851.854    23045.930     4944.789        4.906        1.792      249.345       82.634        0.110      337.296        9.172      857.989
04/02/2014  15:37:00      -19.634      358.296      -39.669      126.362      176.524       78.413    15967.417    31160.835     6148.630        9.180        2.664      358.834       85.998        0.057      337.225        9.052      857.968
04/02/2014  15:38:00     -120.663      299.207      -44.359      128.584      133.557       64.619    16533.945    17837.405     4175.611        7.229        1.927      322.621       63.974        0.039      337.262        9.114      857.960
04/02/2014  15:39:00     -257.256      201.414      -60.274      117.878      127.863       71.733    13895.289    16348.831     5145.677        7.288        1.769      326.724       66.167        0.041      337.274        9.134      858.007
04/02/2014  15:40:00     -240.034      279.951      -55.077      120.912      130.576       74.059    14619.744    17050.147     5484.696        8.808        1.858      368.766       77.444        0.044      337.067        8.787      858.013
04/02/2014  15:41:00     -148.049      205.505      -30.098       99.626       94.726       56.592     9925.282     8973.092     3202.636        4.357        1.105      253.280       57.179        0.051      337.155        8.935      858.018
04/02/2014  15:42:00      -83.696      300.679      -22.220      151.668      197.930       79.850    23003.115    39176.307     6375.991        8.322        3.428      312.110       99.773        0.102      337.152        8.931      858.044
04/02/2014  15:43:00       50.372      330.497      -30.886      100.599      180.056       82.237    10120.195    32420.205     6762.959        8.100        2.465      334.313       92.130        0.076      336.964        8.617      858.000
04/02/2014  15:44:00     -151.508      297.213      -38.757      137.506      161.183       70.363    18907.988    25980.074     4950.940        8.131        2.492      333.602       64.517        0.037      337.022        8.713      857.963
04/02/2014  15:45:00      -94.765       25.551       -3.809      103.832      106.935       53.580    10780.993    11434.994     2870.860        1.736        1.254       98.149       41.657        0.180      337.461        9.450      857.954
04/02/2014  15:46:00     -200.011       39.221      -16.042      162.268      131.428       69.924    26330.748    17273.343     4889.429        4.514        2.425      203.820       81.218        0.159      337.468        9.459      857.960
04/02/2014  15:47:00     -284.586       57.571      -46.814       83.111       87.453       70.990     6907.493     7647.973     5039.585        5.304        0.980      290.351       53.041        0.033      336.966        8.620      857.977
04/02/2014  15:48:00     -192.099       74.541      -11.264      148.325      240.257       74.735    22000.273    57723.241     5585.298        6.393        4.265      206.054       81.324        0.156      337.067        8.788      857.990
04/02/2014  15:49:00     -154.565      307.782      -35.738       62.805      119.848       51.176     3944.458    14363.659     2619.005        7.041        1.046      344.412       54.813        0.025      336.934        8.565      858.033
04/02/2014  15:50:00     -117.216      309.410      -36.457       94.067      139.149       69.443     8848.650    19362.332     4822.277        7.191        1.652      330.868       71.510        0.047      337.071        8.795      858.043
04/02/2014  15:51:00     -161.164      185.385      -27.027      134.822      116.606       64.105    18177.059    13596.917     4109.447        4.847        1.794      245.645       65.455        0.071      337.190        8.994      858.060
04/02/2014  15:52:00      -81.143      195.038        0.598      139.707      118.601       90.005    19518.115    14066.165     8100.931        4.315        2.084      211.244      105.685        0.250      337.127        8.889      858.052
04/02/2014  15:53:00      -17.619      332.733      -43.111      101.555      161.338       60.328    10313.457    26029.925     3639.499        7.642        1.999      333.199       74.597        0.050      337.074        8.801      858.034
04/02/2014  15:54:00      -48.720      316.469      -37.866       82.091       96.021       48.274     6738.902     9220.121     2330.417        6.112        0.914      320.197       44.182        0.019      337.216        9.036      858.023
04/02/2014  15:55:00       -9.293      447.739      -44.563      115.977      210.974       83.270    13450.595    44509.914     6933.829       13.371        3.245      447.836       99.408        0.049      337.078        8.806      858.055
04/02/2014  15:56:00        1.707      211.148      -22.512      103.502      103.169       62.457    10712.574    10643.753     3900.861        3.517        1.263      211.155       56.120        0.071      337.042        8.747      858.060
04/02/2014  15:57:00     -154.167      227.035      -37.803       73.078       95.339       58.831     5340.398     9089.461     3461.136        4.731        0.895      274.431       48.423        0.031      337.396        9.338      858.059
04/02/2014  15:58:00      -77.400      248.509      -22.250      110.509       78.501       65.815    12212.170     6162.369     4331.565        4.547        1.135      260.284       55.173        0.045      337.394        9.335      858.088
04/02/2014  15:59:00     -253.194      225.626      -49.778      157.492      133.568       67.141    24803.643    17840.472     4507.891        8.231        2.358      339.138       73.103        0.046      337.179        8.976      858.150
04/02/2014  16:00:00     -286.941      114.014      -50.173      131.655      142.014       79.783    17333.125    20168.014     6365.389        7.085        2.193      308.762       78.847        0.065      337.027        8.721      858.143
04/02/2014  16:01:00     -298.979      130.143      -58.809      125.052      150.257       77.650    15638.124    22577.265     6029.518        7.701        2.212      326.076       71.298        0.048      336.870        8.459      858.213
04/02/2014  16:02:00     -119.897      104.935        1.208       87.656      100.935       61.605     7683.629    10187.878     3795.192        2.352        1.083      159.332       48.630        0.093      337.065        8.786      858.195
04/02/2014  16:03:00     -184.079       10.022      -24.964      118.807      114.891       75.798    14115.082    13199.875     5745.319        3.383        1.653      184.351       65.606        0.127      337.143        8.916      858.224
04/02/2014  16:04:00      -78.796       53.662       12.396       83.418       96.683       56.044     6958.509     9347.545     3140.966        1.434        0.972       95.334       39.288        0.170      337.267        9.126      858.202
04/02/2014  16:05:00     -170.823      -68.113      -21.613      154.219       91.786       67.593    23783.521     8424.604     4568.769        3.552        1.839      183.902       65.761        0.128      337.200        9.012      858.198
04/02/2014  16:06:00     -288.949       66.525      -43.209      119.925      101.278       60.099    14382.047    10257.182     3611.837        5.901        1.413      296.508       59.641        0.040      337.030        8.725      858.193
04/02/2014  16:07:00      -92.640       76.405        3.225       86.372      117.723       57.994     7460.071    13858.711     3363.304        1.955        1.234      120.082       46.269        0.148      337.193        9.002      858.197
04/02/2014  16:08:00     -225.865      256.252      -47.267      101.516      113.853       67.504    10305.493    12962.522     4556.848        7.336        1.391      341.584       58.778        0.030      337.038        8.740      858.243
04/02/2014  16:09:00     -216.526      197.873      -46.433       96.195       71.689       51.485     9253.409     5139.306     2650.718        5.261        0.852      293.321       51.607        0.031      336.729        8.222      858.223
04/02/2014  16:10:00     -150.914      140.887      -28.704       92.695      108.284       53.926     8592.314    11725.402     2907.986        3.333        1.161      206.457       59.540        0.083      336.876        8.470      858.182
04/02/2014  16:11:00     -111.269       95.000       -7.700       50.902       87.928       35.662     2590.970     7731.289     1271.755        1.653        0.580      146.307       27.996        0.037      337.149        8.928      858.154
04/02/2014  16:12:00      -65.477       22.129       -4.890       68.853       55.645       41.038     4740.675     3096.321     1684.121        0.716        0.476       69.115       34.119        0.244      337.339        9.245      858.144
04/02/2014  16:13:00     -169.656      -24.929      -28.151      169.825       69.464       56.435    28840.367     4825.245     3184.954        3.352        1.843      171.478       57.012        0.111      337.195        9.002      858.141
04/02/2014  16:14:00     -176.013      -43.839      -16.359      109.976       68.173       52.605    12094.701     4647.561     2767.236        2.634        0.975      181.390       57.957        0.102      337.205        9.019      858.123
04/02/2014  16:15:00      -93.782      126.422      -12.008      145.314      112.576       67.478    21116.274    12673.372     4553.342        3.162        1.917      157.409       79.275        0.254      337.341        9.247      858.114
04/02/2014  16:16:00     -110.599       92.194       -8.318       91.891      101.874       54.202     8443.927    10378.394     2937.834        2.128        1.088      143.986       60.836        0.179      337.140        8.911      858.120
04/02/2014  16:17:00     -100.378       60.697       -6.572      117.410      117.191       72.498    13785.214    13733.640     5255.888        2.328        1.639      117.302       67.989        0.336      337.343        9.252      858.097
04/02/2014  16:18:00     -100.994       96.691       -7.874       96.213      139.623       59.769     9256.947    19494.497     3572.296        2.596        1.616      139.817       52.096        0.139      337.503        9.519      858.093
04/02/2014  16:19:00       -0.172      109.370       15.715       72.912       61.410       47.971     5316.136     3771.217     2301.202        1.180        0.569      109.370       40.852        0.140      337.584        9.655      858.078
04/02/2014  16:20:00      -28.791       51.493       -5.987       57.943       56.053       30.323     3357.439     3141.965      919.477        0.547        0.371       58.995       17.238        0.085      337.650        9.768      858.093
04/02/2014  16:21:00     -139.170      101.560      -26.720       62.758       98.329       44.246     3938.564     9668.618     1957.675        2.298        0.778      172.287       49.582        0.083      337.617        9.711      858.082
04/02/2014  16:22:00      -68.632      182.494        0.776      115.609      171.563       68.198    13365.468    29433.985     4650.933        4.272        2.373      194.973       83.272        0.182      337.709        9.865      858.076
04/02/2014  16:23:00      -75.103      238.127      -16.682      139.358      208.825       97.651    19420.758    43607.865     9535.684        6.758        3.628      249.690       94.038        0.142      337.777        9.977      858.064
04/02/2014  16:24:00     -117.356      425.763      -54.435      124.098      153.747       67.301    15400.211    23638.241     4529.429       12.078        2.178      441.641       62.977        0.020      337.536        9.573      858.111
04/02/2014  16:25:00      -91.087      177.348      -11.060       87.718      122.247       53.339     7694.415    14944.211     2845.084        3.267        1.274      199.372       42.536        0.046      337.497        9.509      858.086
04/02/2014  16:26:00     -154.823      194.262      -30.003      120.978      116.580       54.032    14635.668    13590.792     2919.491        4.687        1.557      248.411       60.303        0.059      337.552        9.600      858.074
04/02/2014  16:27:00     -139.146      112.824      -17.624       95.289       93.776       53.598     9079.919     8793.885     2872.693        2.657        1.037      179.140       49.520        0.076      337.665        9.792      858.040
04/02/2014  16:28:00      -47.498      292.417      -26.052       72.190      212.788       59.954     5211.363    45278.606     3594.486        7.125        2.704      296.249       80.446        0.074      337.863       10.123      858.066
04/02/2014  16:29:00      -24.620      572.280      -65.175      121.161      186.954       89.932    14680.014    34951.713     8087.755       19.503        2.886      572.809       90.204        0.025      337.278        9.141      858.104
04/02/2014  16:30:00      -60.162      735.691      -85.655      100.839      161.428       62.300    10168.470    26059.143     3881.251       29.614        2.005      738.146       59.515        0.007      337.071        8.794      858.120
04/02/2014  16:31:00     -108.380      493.995      -61.567       98.723      171.380       53.914     9746.246    29370.999     2906.706       15.079        2.101      505.744       57.133        0.013      337.127        8.889      858.171
04/02/2014  16:32:00       23.417      316.472      -17.403      100.033      150.930       83.856    10006.574    22779.990     7031.811        7.040        1.991      317.337       81.175        0.065      337.223        9.050      858.149
04/02/2014  16:33:00       44.350      359.651      -44.615       97.014      188.502       70.317     9411.712    35532.988     4944.509        9.159        2.494      362.375       73.917        0.042      337.113        8.865      858.086
04/02/2014  16:34:00       -9.734      407.787      -48.885       74.459      131.612       61.571     5544.148    17321.657     3790.965        9.771        1.333      407.903       73.896        0.033      336.893        8.496      858.109
04/02/2014  16:35:00      -75.557      321.307      -39.031       58.057      101.823       42.258     3370.559    10368.013     1785.737        6.299        0.776      330.071       46.471        0.020      337.154        8.933      858.099
04/02/2014  16:36:00      -66.684      199.887      -13.164       77.571      103.488       48.591     6017.335    10709.749     2361.108        3.183        0.954      210.716       49.862        0.056      337.496        9.507      858.089
04/02/2014  16:37:00      -61.094      169.035      -22.958       85.726       76.986       45.348     7348.903     5926.896     2056.402        2.408        0.767      179.737       39.849        0.049      337.762        9.953      858.083
04/02/2014  16:38:00      -36.762      357.058      -46.503       56.336       75.427       41.295     3173.728     5689.205     1705.262        7.078        0.528      358.945       40.238        0.013      337.188        8.989      858.113
04/02/2014  16:39:00      -52.444      242.189      -18.714      105.636      115.958       62.614    11158.993    13446.341     3920.499        4.514        1.426      247.803       61.659        0.062      337.627        9.727      858.078
04/02/2014  16:40:00      -40.608      381.229      -38.541      111.941      148.497       77.587    12530.751    22051.438     6019.806        9.453        2.030      383.386       66.228        0.030      337.679        9.811      858.081
04/02/2014  16:41:00       78.904      331.047      -12.329      102.196      177.408      112.630    10443.961    31473.423    12685.414        8.528        2.730      340.321      114.425        0.113      337.519        9.545      858.069
04/02/2014  16:42:00      -24.398      423.813      -54.364       90.884      135.110       57.566     8259.817    18254.641     3313.879       10.649        1.491      424.514       62.864        0.022      337.525        9.556      858.095
04/02/2014  16:43:00      -50.994      458.571      -48.724       79.865      158.568       66.961     6378.453    25143.951     4483.788       12.563        1.800      461.398       76.146        0.027      337.456        9.440      858.115
04/02/2014  16:44:00     -173.714      322.146      -44.327       91.984      150.306       59.196     8460.975    22592.001     3504.222        8.523        1.728      365.998       56.202        0.024      337.532        9.564      858.127
04/02/2014  16:45:00     -187.994      370.626      -52.842      105.649      112.662       63.195    11161.795    12692.774     3993.600       10.167        1.392      415.579       56.517        0.018      337.412        9.365      858.124
04/02/2014  16:46:00     -168.798      188.161      -48.899      102.403      116.927       57.168    10486.392    13671.807     3268.215        4.685        1.371      252.779       66.089        0.068      337.571        9.632      858.128
04/02/2014  16:47:00      -37.915      185.698      -11.702       63.760      105.210       49.523     4065.397    11069.165     2452.513        2.682        0.879      189.529       39.816        0.044      337.802       10.021      858.123
04/02/2014  16:48:00      -90.931      278.404      -32.560      120.829      139.141       64.410    14599.720    19360.134     4148.682        6.247        1.905      292.877       59.031        0.041      337.760        9.949      858.163
04/02/2014  16:49:00     -160.508      493.183      -63.662      107.347      123.536       56.020    11523.365    15261.066     3138.191       15.148        1.496      518.645       39.384        0.006      337.278        9.140      858.141
04/02/2014  16:50:00     -233.410      260.395      -50.062      139.684      228.016       69.358    19511.664    51991.320     4810.551       10.054        3.816      349.694       95.889        0.075      337.578        9.644      858.121
04/02/2014  16:51:00      -16.975      340.902      -49.501       98.556      135.445       67.374     9713.213    18345.217     4539.266        7.577        1.630      341.324       71.227        0.044      337.664        9.788      858.122
04/02/2014  16:52:00        5.057      409.420      -39.078      115.692      174.068       85.822    13384.635    30299.541     7365.335       11.010        2.552      409.451       93.775        0.052      337.565        9.621      858.157
04/02/2014  16:53:00      -45.344      307.099      -43.363      138.058      167.921       77.819    19060.069    28197.326     6055.871        7.577        2.666      310.429       78.478        0.064      337.567        9.626      858.162
04/02/2014  16:54:00     -110.237      367.506      -44.899      114.872      139.304       59.168    13195.671    19405.574     3500.827        9.266        1.805      383.683       58.700        0.023      337.414        9.368      858.182
04/02/2014  16:55:00      -35.683      242.444      -18.280      134.262      139.567       72.504    18026.232    19478.998     5256.774        5.157        2.138      245.056       90.822        0.137      337.730        9.898      858.208
04/02/2014  16:56:00      -18.376      139.280       -4.956      119.309      107.559       54.234    14234.606    11568.915     2941.332        2.425        1.437      140.487       60.845        0.188      337.912       10.205      858.230
04/02/2014  16:57:00     -111.076      337.420      -34.694      116.962      184.953       69.685    13680.019    34207.601     4855.987        9.006        2.637      355.232       76.353        0.046      337.570        9.631      858.292
04/02/2014  16:58:00     -159.196      125.153      -43.448      105.179      115.405       57.344    11062.534    13318.250     3288.364        3.528        1.383      202.501       41.434        0.042      337.607        9.693      858.308
04/02/2014  16:59:00      -79.834      128.775      -19.356       76.531      133.946       46.780     5857.033    17941.448     2188.401        2.465        1.299      151.514       50.959        0.113      337.314        9.204      858.271
04/02/2014  17:00:00      -54.147      107.696       -2.881       71.657       88.233       54.893     5134.720     7785.100     3013.279        1.523        0.797      120.542       47.481        0.155      337.677        9.812      858.289
04/02/2014  17:01:00     -105.046      128.240      -16.458       76.866       65.970       51.287     5908.336     4352.036     2630.379        2.032        0.645      165.771       42.519        0.066      337.498        9.512      858.298
04/02/2014  17:02:00     -122.063      170.825       -2.917       97.169      102.210       56.314     9441.808    10446.814     3171.277        3.357        1.153      209.954       43.958        0.044      337.603        9.685      858.300
04/02/2014  17:03:00     -117.710      270.204      -39.365       84.852      156.261       49.759     7199.790    24417.383     2475.995        6.125        1.705      294.730       53.583        0.033      337.385        9.320      858.324
04/02/2014  17:04:00     -181.737      236.692      -42.733      116.932      120.784       61.018    13673.183    14588.767     3723.229        6.143        1.599      298.415       67.142        0.051      337.226        9.055      858.325
04/02/2014  17:05:00     -148.281      237.120      -32.154      100.566      136.946       57.481    10113.610    18754.135     3304.122        5.570        1.609      279.666       52.150        0.035      337.141        8.910      858.323
04/02/2014  17:06:00      -76.397      379.589      -37.589       65.051       89.213       41.868     4231.651     7958.897     1752.903        8.264        0.697      387.201       32.703        0.007      337.095        8.833      858.294
04/02/2014  17:07:00      -59.707      226.976      -24.223       85.438       99.416       47.803     7299.617     9883.504     2285.080        3.757        0.973      234.697       46.123        0.039      337.397        9.340      858.277
04/02/2014  17:08:00     -182.110      156.382      -45.977      104.156      110.025       55.291    10848.540    12105.429     3057.148        4.287        1.301      240.040       59.649        0.062      337.330        9.228      858.278
04/02/2014  17:09:00      -74.553      167.548      -26.325      102.148       95.503       47.136    10434.199     9120.775     2221.821        2.805        1.089      183.386       48.707        0.071      337.494        9.505      858.271
04/02/2014  17:10:00      -21.949      331.370      -31.984       96.367      139.909       68.620     9286.604    19574.500     4708.751        7.243        1.678      332.096       67.901        0.042      337.432        9.398      858.259
04/02/2014  17:11:00      -83.800      271.020      -38.263       84.451      135.531       52.253     7132.003    18368.526     2730.392        5.508        1.412      283.680       60.240        0.045      337.476        9.474      858.254
04/02/2014  17:12:00      -28.335      319.858      -38.407       89.869      140.697       55.457     8076.442    19795.736     3075.512        6.776        1.547      321.110       67.830        0.045      337.512        9.533      858.251
04/02/2014  17:13:00     -101.877      522.473      -81.868       85.757      123.516       55.989     7354.293    15256.241     3134.764       15.790        1.287      532.313       47.979        0.008      337.256        9.105      858.264
04/02/2014  17:14:00     -100.030      414.401      -60.012      105.442      174.337       64.252    11118.016    30393.487     4128.366       11.548        2.282      426.303       71.293        0.028      337.415        9.370      858.275
04/02/2014  17:15:00      -93.736      395.933      -47.915       99.090      100.316       54.792     9818.845    10063.205     3002.202        9.536        1.144      406.878       49.016        0.015      337.391        9.330      858.295
04/02/2014  17:16:00     -118.775      323.416      -41.010       95.131      126.115       63.880     9049.890    15905.081     4080.709        7.471        1.452      344.537       60.205        0.031      337.524        9.553      858.289
04/02/2014  17:17:00     -156.655      341.408      -52.257      137.671      137.295       82.555    18953.343    18849.966     6815.272        9.422        2.231      375.634       86.324        0.053      337.534        9.570      858.286
04/02/2014  17:18:00     -144.139      354.290      -60.151      141.090      139.942       71.808    19906.335    19583.714     5156.378        9.727        2.232      382.488       80.590        0.044      337.395        9.338      858.342
04/02/2014  17:19:00     -130.586      347.841      -39.998      128.284      167.435       76.819    16456.788    28034.569     5901.152        9.501        2.520      371.546       89.203        0.058      337.342        9.251      858.347
04/02/2014  17:20:00      -15.002      303.730      -31.664      102.038      154.683       64.121    10411.841    23926.688     4111.533        6.596        1.923      304.101       80.821        0.071      337.244        9.085      858.315
04/02/2014  17:21:00      -41.548      315.209      -49.671      116.224      102.627       57.387    13507.965    10532.288     3293.261        6.544        1.367      317.936       48.310        0.023      337.401        9.346      858.270
04/02/2014  17:22:00       51.879      353.562      -39.192      114.995      161.559       89.514    13223.958    26101.177     8012.673        8.828        2.367      357.348       97.092        0.074      337.372        9.299      858.274
04/02/2014  17:23:00      -83.947      446.071      -54.939       96.369      119.999       58.318     9287.071    14399.824     3400.978       11.806        1.354      453.901       59.486        0.017      337.356        9.271      858.285
04/02/2014  17:24:00     -101.119      328.302      -41.021       94.026      197.847       68.379     8840.961    39143.294     4675.725        8.616        2.633      343.522       86.199        0.063      337.550        9.597      858.271
04/02/2014  17:25:00      -55.115      396.536      -54.301      103.833      125.706       61.177    10781.257    15801.983     3742.599        9.677        1.516      400.348       69.674        0.030      337.407        9.358      858.286
04/02/2014  17:26:00      133.556      209.992       -4.838      107.105      130.991       92.924    11471.574    17158.661     8634.901        4.960        1.863      248.866       82.478        0.110      337.502        9.518      858.274
04/02/2014  17:27:00       20.377       95.893       -4.404       77.325       78.562       43.777     5979.199     6171.910     1916.416        1.185        0.703       98.034       46.318        0.223      337.808       10.031      858.258
04/02/2014  17:28:00      -11.998      132.193      -31.176       91.551       81.335       40.850     8381.510     6615.460     1668.759        1.762        0.833      132.736       47.861        0.130      338.090       10.505      858.236
04/02/2014  17:29:00     -160.691       51.544       -3.521      120.557      116.175       73.286    14534.096    13496.686     5370.783        3.094        1.670      168.755       77.280        0.210      338.348       10.937      858.258
04/02/2014  17:30:00     -108.283      105.183       -3.258       76.144      162.580       52.404     5797.925    26432.127     2746.230        2.888        1.749      150.960       37.165        0.061      338.131       10.571      858.302
04/02/2014  17:31:00     -114.166        1.063       -3.130       82.299       95.100       51.952     6773.140     9044.033     2699.033        1.578        0.926      114.171       31.317        0.075      338.207       10.701      858.284
04/02/2014  17:32:00     -243.383       68.130      -35.623      162.451      126.472       68.393    26390.287    15995.245     4677.550        5.610        2.353      252.739       62.794        0.062      337.811       10.034      858.274
04/02/2014  17:33:00     -117.248      291.903      -33.218       85.679      124.296       59.121     7340.935    15449.413     3495.245        6.317        1.314      314.570       64.115        0.042      337.790        9.999      858.324
04/02/2014  17:34:00     -162.111      292.710      -35.029       79.694      141.034       78.269     6351.075    19890.677     6126.067        7.277        1.618      334.603       70.167        0.044      337.660        9.780      858.360
04/02/2014  17:35:00     -181.246      356.689      -56.443      112.898      100.201       74.837    12745.952    10040.331     5600.584        9.582        1.419      400.096       70.252        0.031      337.499        9.511      858.356
04/02/2014  17:36:00      -88.279      444.399      -58.512      145.690      123.732       70.639    21225.569    15309.609     4989.885       12.511        2.076      453.083       57.013        0.016      337.430        9.396      858.347
04/02/2014  17:37:00     -199.385      356.201      -68.932      114.103      163.627       64.996    13019.557    26773.824     4224.473       10.769        2.201      408.208       70.258        0.030      337.518        9.543      858.348
04/02/2014  17:38:00     -168.774      303.294      -45.697       91.253      118.264       58.859     8327.126    13986.431     3464.331        7.416        1.289      347.091       60.924        0.031      337.609        9.695      858.362
04/02/2014  17:39:00       -2.402      401.494      -65.188       80.658       92.460       48.039     6505.660     8548.770     2307.721        9.140        0.868      401.501       40.773        0.010      337.429        9.394      858.348
04/02/2014  17:40:00     -175.189      348.651      -60.281      150.479      115.642       65.040    22643.814    13373.175     4230.160        9.806        2.012      390.191       63.644        0.027      337.499        9.511      858.360
04/02/2014  17:41:00      -58.379      314.035      -59.538       76.454       74.677       38.004     5845.187     5576.644     1444.307        5.922        0.643      319.415       31.397        0.010      337.458        9.443      858.367
04/02/2014  17:42:00      -86.882      230.225      -28.665       92.603      107.901       59.936     8575.374    11642.618     3592.275        4.259        1.191      246.073       52.381        0.045      337.657        9.776      858.384
04/02/2014  17:43:00      -45.155      504.325      -71.059       55.864       82.327       37.043     3120.744     6777.686     1372.169       13.635        0.564      506.343       35.739        0.005      337.305        9.187      858.384
04/02/2014  17:44:00      -71.542      304.342      -40.254       92.171       80.239       51.107     8495.516     6438.249     2611.970        5.845        0.877      312.637       48.408        0.024      337.519        9.543      858.383
04/02/2014  17:45:00      -62.931      214.818      -31.887       51.344       69.266       40.987     2636.198     4797.780     1679.922        3.012        0.456      223.846       39.675        0.031      337.454        9.435      858.376
04/02/2014  17:46:00      -34.560      272.913      -33.273       89.926      107.608       54.122     8086.753    11579.464     2929.174        4.968        1.130      275.093       63.590        0.053      337.526        9.554      858.359
04/02/2014  17:47:00     -116.291      285.541      -59.193       90.006      142.399       35.262     8101.127    20277.578     1243.402        6.409        1.481      308.313       39.839        0.017      337.734        9.905      858.352
04/02/2014  17:48:00     -211.394       94.328      -35.513      114.221      130.661       56.344    13046.502    17072.239     3174.644        4.406        1.665      231.484       59.278        0.066      337.836       10.075      858.373
04/02/2014  17:49:00     -265.855       57.477      -20.859      128.621      156.621       72.528    16543.482    24530.226     5260.379        6.037        2.317      271.997       77.167        0.080      337.649        9.762      858.365
04/02/2014  17:50:00     -313.609       40.632      -42.387      149.521      115.105       85.163    22356.523    13249.227     7252.788        7.232        2.143      316.231       77.819        0.061      337.774        9.972      858.338
04/02/2014  17:51:00     -255.470       64.923      -50.296      105.337      116.655       63.176    11095.974    13608.473     3991.223        5.035        1.435      263.590       63.103        0.057      337.842       10.086      858.360
04/02/2014  17:52:00     -151.566      207.476      -24.273      119.388      160.737       66.948    14253.394    25836.417     4482.094        5.558        2.229      256.940       78.868        0.094      337.672        9.802      858.383
04/02/2014  17:53:00     -255.337      121.513      -30.405      138.908      138.333       72.368    19295.379    19136.049     5237.175        6.227        2.183      282.777       73.750        0.068      337.797       10.010      858.376
04/02/2014  17:54:00     -211.898      127.514      -28.824      127.149       92.277       75.728    16166.761     8514.975     5734.706        4.620        1.521      247.306       57.504        0.054      337.803       10.022      858.415
04/02/2014  17:55:00     -138.362      181.757      -10.082      120.073      131.319       66.731    14417.410    17244.582     4452.964        4.419        1.806      228.429       63.395        0.077      337.797       10.013      858.407
04/02/2014  17:56:00     -239.323      288.723      -60.470       97.778      108.561       61.052     9560.504    11785.536     3727.312        8.468        1.254      375.015       58.150        0.024      337.684        9.820      858.410
04/02/2014  17:57:00     -158.261      220.242      -25.545      115.731      119.050       60.802    13393.596    14172.975     3696.900        5.273        1.563      271.207       62.785        0.054      337.763        9.953      858.409
04/02/2014  17:58:00     -245.605      198.734      -37.340      174.678      112.613       78.745    30512.479    12681.703     6200.716        7.529        2.470      315.939       94.850        0.090      337.600        9.681      858.423
04/02/2014  17:59:00     -196.400      289.169      -46.652       99.934      124.373       66.254     9986.776    15468.711     4389.615        7.710        1.492      349.559       73.130        0.044      337.645        9.756      858.438
04/02/2014  18:00:00     -109.128      187.241      -29.669       79.895      104.848       52.331     6383.201    10993.027     2738.585        3.398        1.006      216.721       49.262        0.052      337.687        9.828      858.423
04/02/2014  18:01:00      -99.309      230.546      -35.722       90.608      146.868       53.402     8209.757    21570.109     2851.759        4.845        1.632      251.026       62.665        0.062      337.713        9.872      858.417
04/02/2014  18:02:00      -52.944      371.774      -52.415      116.261      108.411       56.559    13516.610    11752.954     3198.884        8.611        1.423      375.525       56.684        0.023      337.562        9.616      858.427
04/02/2014  18:03:00     -169.814      183.392      -25.174      103.113      127.759       53.922    10632.296    16322.411     2907.536        4.648        1.493      249.939       59.917        0.057      337.798       10.012      858.437
04/02/2014  18:04:00      -86.739      129.614       -6.904       78.535      112.841       53.297     6167.767    12733.014     2840.561        2.305        1.087      155.960       59.516        0.146      337.785        9.992      858.451
04/02/2014  18:05:00      -91.827      208.133      -25.296       97.823      115.056       49.424     9569.421    13237.859     2442.777        3.882        1.263      227.490       44.401        0.038      337.687        9.827      858.444
04/02/2014  18:06:00     -132.434      124.512      -15.678      112.172      151.851       65.484    12582.480    23058.693     4288.117        3.660        1.996      181.775       75.516        0.173      337.944       10.259      858.460
04/02/2014  18:07:00     -272.186      313.147      -56.014      115.517      135.865       69.298    13344.086    18459.404     4802.259       10.594        1.830      414.906       77.110        0.035      337.452        9.433      858.494
04/02/2014  18:08:00     -174.115      171.198      -28.523       91.118      115.649       62.544     8302.505    13374.614     3911.773        4.301        1.279      244.182       57.838        0.056      337.630        9.731      858.480
04/02/2014  18:09:00     -174.715      211.464      -39.859      118.357      126.029       59.966    14008.393    15883.316     3595.911        5.515        1.674      274.303       51.645        0.035      337.642        9.750      858.505
04/02/2014  18:10:00      -31.281      390.047      -58.462       81.261      114.557       51.146     6603.273    13123.207     2615.863        8.943        1.117      391.299       49.794        0.016      337.353        9.268      858.479
04/02/2014  18:11:00     -105.503      313.844      -54.191       85.302      114.469       48.782     7276.373    13103.159     2379.726        6.766        1.138      331.103       53.010        0.026      337.490        9.495      858.478
04/02/2014  18:12:00     -140.139      146.509      -35.896       79.165       80.824       53.013     6267.093     6532.521     2810.405        2.900        0.781      202.741       50.744        0.063      337.634        9.738      858.496
04/02/2014  18:13:00     -159.852      208.792      -36.968      118.838      102.023       62.053    14122.500    10408.627     3850.537        4.944        1.419      262.958       53.607        0.042      337.670        9.798      858.500
04/02/2014  18:14:00      -58.366      387.340      -59.450       74.561      112.098       63.078     5559.339    12565.934     3978.816        8.953        1.105      391.713       65.573        0.028      337.532        9.566      858.520
04/02/2014  18:15:00      -78.669      260.448      -34.966       63.476      109.846       55.010     4029.232    12066.201     3026.154        4.718        0.956      272.070       61.137        0.050      337.585        9.656      858.535
04/02/2014  18:16:00       -0.206      335.678      -42.961       71.186      104.200       49.660     5067.431    10857.730     2466.094        6.645        0.920      335.678       50.767        0.023      337.518        9.543      858.527
04/02/2014  18:17:00      -71.387      199.184      -25.832       95.863      112.075       55.539     9189.679    12560.726     3084.548        3.513        1.242      211.591       33.114        0.024      337.638        9.744      858.513
04/02/2014  18:18:00      -31.477      164.485       -3.487       63.039      127.839       54.035     3973.947    16342.879     2919.737        2.564        1.162      167.470       63.216        0.142      337.728        9.895      858.540
04/02/2014  18:19:00     -107.388      354.816      -53.450      106.193      110.996       57.166    11277.030    12320.069     3267.939        8.357        1.343      370.711       58.305        0.025      337.468        9.458      858.553
04/02/2014  18:20:00     -128.129      277.340      -35.390       79.656      105.055       59.287     6345.004    11036.543     3514.943        5.774        1.045      305.507       59.407        0.038      337.513        9.535      858.558
04/02/2014  18:21:00     -142.121      411.311      -62.658       97.173      125.853       52.451     9442.660    15838.947     2751.142       11.066        1.402      435.172       49.745        0.013      337.329        9.227      858.582
04/02/2014  18:22:00     -140.613      331.984      -64.531      109.363      173.656       71.516    11960.253    30156.257     5114.572        9.068        2.362      360.535       62.117        0.030      337.402        9.350      858.573
04/02/2014  18:23:00     -119.757      279.419      -40.774      104.646      148.878       71.388    10950.682    22164.724     5096.317        6.614        1.911      304.001       67.693        0.050      337.463        9.451      858.611
04/02/2014  18:24:00      -78.771      522.736      -74.798      122.520      131.031       68.714    15011.191    17169.047     4721.576       16.097        1.845      528.637       69.322        0.017      337.243        9.083      858.632
04/02/2014  18:25:00      -59.868      458.793      -54.863      119.413      158.735       63.669    14259.448    25196.785     4053.711       13.029        2.175      462.683       58.623        0.016      337.276        9.138      858.651
04/02/2014  18:26:00      -24.704      397.784      -56.824      111.806      141.652       56.303    12500.509    20065.168     3170.025        9.890        1.787      398.550       54.001        0.018      337.296        9.170      858.680
04/02/2014  18:27:00      -63.814      392.419      -50.449       90.807      153.431       62.131     8245.988    23541.097     3860.238        9.812        1.782      397.574       62.558        0.025      337.276        9.137      858.705
04/02/2014  18:28:00      -89.445      312.202      -32.291       95.672      162.804       65.481     9153.106    26505.007     4287.763        7.322        1.997      324.763       77.411        0.057      337.352        9.265      858.725
04/02/2014  18:29:00       -9.480      409.438      -51.535      129.331      147.346       78.605    16726.391    21710.784     6178.817       10.749        2.231      409.547       85.268        0.043      337.151        8.928      858.739
04/02/2014  18:30:00      -76.979      548.699      -77.494       99.037      119.168       47.360     9808.236    14200.984     2242.949       16.962        1.313      554.072       46.885        0.007      337.099        8.842      858.749
04/02/2014  18:31:00      -52.772      453.797      -66.738      105.485      134.217       54.189    11127.073    18014.253     2936.454       12.262        1.604      456.855       55.071        0.015      337.169        8.960      858.762
04/02/2014  18:32:00      -94.671      533.318      -76.078      127.773      120.043       54.418    16326.042    14410.318     2961.323       16.643        1.685      541.655       57.259        0.011      337.060        8.775      858.790
04/02/2014  18:33:00     -189.808      352.704      -51.393       93.982      155.891       70.230     8832.607    24302.046     4932.237       10.056        1.903      400.534       79.161        0.039      337.174        8.966      858.785
04/02/2014  18:34:00      -85.336      265.369      -22.803       75.888      150.736       54.102     5759.015    22721.203     2927.031        5.481        1.570      278.752       73.341        0.069      337.261        9.114      858.785
04/02/2014  18:35:00       27.171      448.400      -56.067      146.363      195.059       72.544    21422.052    38047.873     5262.675       13.483        3.237      449.222       87.076        0.038      337.212        9.031      858.782
04/02/2014  18:36:00       18.460      438.466      -68.845      134.596      157.931       66.997    18115.969    24942.079     4488.542       12.243        2.377      438.855       80.098        0.033      337.093        8.831      858.804
04/02/2014  18:37:00      -58.599      233.239      -41.243      111.505      140.211       63.900    12433.267    19659.003     4083.225        4.785        1.809      240.488       68.313        0.081      337.232        9.066      858.806
04/02/2014  18:38:00     -158.757      259.408      -42.843      113.888      113.612       62.020    12970.514    12907.617     3846.488        6.202        1.486      304.132       50.844        0.028      337.251        9.096      858.830
04/02/2014  18:39:00     -114.905      411.267      -57.607      114.812      166.764       70.185    13181.811    27810.272     4925.894       11.578        2.296      427.017       76.149        0.032      337.122        8.880      858.845
04/02/2014  18:40:00      -62.096      578.345      -68.563       85.852      129.565       55.322     7370.590    16787.146     3060.575       18.512        1.361      581.669       54.985        0.009      337.017        8.705      858.835
04/02/2014  18:41:00     -140.296      300.735      -46.893      134.463      152.971       60.508    18080.414    23400.192     3661.175        7.872        2.257      331.850       73.737        0.049      337.198        9.008      858.847
04/02/2014  18:42:00     -178.869      261.707      -62.995      142.854      101.371       65.098    20407.321    10276.178     4237.803        6.968        1.746      316.993       77.612        0.060      337.191        8.996      858.848
04/02/2014  18:43:00       -9.816      210.334      -10.289       95.118      119.976       60.494     9047.355    14394.161     3659.560        3.577        1.355      210.563       59.101        0.079      337.227        9.057      858.840
04/02/2014  18:44:00      -43.924      178.165      -44.256       89.244      111.820       54.423     7964.542    12503.801     2961.847        2.953        1.172      183.499       31.066        0.029      337.272        9.132      858.855
04/02/2014  18:45:00      -31.611      318.416      -42.455       95.971      112.054       56.522     9210.413    12556.120     3194.784        6.457        1.248      319.981       42.596        0.018      337.172        8.964      858.866
04/02/2014  18:46:00      -71.347      294.096      -39.702      104.181       96.683       64.318    10853.609     9347.598     4136.863        5.874        1.217      302.627       56.695        0.035      337.151        8.928      858.883
04/02/2014  18:47:00     -120.865      240.043      -20.714       96.984      125.325       59.358     9405.841    15706.286     3523.360        5.064        1.432      268.755       55.581        0.043      337.114        8.867      858.882
04/02/2014  18:48:00     -196.515      187.211      -42.546       93.433       76.125       48.501     8729.679     5795.045     2352.302        4.617        0.844      271.415       52.392        0.037      337.225        9.052      858.882
04/02/2014  18:49:00     -136.762      293.606      -43.366       80.938      125.938       44.250     6550.908    15860.443     1958.107        6.557        1.218      323.895       48.871        0.023      337.133        8.897      858.893
04/02/2014  18:50:00     -138.062      247.980      -44.113       94.377      105.718       54.026     8906.995    11176.267     2918.765        5.275        1.150      283.823       52.800        0.035      337.151        8.928      858.889
04/02/2014  18:51:00     -138.860      193.029      -26.351       69.932       97.420       55.125     4890.469     9490.612     3038.795        3.732        0.871      237.787       58.333        0.060      337.234        9.069      858.893
04/02/2014  18:52:00      -55.812      179.991      -12.913       69.043      105.362       42.373     4766.989    11101.179     1795.445        2.667        0.883      188.445       28.183        0.022      337.246        9.088      858.876
04/02/2014  18:53:00      -20.818      183.676       -5.935       80.067      140.759       59.209     6410.709    19813.014     3505.684        3.196        1.486      184.852       60.898        0.109      337.234        9.069      858.889
04/02/2014  18:54:00      -77.042       60.607      -14.984       38.519       67.626       23.888     1483.700     4573.243      570.652        0.823        0.331       98.024       15.396        0.025      337.314        9.205      858.877
04/02/2014  18:55:00     -148.098       23.719      -30.267       72.601       86.204       43.918     5270.964     7431.060     1928.831        1.902        0.732      149.985       34.534        0.053      337.349        9.261      858.880
04/02/2014  18:56:00      -48.478       18.751       12.777       92.435       71.299       37.966     8544.250     5083.547     1441.417        0.896        0.753       51.978       45.562        0.768      337.321        9.217      858.874
04/02/2014  18:57:00     -117.483      106.015      -17.356       77.493       96.486       44.511     6005.133     9309.510     1981.211        2.132        0.865      158.245       43.473        0.075      337.301        9.180      858.879
04/02/2014  18:58:00     -133.107      134.249      -16.060       98.116       95.449       62.916     9626.667     9110.455     3958.483        2.934        1.135      189.051       75.989        0.162      337.323        9.218      858.896
04/02/2014  18:59:00     -138.566      257.470      -40.779       87.158      118.414       51.657     7596.559    14021.845     2668.497        5.572        1.214      292.389       44.537        0.023      337.104        8.849      858.894
04/02/2014  19:00:00      -16.512      256.733      -29.245       42.627      120.736       40.290     1817.057    14577.172     1623.296        4.253        0.901      257.264       54.179        0.044      337.026        8.720      858.878
04/02/2014  19:01:00      -48.727      196.365      -26.037       58.328       77.514       37.128     3402.196     6008.346     1378.504        2.620        0.539      202.321       32.282        0.025      337.096        8.838      858.878
04/02/2014  19:02:00      -73.132      175.982      -36.462       65.830       59.822       30.521     4333.596     3578.651      931.553        2.324        0.442      190.573       25.453        0.018      337.146        8.921      858.885
04/02/2014  19:03:00     -119.846      112.765      -17.764       64.393       77.513       40.283     4146.445     6008.331     1622.688        1.958        0.589      164.556       32.507        0.039      337.242        9.082      858.904
04/02/2014  19:04:00     -118.235       63.443      -13.853       89.935      107.760       46.949     8088.238    11612.127     2204.243        2.005        1.095      134.181       38.713        0.083      337.245        9.087      858.896
04/02/2014  19:05:00     -108.762      -16.513      -16.952      100.548       85.386       57.103    10109.808     7290.734     3260.737        1.652        1.033      110.008       27.868        0.064      337.172        8.965      858.886
04/02/2014  19:06:00     -141.911      -20.565       -7.989       90.582       91.692       50.586     8205.120     8407.505     2558.974        1.989        0.959      143.394       52.533        0.134      337.109        8.860      858.916
04/02/2014  19:07:00     -152.865       11.288      -14.285      111.229       86.227       47.924    12371.870     7435.106     2296.699        2.290        1.105      153.281       54.246        0.125      337.144        8.917      858.930
04/02/2014  19:08:00     -134.074       35.432      -11.596       76.242       69.228       46.296     5812.872     4792.585     2143.334        1.605        0.637      138.676       50.520        0.133      337.102        8.848      858.939
04/02/2014  19:09:00     -202.635       61.522      -36.948       65.745       63.154       35.543     4322.435     3988.399     1263.290        2.789        0.479      211.768       29.990        0.020      337.134        8.901      858.950
04/02/2014  19:10:00      -57.953       -4.640       -0.050       71.842       52.350       33.594     5161.304     2740.541     1128.548        0.620        0.452       58.139       33.696        0.336      337.173        8.968      858.953
04/02/2014  19:11:00     -187.756      -59.365      -18.723      100.318       71.816       35.166    10063.647     5157.587     1236.614        2.779        0.823      196.917       40.291        0.042      337.057        8.771      858.956
04/02/2014  19:12:00     -115.244      -16.802        3.804       61.986       51.836       30.263     3842.253     2686.949      915.844        1.051        0.372      116.463       32.280        0.077      337.059        8.776      858.962
04/02/2014  19:13:00     -116.669       39.568      -14.455       41.070       58.304       29.869     1686.770     3399.358      892.166        1.068        0.299      123.196       17.157        0.019      337.137        8.906      858.965
04/02/2014  19:14:00     -110.081        0.489      -30.087       57.028       79.851       43.521     3252.169     6376.190     1894.045        1.227        0.576      110.082       14.477        0.017      337.166        8.954      858.972
04/02/2014  19:15:00     -143.507       68.938      -28.812       82.667      109.509       42.401     6833.830    11992.150     1797.874        2.340        1.031      159.207       42.562        0.071      337.039        8.741      858.995
04/02/2014  19:16:00     -129.633      185.327      -32.135       50.406       73.404       34.052     2540.744     5388.093     1159.520        3.063        0.454      226.166       20.682        0.008      336.974        8.632      859.007
04/02/2014  19:17:00     -102.571      100.416      -15.506       65.928       69.387       42.576     4346.473     4814.560     1812.751        1.591        0.549      143.542       40.026        0.078      337.110        8.861      859.043
04/02/2014  19:18:00      -62.512      258.366      -14.802       82.219      157.215       63.581     6759.932    24716.616     4042.578        5.319        1.776      265.821       59.604        0.050      336.967        8.621      859.065
04/02/2014  19:19:00     -161.871      336.341      -51.799      120.135      142.917       58.365    14432.404    20425.215     3406.493        9.013        1.913      373.266       69.298        0.034      336.833        8.397      859.049
04/02/2014  19:20:00     -132.914      359.278      -66.427       59.506      108.444       44.345     3540.919    11760.087     1966.483        8.421        0.863      383.075       44.974        0.014      336.830        8.391      859.070
04/02/2014  19:21:00     -151.400      317.574      -37.994       73.328      136.777       57.657     5376.983    18707.973     3324.305        7.631        1.370      351.817       54.986        0.024      336.828        8.387      859.076
04/02/2014  19:22:00     -204.653      238.321      -36.846       96.982      128.651       72.882     9405.441    16551.179     5311.823        6.565        1.563      314.134       75.386        0.058      336.886        8.485      859.083
04/02/2014  19:23:00      -50.990      346.235      -38.561       89.303      134.200       50.933     7974.943    18009.560     2594.134        7.627        1.429      349.969       44.002        0.016      336.734        8.232      859.088
04/02/2014  19:24:00     -109.986      268.345      -23.242       70.586      128.650       61.639     4982.388    16550.948     3799.341        5.498        1.267      290.010       62.321        0.046      336.766        8.286      859.092
04/02/2014  19:25:00     -109.458      207.618      -18.041       62.931       90.648       60.436     3960.304     8217.112     3652.462        3.562        0.791      234.704       48.808        0.043      336.801        8.344      859.099
04/02/2014  19:26:00     -120.149      174.846      -29.565       70.836       65.859       39.092     5017.784     4337.470     1528.199        2.838        0.544      212.149       31.937        0.023      336.772        8.296      859.102
04/02/2014  19:27:00      -77.258      187.732      -19.220       70.363      149.547       48.235     4950.981    22364.224     2326.651        3.561        1.482      203.007       65.021        0.103      336.820        8.377      859.105
04/02/2014  19:28:00     -134.386      266.679      -38.926       68.887      134.471       46.940     4745.365    18082.352     2203.327        5.786        1.252      298.626       40.211        0.018      336.736        8.235      859.115
04/02/2014  19:29:00     -133.279      140.092      -22.048       54.221       71.509       38.922     2939.919     5113.538     1514.920        2.372        0.478      193.363       34.475        0.032      336.731        8.227      859.115
04/02/2014  19:30:00      -90.333      106.389      -19.170       50.862       75.250       30.370     2586.933     5662.591      922.360        1.451        0.459      139.566       32.219        0.053      336.818        8.375      859.126
04/02/2014  19:31:00      -95.421      120.706      -18.601       66.041      101.808       46.273     4361.466    10364.961     2141.187        2.044        0.843      153.867       39.251        0.065      336.787        8.324      859.129
04/02/2014  19:32:00      -45.085       49.243       -1.529       48.035       90.253       32.935     2307.386     8145.642     1084.728        0.800        0.577       66.764       15.111        0.051      336.784        8.318      859.129
04/02/2014  19:33:00      -98.289      183.173      -21.219       71.356       86.834       38.926     5091.618     7540.088     1515.262        2.890        0.707      207.878       41.765        0.040      336.670        8.126      859.121
04/02/2014  19:34:00     -175.688      154.155      -30.234       86.795       90.016       52.917     7533.419     8102.966     2800.236        3.699        0.922      233.731       48.796        0.044      336.702        8.178      859.123
04/02/2014  19:35:00      -70.144      218.675      -21.631       55.549      147.593       41.000     3085.729    21783.804     1680.968        3.987        1.328      229.650       57.866        0.063      336.687        8.156      859.121
04/02/2014  19:36:00     -109.281       44.726      -20.039       48.318       74.189       33.704     2334.618     5504.032     1135.934        1.166        0.449      118.080       31.619        0.072      336.790        8.327      859.125
04/02/2014  19:37:00      -77.749      175.464       -9.862       83.441      129.858       48.895     6962.432    16863.176     2390.757        3.157        1.311      191.918       42.320        0.049      336.740        8.243      859.145
04/02/2014  19:38:00     -131.434       87.381      -21.086       78.581       88.128       34.883     6175.008     7766.579     1216.852        2.025        0.758      157.830       31.494        0.040      336.692        8.164      859.162
04/02/2014  19:39:00     -117.456      114.879      -22.898       59.041      110.550       46.791     3485.851    12221.295     2189.377        2.270        0.895      164.296       52.600        0.102      336.652        8.097      859.167
04/02/2014  19:40:00      -96.117      181.031      -18.079       84.297       90.518       57.216     7105.921     8193.510     3273.714        3.045        0.929      204.965       55.276        0.073      336.619        8.042      859.176
04/02/2014  19:41:00     -117.137       45.021       -9.251       46.034       53.989       33.568     2119.144     2914.773     1126.827        1.100        0.308      125.491       23.877        0.036      336.670        8.130      859.198
04/02/2014  19:42:00     -102.739       95.877      -19.894       59.463       48.824       28.739     3535.824     2383.738      825.902        1.344        0.337      140.526       25.096        0.032      336.722        8.214      859.213
04/02/2014  19:43:00      -14.199      116.849        2.422       51.344       57.978       38.366     2636.240     3361.430     1471.967        1.066        0.373      117.708       33.945        0.083      336.591        7.994      859.218
04/02/2014  19:44:00     -129.728      136.087      -33.036       65.619       85.362       33.375     4305.890     7286.620     1113.868        2.457        0.635      188.013       43.540        0.054      336.571        7.961      859.249
04/02/2014  19:45:00     -126.952      116.908      -14.879       79.734       84.348       51.586     6357.507     7114.624     2661.093        2.307        0.807      172.581       48.975        0.081      336.572        7.962      859.264
04/02/2014  19:46:00      -99.536      114.789      -15.643       64.229       64.204       39.041     4125.327     4122.132     1524.228        1.655        0.489      151.934       35.621        0.055      336.578        7.972      859.297
04/02/2014  19:47:00     -112.565      100.740      -33.263       73.769       93.932       38.245     5441.804     8823.189     1462.703        1.982        0.786      151.061       30.088        0.040      336.584        7.981      859.321
04/02/2014  19:48:00      -78.182       85.421       -7.582       65.592       71.831       42.632     4302.293     5159.698     1817.492        1.237        0.564      115.798       46.749        0.163      336.540        7.910      859.342
04/02/2014  19:49:00     -131.673      115.490      -26.013       49.060       80.688       35.847     2406.853     6510.563     1285.028        2.078        0.510      175.145       28.641        0.027      336.544        7.915      859.362
04/02/2014  19:50:00     -112.026       22.953        3.974       79.592       68.542       36.840     6334.896     4697.939     1357.215        1.274        0.620      114.353       31.078        0.074      336.566        7.953      859.379
04/02/2014  19:51:00     -109.772       72.994      -16.071       77.273       58.339       31.256     5971.176     3403.385      976.923        1.399        0.518      131.826       33.055        0.063      336.554        7.933      859.403
04/02/2014  19:52:00     -138.565       54.512      -12.822       53.885       62.238       37.735     2903.596     3873.600     1423.898        1.527        0.410      148.902       25.303        0.029      336.599        8.008      859.419
04/02/2014  19:53:00      -81.864       19.829        1.875       51.079       52.326       31.195     2609.089     2737.971      973.099        0.671        0.316       84.231       32.230        0.146      336.534        7.901      859.438
04/02/2014  19:54:00      -95.997       27.853      -22.333       49.431       65.828       24.596     2443.445     4333.308      604.971        0.893        0.369       99.956        7.056        0.005      336.501        7.846      859.450
04/02/2014  19:55:00     -140.363       11.522      -11.973       69.634       45.402       32.611     4848.868     2061.359     1063.458        1.397        0.399      140.835       32.417        0.053      336.498        7.839      859.470
04/02/2014  19:56:00      -93.247      -47.967        4.054       71.357       40.398       30.271     5091.769     1632.004      916.321        0.932        0.382      104.861       28.593        0.074      336.447        7.754      859.478
04/02/2014  19:57:00      -94.247      -41.249        0.602       39.624       37.097       22.725     1570.099     1376.190      516.413        0.702        0.173      102.879       19.937        0.038      336.319        7.540      859.507
04/02/2014  19:58:00      -76.890        1.958       -6.387       42.357       38.230       24.990     1794.083     1461.530      624.482        0.492        0.194       76.915       22.051        0.082      336.524        7.884      859.531
04/02/2014  19:59:00      -97.261      -39.637        0.537       46.708       52.405       20.733     2181.622     2746.321      429.848        0.819        0.268      105.027       14.986        0.020      336.351        7.593      859.553
04/02/2014  20:00:00     -149.848      -23.222      -14.899       44.508       48.857       22.976     1980.984     2386.972      527.911        1.405        0.245      151.637       21.945        0.021      336.314        7.532      859.576
04/02/2014  20:01:00      -74.180      -84.767       18.025       76.797       56.046       37.282     5897.814     3141.167     1389.924        1.172        0.521      112.642       45.117        0.160      336.162        7.278      859.593
04/02/2014  20:02:00     -107.571      -35.130        5.827       57.100       64.904       30.794     3260.357     4212.530      948.240        1.063        0.421      113.162       32.794        0.084      336.148        7.254      859.609
04/02/2014  20:03:00     -136.397      -74.299       -6.279       52.580       63.992       33.204     2764.628     4094.977     1102.533        1.606        0.398      155.320       22.660        0.021      336.125        7.215      859.616
04/02/2014  20:04:00     -138.890      -22.382        0.467       66.077       61.780       31.052     4366.183     3816.826      964.213        1.447        0.457      140.682       32.283        0.053      336.135        7.233      859.638
04/02/2014  20:05:00     -175.077      -39.355       -3.896       59.987       53.946       33.691     3598.423     2910.209     1135.057        1.993        0.382      179.446       32.170        0.032      335.963        6.945      859.666
04/02/2014  20:06:00     -195.572      -17.960       -8.845       99.284       55.230       41.361     9857.375     3050.371     1710.715        2.663        0.731      196.395       53.002        0.073      336.015        7.031      859.679
04/02/2014  20:07:00     -169.174      -79.692       -8.210      102.097       55.263       33.320    10423.750     3054.019     1110.249        2.481        0.729      187.005       42.190        0.051      336.029        7.053      859.690
04/02/2014  20:08:00     -175.837      -43.773       -1.233       69.522       55.566       36.449     4833.281     3087.580     1328.564        2.104        0.462      181.203       36.286        0.040      336.049        7.086      859.732
04/02/2014  20:09:00     -178.555      -29.540       -6.637       61.522       48.891       34.574     3785.003     2390.355     1195.330        2.008        0.369      180.982       37.668        0.043      336.139        7.239      859.767
04/02/2014  20:10:00     -203.617      -35.659        0.233       65.156       47.908       35.254     4245.297     2295.218     1242.812        2.526        0.389      206.716       35.996        0.030      336.053        7.094      859.792
04/02/2014  20:11:00     -192.513      -56.969       -2.508       59.253       50.185       25.365     3510.897     2518.508      643.389        2.349        0.334      200.765       18.828        0.009      336.014        7.029      859.824
04/02/2014  20:12:00     -214.593      -35.876       -3.491       72.267       69.457       42.022     5222.482     4824.220     1765.878        2.958        0.591      217.571       44.389        0.042      336.006        7.016      859.846
04/02/2014  20:13:00     -199.833      -83.441      -14.292       53.463       54.854       31.260     2858.317     3008.951      977.166        2.697        0.342      216.554       16.874        0.006      335.901        6.839      859.867
04/02/2014  20:14:00     -121.597      -79.546       -6.610       53.334       54.182       29.001     2844.569     2935.734      841.075        1.389        0.331      145.305       19.708        0.018      335.940        6.908      859.883
04/02/2014  20:15:00     -120.086       -5.940      -11.586       89.500       50.884       30.232     8010.211     2589.174      913.975        1.305        0.576      120.232       35.127        0.085      335.895        6.831      859.914
04/02/2014  20:16:00      -76.323       71.671       -4.787       52.495       43.721       30.984     2755.718     1911.542      959.995        0.830        0.281      104.699       19.887        0.036      335.976        6.968      859.909
04/02/2014  20:17:00     -113.068       32.201      -10.817       35.489       31.844       25.792     1259.439     1014.072      665.227        0.844        0.147      117.564       19.984        0.029      335.967        6.953      859.919
04/02/2014  20:18:00      -90.831        9.491       -6.318       31.559       36.085       25.777      995.957     1302.152      664.474        0.567        0.148       91.326       19.565        0.046      335.889        6.824      859.942
04/02/2014  20:19:00      -84.734        9.375       -9.529       33.621       23.986       22.488     1130.395      575.343      505.703        0.478        0.111       85.251       24.344        0.082      335.893        6.830      859.946
04/02/2014  20:20:00     -177.207       38.361      -16.470       33.710       24.267       17.303     1136.369      588.893      299.404        1.758        0.101      181.312        9.778        0.003      335.764        6.614      859.959
04/02/2014  20:21:00     -136.748       37.562      -18.173       36.454       34.051       22.319     1328.907     1159.472      498.138        1.171        0.149      141.813       16.226        0.013      335.709        6.523      859.970
04/02/2014  20:22:00     -148.120       -5.415      -19.130       34.384       20.325       20.640     1182.254      413.107      426.012        1.218        0.101      148.219       21.747        0.022      335.767        6.621      859.959
04/02/2014  20:23:00     -126.960      -20.580      -17.376       23.895       12.817       13.748      570.989      164.271      188.999        0.888        0.046      128.617       14.085        0.012      335.779        6.640      859.966
04/02/2014  20:24:00      -77.697      -30.461       -8.622       25.571       26.034       19.221      653.857      677.790      369.461        0.437        0.085       83.455       15.667        0.035      335.862        6.780      859.963
04/02/2014  20:25:00      -57.527      -42.160        1.495       40.634       28.569       19.487     1651.103      816.172      379.758        0.397        0.142       71.322       20.729        0.084      335.883        6.814      859.952
04/02/2014  20:26:00      -76.514      -33.113       -3.392       26.582       27.462       17.612      706.581      754.173      310.170        0.437        0.089       83.372       14.428        0.030      335.886        6.818      859.954
04/02/2014  20:27:00      -54.947       33.202       -5.623       20.025       28.440       12.706      401.010      808.845      161.434        0.276        0.069       64.199       12.674        0.039      335.928        6.888      859.960
04/02/2014  20:28:00      -78.964        0.142       -8.721       18.162       30.066       12.709      329.868      903.944      161.513        0.385        0.070       78.964       11.020        0.019      335.957        6.934      859.960
04/02/2014  20:29:00      -82.064       -9.487      -15.373       25.954       23.963       20.578      673.628      574.228      423.451        0.437        0.084       82.611       17.482        0.045      335.885        6.816      859.974
04/02/2014  20:30:00      -95.478      -36.055       -9.459       31.971       20.343       17.023     1022.146      413.833      289.778        0.612        0.086      102.059       16.680        0.027      335.895        6.833      859.980
04/02/2014  20:31:00     -129.092      -28.920      -17.274       25.148       32.268       18.734      632.409     1041.235      350.979        0.991        0.101      132.292        5.854        0.002      335.841        6.743      859.999
04/02/2014  20:32:00     -127.549       10.652      -14.755       26.409       24.236       16.264      697.454      587.390      264.533        0.907        0.077      127.993       13.794        0.012      335.818        6.706      860.022
04/02/2014  20:33:00     -109.149      -47.156      -10.588       22.334       34.625       15.136      498.797     1198.880      229.113        0.809        0.096      118.900       14.320        0.015      335.829        6.724      860.028
04/02/2014  20:34:00      -73.275       -9.219       -9.531       32.834       45.366       22.940     1078.088     2058.055      526.261        0.460        0.183       73.853       18.366        0.062      335.751        6.594      860.051
04/02/2014  20:35:00      -68.950      -23.768       -9.991       24.341       36.529       21.427      592.491     1334.392      459.130        0.390        0.119       72.932        8.204        0.013      335.793        6.665      860.062
04/02/2014  20:36:00      -71.981      -34.250       -2.297       34.081       30.873       20.547     1161.518      953.129      422.195        0.445        0.127       79.714       20.520        0.066      335.659        6.441      860.062
04/02/2014  20:37:00      -64.948      -18.246        1.527       40.136       23.432       17.614     1610.918      549.060      310.249        0.351        0.124       67.462       21.265        0.099      335.651        6.427      860.078
04/02/2014  20:38:00     -115.777      -13.438      -14.525       24.807       31.316       18.893      615.374      980.675      356.938        0.787        0.098      116.554       12.099        0.011      335.739        6.574      860.085
04/02/2014  20:39:00      -79.688      -20.146      -10.193       21.961       20.933       19.323      482.297      438.198      373.364        0.408        0.065       82.195       11.690        0.020      335.728        6.556      860.110
04/02/2014  20:40:00     -119.610      -35.381      -11.443       29.977       23.313       22.161      898.638      543.482      491.117        0.881        0.097      124.733       17.331        0.019      335.711        6.526      860.131
04/02/2014  20:41:00     -122.098       -8.287      -19.417       22.327       31.041       18.928      498.479      963.538      358.287        0.859        0.091      122.379       12.972        0.011      335.637        6.405      860.136
04/02/2014  20:42:00      -85.387      -15.959      -30.217       31.210       33.725       22.891      974.092     1137.373      524.013        0.555        0.132       86.866       13.179        0.023      335.684        6.484      860.159
04/02/2014  20:43:00      -51.434       32.584        2.565       42.021       43.259       18.730     1765.733     1871.303      350.807        0.385        0.199       60.887       16.010        0.069      335.654        6.432      860.164
04/02/2014  20:44:00      -20.866       -3.426       -5.289       28.722       16.430       12.024      824.949      269.929      144.584        0.086        0.062       21.146        5.644        0.071      335.614        6.367      860.160
04/02/2014  20:45:00      -22.658      -32.640       -0.355       24.203       17.028       14.597      585.778      289.968      213.082        0.133        0.054       39.734       11.551        0.085      335.663        6.447      860.167
04/02/2014  20:46:00      -56.332      -24.905       -6.602       20.477       12.916        8.879      419.304      166.822       78.831        0.225        0.033       61.592        5.843        0.009      335.588        6.323      860.171
04/02/2014  20:47:00      -45.848      -30.255       -6.184       18.063       19.264       13.264      326.254      371.101      175.939        0.196        0.044       54.931        4.567        0.007      335.641        6.410      860.169
04/02/2014  20:48:00      -24.753      -14.668       -1.346       21.568       13.493       10.729      465.178      182.065      115.101        0.080        0.038       28.772        6.356        0.049      335.677        6.472      860.181
04/02/2014  20:49:00        6.352       43.146       -9.075       34.125       34.955       13.544     1164.510     1221.860      183.449        0.228        0.128       43.611       14.507        0.111      335.605        6.351      860.186
04/02/2014  20:50:00      -44.052      -40.770        8.338       35.931       21.023       22.629     1291.040      441.955      512.077        0.296        0.112       60.023       23.358        0.151      335.630        6.391      860.184
04/02/2014  20:51:00      -43.160      -32.993        0.230       41.835       19.929       14.677     1750.191      397.165      215.410        0.266        0.118       54.326       15.604        0.083      335.634        6.400      860.184
04/02/2014  20:52:00     -104.721      -52.806       -5.497       49.956       28.686       22.502     2495.599      822.863      506.350        0.880        0.191      117.282       24.071        0.042      335.603        6.347      860.182
04/02/2014  20:53:00     -119.631      -53.705       -9.023       29.914       24.945       16.701      894.866      622.274      278.933        0.954        0.090      131.133       16.112        0.015      335.585        6.317      860.200
04/02/2014  20:54:00      -86.227      -60.746       -2.356       51.313       37.827       19.928     2633.027     1430.888      397.126        0.780        0.223      105.476       23.972        0.052      335.537        6.236      860.202
04/02/2014  20:55:00      -57.941      -45.686       -0.027       32.598       30.224       17.231     1062.623      913.463      296.914        0.386        0.114       73.786       16.795        0.052      335.526        6.219      860.196
04/02/2014  20:56:00      -25.169      -37.289       11.711       41.095       30.881       22.761     1688.832      953.631      518.084        0.266        0.158       44.988       22.287        0.245      335.546        6.253      860.209
04/02/2014  20:57:00      -91.518      -46.283       -3.816       32.733       23.383       19.964     1071.425      546.760      398.543        0.627        0.101      102.555       17.545        0.029      335.491        6.161      860.211
04/02/2014  20:58:00      -91.310      -26.642       -8.615       40.603       33.645       19.709     1648.613     1131.986      388.428        0.614        0.158       95.117       23.213        0.060      335.480        6.141      860.213
04/02/2014  20:59:00     -137.712      -51.355      -11.128       34.148       25.290       17.152     1166.062      639.596      294.177        1.191        0.105      146.976       17.601        0.014      335.428        6.054      860.222
04/02/2014  21:00:00     -101.344      -38.510       -5.384       57.561       28.095       23.961     3313.271      789.322      574.120        0.823        0.234      108.414       26.486        0.060      335.512        6.196      860.216
04/02/2014  21:01:00      -79.865      -53.603       -3.124       49.145       32.658       18.734     2415.232     1066.551      350.980        0.655        0.192       96.186       11.104        0.013      335.498        6.172      860.229
04/02/2014  21:02:00      -31.470       -9.508       10.651       51.000       30.557       19.995     2600.975      933.751      399.799        0.256        0.197       32.875       22.377        0.463      335.399        6.007      860.235
04/02/2014  21:03:00      -59.661      -41.371      -11.913       36.877       18.322       11.375     1359.900      335.698      129.379        0.362        0.091       72.602       12.470        0.030      335.391        5.993      860.233
04/02/2014  21:04:00      -60.563      -35.855       -3.804       34.016       27.016       17.181     1157.079      729.839      295.178        0.357        0.109       70.381       17.146        0.059      335.518        6.206      860.243
04/02/2014  21:05:00      -42.013      -23.121        7.203       39.735       23.280       21.874     1578.872      541.978      478.482        0.247        0.130       47.955       20.691        0.186      335.451        6.094      860.243
04/02/2014  21:06:00      -54.214      -22.764        4.233       40.704       27.605       19.427     1656.855      762.021      377.390        0.314        0.140       58.800       15.772        0.072      335.488        6.156      860.245
04/02/2014  21:07:00      -41.030      -26.482        7.359       42.767       33.621       25.191     1829.012     1130.358      634.579        0.302        0.180       48.834       25.321        0.269      335.436        6.069      860.260
04/02/2014  21:08:00      -53.218      -56.946       11.515       68.442       34.567       26.621     4684.264     1194.905      708.695        0.640        0.329       77.942       34.598        0.197      335.380        5.975      860.264
04/02/2014  21:09:00      -99.540      -91.398        2.727       63.718       48.847       26.150     4060.022     2386.015      683.841        1.270        0.356      135.136       29.642        0.048      335.343        5.912      860.257
04/02/2014  21:10:00      -86.755      -74.313        4.693       74.809       46.618       38.256     5596.378     2173.283     1463.546        1.115        0.462      114.232       39.858        0.122      335.364        5.949      860.275
04/02/2014  21:11:00      -61.043      -58.400        7.182       51.882       49.598       35.613     2691.756     2459.993     1268.313        0.680        0.321       84.480       35.093        0.173      335.389        5.989      860.277
04/02/2014  21:12:00      -52.423      -70.527        6.756       76.158       55.020       34.967     5800.087     3027.242     1222.685        0.891        0.503       87.876       35.891        0.167      335.363        5.947      860.294
04/02/2014  21:13:00     -126.963      -59.367       -1.226       57.818       44.726       30.553     3342.932     2000.429      933.493        1.296        0.314      140.157       28.943        0.043      335.351        5.925      860.316
04/02/2014  21:14:00      -69.160      -44.018       -2.918       67.469       35.933       31.993     4552.011     1291.162     1023.569        0.680        0.343       81.980       38.316        0.218      335.356        5.935      860.327
04/02/2014  21:15:00     -131.712      -52.669        1.678       48.386       38.170       24.213     2341.177     1456.919      586.254        1.225        0.219      141.852       25.031        0.031      335.319        5.873      860.344
04/02/2014  21:16:00     -101.954      -56.173       -2.027       45.073       36.616       24.492     2031.609     1340.762      599.866        0.876        0.199      116.405       19.905        0.029      335.364        5.946      860.352
04/02/2014  21:17:00      -74.358      -62.972        8.277       68.327       45.242       28.914     4668.516     2046.798      836.036        0.856        0.378       97.441       29.149        0.089      335.385        5.984      860.365
04/02/2014  21:18:00     -107.904      -79.351        2.519       54.167       50.360       28.603     2934.049     2536.080      818.149        1.212        0.314      133.939       27.781        0.043      335.433        6.062      860.379
04/02/2014  21:19:00     -110.682      -35.815       -2.720       38.510       36.552       24.374     1483.016     1336.022      594.074        0.848        0.171      116.332       21.127        0.033      335.436        6.067      860.380
04/02/2014  21:20:00      -77.981      -26.124       -2.287       34.047       20.685       17.389     1159.203      427.856      302.362        0.433        0.094       82.240       18.046        0.048      335.372        5.960      860.388
04/02/2014  21:21:00     -117.487      -30.042      -16.863       38.244       32.989       17.284     1462.576     1088.242      298.723        0.892        0.142      121.268       16.825        0.019      335.540        6.242      860.413
04/02/2014  21:22:00     -129.329        0.932      -18.051       21.254       24.643       15.413      451.743      607.268      237.552        0.917        0.065      129.333       14.209        0.012      335.496        6.166      860.418
04/02/2014  21:23:00      -30.645      -40.021        5.622       40.379       21.497       17.418     1630.438      462.127      303.394        0.248        0.120       50.406       21.685        0.185      335.491        6.160      860.418
04/02/2014  21:24:00      -18.097      -17.765        9.268       22.612       16.358       12.622      511.290      267.577      159.308        0.083        0.047       25.359       11.543        0.207      335.480        6.141      860.431
04/02/2014  21:25:00      -62.577       -2.103       -8.666       13.095       16.537        8.622      171.482      273.456       74.335        0.226        0.026       62.613        6.940        0.012      335.612        6.365      860.432
04/02/2014  21:26:00      -37.936      -30.209        0.758       31.106       22.073       12.202      967.590      487.223      148.883        0.198        0.080       48.494        9.686        0.040      335.657        6.438      860.438
04/02/2014  21:27:00      -13.122      -62.910        3.091       22.928       26.174       13.549      525.671      685.070      183.585        0.277        0.070       64.263       11.459        0.032      335.781        6.645      860.446
04/02/2014  21:28:00      -46.265      -43.742       -1.551       41.449       22.868       19.634     1718.010      522.944      385.478        0.334        0.131       63.670       15.529        0.059      335.689        6.492      860.464
04/02/2014  21:29:00     -113.562      -49.155      -11.069       51.122       45.137       29.874     2613.480     2037.322      892.441        1.049        0.277      123.744       29.939        0.059      335.643        6.415      860.465
04/02/2014  21:30:00     -145.290       -5.641       -5.774       54.874       36.747       27.560     3011.140     1350.323      759.575        1.315        0.256      145.399       29.414        0.041      335.608        6.354      860.470
04/02/2014  21:31:00      -28.500      -84.395        4.719       41.810       54.241       24.285     1748.038     2942.076      589.752        0.662        0.264       89.078       11.023        0.015      335.670        6.458      860.481
04/02/2014  21:32:00       -5.475      -25.136       17.036       43.963       49.550       29.823     1932.759     2455.211      889.416        0.311        0.264       25.725       25.146        0.955      335.635        6.401      860.472
04/02/2014  21:33:00      -42.731      -20.216        4.724       27.353       32.948       18.981      748.213     1085.584      360.290        0.223        0.110       47.272       15.991        0.114      335.664        6.447      860.466
04/02/2014  21:34:00      -83.827      -35.736       -0.232       43.327       33.621       15.792     1877.204     1130.383      249.389        0.578        0.163       91.127       16.896        0.034      335.667        6.455      860.470
04/02/2014  21:35:00     -140.505      -59.816       -7.822       32.379       27.602       22.172     1048.410      761.889      491.600        1.284        0.115      152.708       13.632        0.008      335.667        6.453      860.483
04/02/2014  21:36:00      -70.744      -56.346       -0.432       58.491       31.297       23.075     3421.233      979.496      532.444        0.656        0.247       90.441       27.116        0.090      335.696        6.502      860.486
04/02/2014  21:37:00      -96.561      -52.613       -2.479       61.487       32.602       24.924     3780.685     1062.892      621.199        0.878        0.273      109.964       31.244        0.081      335.665        6.449      860.483
04/02/2014  21:38:00      -68.031      -26.500       11.663       83.898       42.709       34.048     7038.910     1824.051     1159.267        0.774        0.501       73.010       44.364        0.369      335.585        6.317      860.481
04/02/2014  21:39:00      -95.329      -72.010        8.690       91.190       55.766       36.274     8315.647     3109.850     1315.770        1.354        0.637      119.470       43.478        0.132      335.745        6.582      860.490
04/02/2014  21:40:00     -116.371      -51.765       -0.810       66.719       51.122       35.084     4451.388     2613.493     1230.857        1.226        0.415      127.365       39.730        0.097      335.699        6.507      860.490
04/02/2014  21:41:00     -112.938      -30.010       -1.084       61.820       43.686       26.700     3821.737     1908.448      712.902        1.005        0.322      116.858       15.515        0.018      335.629        6.391      860.493
04/02/2014  21:42:00     -104.005      -15.000        3.370       88.569       54.884       30.985     7844.432     3012.277      960.054        1.143        0.591      105.081       31.877        0.092      335.531        6.227      860.493
04/02/2014  21:43:00     -195.646      -64.330       -6.561       57.531       44.052       32.959     3309.775     1940.536     1086.265        2.440        0.317      205.951       32.714        0.025      335.572        6.293      860.485
04/02/2014  21:44:00     -196.200      -61.394      -14.018       48.457       55.642       25.131     2348.075     3096.044      631.553        2.427        0.304      205.581       19.596        0.009      335.550        6.254      860.502
04/02/2014  21:45:00     -124.490      -69.564        1.625       85.824       43.049       34.834     7365.777     1853.253     1213.409        1.538        0.522      142.607       30.603        0.046      335.741        6.575      860.494
04/02/2014  21:46:00     -161.725      -61.138       -7.863       41.284       37.932       27.411     1704.388     1438.863      751.377        1.692        0.195      172.895       18.618        0.012      335.671        6.462      860.479
04/02/2014  21:47:00     -132.343      -68.767        1.455       64.481       52.438       31.603     4157.843     2749.756      998.733        1.507        0.395      149.143       34.281        0.053      335.637        6.403      860.468
04/02/2014  21:48:00     -179.841      -65.162       -7.498       56.135       45.859       29.574     3151.171     2103.002      874.644        2.139        0.306      191.283       31.770        0.028      335.579        6.305      860.475
04/02/2014  21:49:00     -140.214      -62.917       -5.965       47.824       46.857       28.592     2287.094     2195.588      817.482        1.448        0.265      153.683       24.698        0.026      335.568        6.289      860.460
04/02/2014  21:50:00     -147.438      -77.799       -1.012       70.009       35.760       27.579     4901.193     1278.767      760.604        1.736        0.347      166.706       24.973        0.022      335.595        6.332      860.448
04/02/2014  21:51:00     -120.195      -27.114        8.003       57.371       51.614       33.322     3291.400     2663.965     1110.327        1.115        0.353      123.215       29.945        0.059      335.538        6.238      860.447
04/02/2014  21:52:00     -164.217      -83.013       -1.075       60.794       54.126       31.687     3695.880     2929.585     1004.087        2.074        0.381      184.007       25.769        0.020      335.609        6.355      860.451
04/02/2014  21:53:00      -76.091      -49.875        5.943       77.928       54.730       36.046     6072.813     2995.349     1299.284        0.934        0.518       90.980       44.106        0.235      335.576        6.302      860.455
04/02/2014  21:54:00      -94.215      -43.351        4.046       68.187       43.638       25.481     4649.488     1904.250      649.272        0.899        0.360      103.710       31.572        0.093      335.543        6.248      860.459
04/02/2014  21:55:00     -138.966      -47.003        3.065      102.396       55.679       41.023    10485.039     3100.178     1682.897        1.840        0.763      146.700       45.159        0.095      335.478        6.138      860.460
04/02/2014  21:56:00     -147.182      -33.838        3.942       68.587       69.052       42.307     4704.156     4768.208     1789.870        1.704        0.563      151.022       37.447        0.061      335.450        6.090      860.457
04/02/2014  21:57:00     -146.082      -70.242       -6.544       68.777       41.392       35.038     4730.301     1713.307     1227.638        1.699        0.384      162.092       37.068        0.052      335.370        5.958      860.464
04/02/2014  21:58:00     -149.294      -30.925        7.272       50.025       42.747       27.162     2502.487     1827.268      737.798        1.418        0.253      152.464       22.501        0.022      335.331        5.893      860.459
04/02/2014  21:59:00     -106.818      -43.634        0.120       64.851       49.608       29.059     4205.626     2460.971      844.409        1.041        0.376      115.386       32.124        0.078      335.369        5.956      860.443
04/02/2014  22:00:00     -108.459      -31.051       -1.497       49.201       50.146       27.428     2420.702     2514.575      752.292        0.921        0.284      112.817       20.620        0.033      335.405        6.015      860.428
04/02/2014  22:01:00     -102.874       -6.692        3.928       71.819       42.518       34.630     5157.952     1807.757     1199.213        0.940        0.408      103.091       37.593        0.133      335.332        5.894      860.435
04/02/2014  22:02:00     -223.366      -63.631       -3.819       62.506       57.653       32.541     3906.980     3323.844     1058.915        3.112        0.414      232.253       35.370        0.023      335.247        5.750      860.450
04/02/2014  22:03:00     -179.442     -108.960        4.410       75.466       68.766       34.620     5695.085     4728.767     1198.550        2.785        0.581      209.932       36.570        0.030      335.237        5.733      860.457
04/02/2014  22:04:00     -175.427      -96.207       -0.394       68.613       53.866       33.304     4707.758     2901.582     1109.136        2.437        0.436      200.076       33.544        0.028      335.234        5.730      860.465
04/02/2014  22:05:00     -186.199      -84.937       -4.279       62.915       50.905       33.799     3958.286     2591.355     1142.389        2.480        0.385      204.657       34.170        0.028      335.268        5.786      860.469
04/02/2014  22:06:00     -137.470      -90.490        6.521       75.092       49.721       33.769     5638.827     2472.172     1140.333        1.819        0.463      164.580       38.293        0.054      335.288        5.821      860.469
04/02/2014  22:07:00     -201.326     -100.321      -13.758       65.526       50.682       33.803     4293.612     2568.644     1142.669        2.939        0.400      224.937       25.933        0.013      335.397        6.000      860.461
04/02/2014  22:08:00     -146.065      -62.324       -3.554       73.049       48.237       28.266     5336.092     2326.780      798.952        1.685        0.423      158.805       30.320        0.036      335.306        5.850      860.449
04/02/2014  22:09:00     -109.202      -22.935       -1.938       55.243       40.108       25.069     3051.834     1608.682      628.431        0.887        0.264      111.584       27.463        0.061      335.333        5.896      860.459
04/02/2014  22:10:00     -121.137      -19.113        1.964       58.646       39.155       24.882     3439.361     1533.100      619.107        1.032        0.280      122.636       30.696        0.063      335.309        5.856      860.455
04/02/2014  22:11:00     -159.328      -49.493       -4.046       57.717       48.462       26.455     3331.287     2348.532      699.890        1.711        0.319      166.838       26.826        0.026      335.347        5.918      860.448
04/02/2014  22:12:00     -132.286      -31.870      -10.897       36.663       31.448       23.460     1344.147      988.994      550.388        1.076        0.144      136.071       19.748        0.021      335.327        5.886      860.457
04/02/2014  22:13:00     -158.903      -29.712      -14.586       28.323       39.959       20.844      802.198     1596.720      434.459        1.459        0.142      161.657       13.449        0.007      335.281        5.809      860.454
04/02/2014  22:14:00     -143.694      -44.688       -2.645       54.060       35.195       24.171     2922.514     1238.692      584.260        1.370        0.237      150.483       20.029        0.018      335.298        5.837      860.454
04/02/2014  22:15:00     -129.649        6.869      -12.259       38.411       34.912       20.631     1475.415     1218.862      425.654        1.006        0.156      129.831       20.269        0.024      335.242        5.745      860.472
04/02/2014  22:16:00     -148.364      -16.535       -7.504       50.260       74.312       27.814     2526.019     5522.239      773.597        1.558        0.441      149.283       19.790        0.018      335.131        5.562      860.493
04/02/2014  22:17:00     -159.738      -74.714       -0.982       58.500       41.709       33.396     3422.209     1739.603     1115.310        1.869        0.314      176.348       33.111        0.035      335.221        5.710      860.491
04/02/2014  22:18:00     -117.475      -24.521       -1.938       62.022       46.217       26.989     3846.705     2135.985      728.405        1.056        0.336      120.007       25.879        0.047      335.192        5.662      860.507
04/02/2014  22:19:00     -206.931       -1.055      -25.241       42.300       38.408       26.442     1789.326     1475.166      699.155        2.371        0.198      206.933       24.245        0.014      335.060        5.442      860.531
04/02/2014  22:20:00     -146.853      -49.464      -13.848       39.600       45.720       27.112     1568.121     2090.326      735.081        1.430        0.220      154.960       17.612        0.013      335.048        5.423      860.545
04/02/2014  22:21:00     -173.769      -86.601       -1.061       49.122       46.236       30.189     2412.924     2137.737      911.362        2.158        0.273      194.153       28.962        0.022      335.144        5.581      860.552
04/02/2014  22:22:00     -138.643      -60.792       -4.329       63.318       39.467       28.021     4009.161     1557.665      785.188        1.464        0.318      151.386       33.245        0.048      335.181        5.642      860.562
04/02/2014  22:23:00     -111.006      -77.863       -2.561       39.764       38.487       26.647     1581.169     1481.280      710.075        1.108        0.189      135.591       24.681        0.033      335.156        5.602      860.578
04/02/2014  22:24:00      -57.948      -80.394       -0.451       75.837       41.560       38.930     5751.269     1727.265     1515.509        0.941        0.450       99.102       40.101        0.164      335.188        5.656      860.592
04/02/2014  22:25:00      -65.784      -30.069        7.685       80.896       43.771       31.548     6544.176     1915.882      995.255        0.737        0.473       72.330       20.914        0.084      335.128        5.557      860.606
04/02/2014  22:26:00      -53.414      -50.773        7.225       53.557       41.321       33.824     2868.362     1707.399     1144.054        0.560        0.286       73.695       26.579        0.130      335.090        5.493      860.636
04/02/2014  22:27:00     -132.485      -62.158       -2.132       53.201       30.558       23.815     2830.318      933.775      567.148        1.287        0.217      146.342       24.522        0.028      335.035        5.402      860.654
04/02/2014  22:28:00     -151.094      -28.293       -4.585       55.088       39.512       24.611     3034.684     1561.197      605.725        1.443        0.260      153.720       23.806        0.024      334.945        5.253      860.671
04/02/2014  22:29:00     -127.928      -27.514        8.759       50.699       36.774       25.637     2570.367     1352.317      657.263        1.089        0.229      130.853       26.596        0.041      334.990        5.327      860.680
04/02/2014  22:30:00      -95.484      -93.849        9.191       48.152       51.002       33.716     2318.642     2601.247     1136.788        1.203        0.303      133.884       31.382        0.055      335.043        5.415      860.704
04/02/2014  22:31:00      -94.872     -104.129        4.287       78.186       47.410       39.469     6113.007     2247.703     1557.838        1.489        0.496      140.867       38.990        0.077      335.057        5.439      860.718
04/02/2014  22:32:00     -106.560      -74.446        9.805       72.608       46.612       32.304     5271.991     2172.692     1043.521        1.274        0.424      129.989       39.305        0.091      335.065        5.451      860.727
04/02/2014  22:33:00      -49.466      -30.312       12.545       46.431       26.078       23.045     2155.799      680.076      531.090        0.344        0.168       58.015       26.085        0.202      335.082        5.482      860.741
04/02/2014  22:34:00      -55.233        8.060       -2.768       29.157       41.104       17.130      850.159     1689.525      293.420        0.298        0.142       55.818       17.746        0.101      334.881        5.145      860.762
04/02/2014  22:35:00      -60.580       16.824       -9.227       29.911       19.380       12.328      894.650      375.585      151.985        0.273        0.071       62.873       11.869        0.036      334.640        4.747      860.775
04/02/2014  22:36:00      -45.384       -1.497       -3.313       26.950       14.032       11.444      726.316      196.910      130.961        0.156        0.053       45.408       11.590        0.065      334.736        4.905      860.775
04/02/2014  22:37:00      -35.060        6.187        0.970       13.676       22.176       10.307      187.041      491.795      106.239        0.103        0.039       35.601       11.632        0.107      334.778        4.977      860.778
04/02/2014  22:38:00      -44.449       -6.123        4.547       22.617       17.863       14.298      511.550      319.097      204.433        0.153        0.052       44.868       12.537        0.078      334.849        5.093      860.781
04/02/2014  22:39:00       10.398       -1.227        4.032       10.058        8.491        9.545      101.171       72.104       91.105        0.020        0.013       10.471        8.000        0.584      334.846        5.088      860.784
04/02/2014  22:40:00       29.288       38.853       27.684       18.668       22.421       17.346      348.497      502.703      300.899        0.214        0.058       48.655       13.005        0.071      334.847        5.092      860.791
04/02/2014  22:41:00       21.724       52.771       57.501       25.486       27.869       20.827      649.529      776.666      433.775        0.421        0.093       57.067        9.588        0.028      334.932        5.230      860.803
04/02/2014  22:42:00       24.429       34.622       46.315       25.921       23.848       18.767      671.898      568.748      352.186        0.277        0.080       42.373       13.121        0.096      334.892        5.165      860.826
04/02/2014  22:43:00       63.528       44.790       40.520       25.945       25.102       20.807      673.121      630.125      432.936        0.471        0.087       77.730       11.938        0.024      334.709        4.861      860.835
04/02/2014  22:44:00       66.399       56.913       57.180       59.232       39.331       36.835     3508.433     1546.958     1356.794        0.866        0.321       87.453       27.932        0.102      334.904        5.185      860.833
04/02/2014  22:45:00       72.764       49.222       54.338       46.830       35.614       35.214     2193.085     1268.372     1240.035        0.768        0.235       87.848       29.368        0.112      334.874        5.134      860.839
04/02/2014  22:46:00       84.816       21.839       39.487       62.503       37.718       36.425     3906.619     1422.664     1326.811        0.794        0.333       87.583       29.273        0.112      334.838        5.075      860.842
04/02/2014  22:47:00       39.181       35.409       51.384       34.362       40.163       27.041     1180.752     1613.053      731.205        0.448        0.176       52.810       25.721        0.237      334.832        5.065      860.849
04/02/2014  22:48:00       51.576       23.327       38.662       35.730       42.003       28.932     1276.618     1764.281      837.085        0.429        0.194       56.606       27.109        0.229      334.933        5.233      860.854
04/02/2014  22:49:00       76.226       31.743       41.716       30.949       36.418       31.690      957.855     1326.254     1004.235        0.592        0.164       82.571       22.371        0.073      334.985        5.318      860.854
04/02/2014  22:50:00       21.434        3.262       22.930       40.487       30.053       28.892     1639.176      903.188      834.735        0.219        0.169       21.681       32.705        2.276      335.011        5.363      860.870
04/02/2014  22:51:00       41.711      -60.199        2.014       38.436       73.013       31.352     1477.347     5330.955      982.920        0.658        0.390       73.238       38.090        0.270      335.053        5.432      860.874
04/02/2014  22:52:00       30.591      -27.045       19.984       39.957       56.176       30.979     1596.580     3155.700      959.721        0.389        0.286       40.832       30.538        0.559      335.055        5.436      860.871
04/02/2014  22:53:00       -1.741      -54.131       16.692       44.245       65.374       39.562     1957.645     4273.786     1565.161        0.550        0.390       54.159       44.582        0.678      335.073        5.465      860.868
04/02/2014  22:54:00      -36.120      -26.886       -8.508       29.483       27.926       21.921      869.267      779.856      480.548        0.211        0.106       45.028        5.689        0.016      335.032        5.397      860.875
04/02/2014  22:55:00      -17.782      -11.438        7.373       24.245       32.391       13.509      587.815     1049.179      182.487        0.116        0.091       21.143       12.239        0.335      335.051        5.429      860.881
04/02/2014  22:56:00        0.508       -9.189        7.689       13.871       16.833       15.932      192.401      283.348      253.844        0.044        0.036        9.203       11.290        1.505      335.019        5.374      860.891
04/02/2014  22:57:00      -21.428      -26.935        5.884       35.526       23.181       19.635     1262.100      537.378      385.546        0.170        0.109       34.419       15.427        0.201      335.047        5.422      860.894
04/02/2014  22:58:00      -60.714      -58.127        6.077       54.710       34.792       24.832     2993.184     1210.501      616.636        0.596        0.241       84.053       26.782        0.102      335.042        5.415      860.889
04/02/2014  22:59:00      -58.393      -73.825       -0.184       44.107       32.451       23.207     1945.395     1053.063      538.558        0.620        0.177       94.127       19.637        0.044      335.073        5.465      860.893
04/02/2014  23:00:00      -49.808      -90.043        6.287       49.021       33.858       24.251     2403.064     1146.339      588.133        0.738        0.207      102.901       20.908        0.041      335.085        5.485      860.905
04/02/2014  23:01:00      -39.237      -66.870       10.333       35.913       35.415       27.058     1289.735     1254.209      732.119        0.470        0.164       77.532       21.055        0.074      335.082        5.480      860.909
04/02/2014  23:02:00      -43.906      -48.442        7.877       47.454       40.457       19.422     2251.861     1636.740      377.212        0.430        0.213       65.379       23.996        0.135      335.097        5.504      860.911
04/02/2014  23:03:00     -100.108      -88.093        3.001       47.513       34.242       30.813     2257.451     1172.513      949.432        1.108        0.219      133.349       27.164        0.041      335.021        5.380      860.919
04/02/2014  23:04:00     -120.187     -111.645       -8.194       33.447       37.407       24.957     1118.698     1399.303      622.856        1.506        0.157      164.041       20.219        0.015      334.925        5.220      860.936
04/02/2014  23:05:00      -98.205      -84.610       -3.791       42.125       40.065       33.127     1774.509     1605.214     1097.390        1.065        0.224      129.627       28.412        0.048      334.843        5.085      860.948
04/02/2014  23:06:00     -110.669     -100.237      -16.268       30.288       26.052       18.323      917.338      678.698      335.727        1.225        0.097      149.315       13.579        0.008      334.830        5.061      860.955
04/02/2014  23:07:00     -112.319      -91.182      -16.734       20.442       30.384       14.904      417.889      923.214      222.127        1.139        0.078      144.670        7.595        0.003      334.800        5.010      860.952
04/02/2014  23:08:00     -104.863      -50.862      -11.728       21.037       19.555       16.395      442.567      382.392      268.782        0.741        0.055      116.547        5.006        0.002      334.834        5.069      860.942
04/02/2014  23:09:00      -56.223      -45.264        4.335       47.139       29.975       22.486     2222.078      898.492      505.613        0.443        0.181       72.179       23.531        0.106      334.791        4.996      860.937
04/02/2014  23:10:00      -62.402      -54.491        2.742       31.804       34.866       14.699     1011.504     1215.603      216.047        0.466        0.122       82.845       14.018        0.029      334.750        4.928      860.939
04/02/2014  23:11:00      -69.705      -39.319       -5.599       41.468       25.926       18.631     1719.580      672.140      347.123        0.459        0.137       80.030       14.293        0.032      334.724        4.885      860.943
04/02/2014  23:12:00      -52.544      -34.494        9.019       36.965       38.633       29.379     1366.420     1492.487      863.126        0.388        0.186       62.855       21.735        0.120      334.637        4.741      860.946
04/02/2014  23:13:00      -78.005      -64.703       -4.511       41.547       29.318       15.833     1726.127      859.552      250.676        0.656        0.142      101.347       12.569        0.015      334.640        4.744      860.951
04/02/2014  23:14:00      -57.845      -43.975       -0.397       41.929       20.004       17.154     1758.041      400.149      294.259        0.387        0.123       72.663       12.588        0.030      334.566        4.622      860.949
04/02/2014  23:15:00      -60.290      -41.288        7.068       31.046       19.180       17.398      963.863      367.888      302.693        0.351        0.082       73.072       16.629        0.052      334.602        4.683      860.952
04/02/2014  23:16:00      -66.861      -61.282        1.004       40.520       34.685       21.715     1641.868     1203.080      471.558        0.577        0.166       90.696       19.826        0.048      334.570        4.629      860.956
04/02/2014  23:17:00      -79.243      -50.309       -2.274       50.624       19.699       19.328     2562.822      388.038      373.574        0.607        0.166       93.864       17.460        0.035      334.459        4.446      860.949
04/02/2014  23:18:00      -35.783      -32.137        0.978       45.071       24.843       18.191     2031.371      617.182      330.927        0.265        0.149       48.096       18.008        0.140      334.451        4.433      860.946
04/02/2014  23:19:00     -101.308      -39.201       -2.262       28.468       31.988       15.801      810.439     1023.206      249.680        0.694        0.104      108.628       13.810        0.016      334.326        4.225      860.933
04/02/2014  23:20:00     -138.635      -55.081        2.084       36.204       34.804       25.785     1310.699     1211.344      664.868        1.272        0.159      149.176       22.252        0.022      334.271        4.132      860.929
04/02/2014  23:21:00     -134.890      -34.922       -7.092       32.746       35.123       19.780     1072.295     1233.636      391.257        1.108        0.135      139.337       16.328        0.014      334.276        4.141      860.920
04/02/2014  23:22:00      -73.422        0.580       -0.651       53.348       30.110       24.668     2846.062      906.583      608.500        0.488        0.218       73.424       19.761        0.072      334.128        3.896      860.914
04/02/2014  23:23:00     -122.115      -23.112       -3.915       33.505       30.320       17.737     1122.592      919.327      314.597        0.891        0.118      124.283       15.675        0.016      334.065        3.791      860.909
04/02/2014  23:24:00     -147.272      -22.869      -14.309       26.793       24.807       16.859      717.881      615.387      284.217        1.202        0.081      149.037       12.688        0.007      333.934        3.573      860.907
04/02/2014  23:25:00     -133.722      -20.767      -11.709       29.386       29.985       20.395      863.565      899.096      415.953        1.031        0.109      135.325       15.811        0.014      333.897        3.512      860.902
04/02/2014  23:26:00     -149.932      -62.952       -6.873       27.804       31.296       20.388      773.063      979.414      415.690        1.433        0.108      162.612       12.391        0.006      333.923        3.555      860.898
04/02/2014  23:27:00     -130.062      -23.545       -3.095       45.715       28.347       23.201     2089.865      803.553      538.275        1.046        0.172      132.176       20.673        0.024      333.908        3.532      860.895
04/02/2014  23:28:00     -100.497      -25.230       -7.084       30.004       37.662       17.726      900.217     1418.430      314.221        0.671        0.132      103.616       14.544        0.020      333.853        3.441      860.887
04/02/2014  23:29:00     -133.090      -24.830      -19.532       23.677       25.958       18.358      560.612      673.819      336.999        1.014        0.079      135.386       13.688        0.010      333.804        3.357      860.885
04/02/2014  23:30:00     -126.708       -4.840       -7.368       41.883       25.500       21.130     1754.175      650.251      446.469        0.949        0.143      126.801       21.820        0.030      333.720        3.219      860.883
04/02/2014  23:31:00     -136.261      -26.072      -12.630       37.881       29.849       18.401     1435.003      890.964      338.587        1.103        0.133      138.732       17.889        0.017      333.737        3.247      860.871
04/02/2014  23:32:00     -130.984      -55.769      -10.557       32.906       23.136       20.242     1082.806      535.265      409.756        1.120        0.101      142.362       19.300        0.018      333.788        3.333      860.865
04/02/2014  23:33:00     -104.011      -35.950       -2.403       39.133       27.630       26.353     1531.409      763.438      694.482        0.755        0.149      110.049       18.518        0.028      333.787        3.331      860.853
04/02/2014  23:34:00     -115.282      -44.135       -9.755       28.424       34.861       21.211      807.911     1215.316      449.897        0.890        0.124      123.441       19.165        0.024      333.738        3.248      860.851
04/02/2014  23:35:00     -125.925      -75.453      -13.541       22.329       33.483       15.623      498.571     1121.134      244.078        1.180        0.093      146.800       13.117        0.008      333.707        3.199      860.843
04/02/2014  23:36:00     -124.903      -63.696      -10.936       39.405       30.162       16.773     1552.715      909.744      281.336        1.126        0.137      140.206       20.303        0.021      333.703        3.190      860.832
04/02/2014  23:37:00     -122.162      -64.620       -3.503       42.529       29.906       23.452     1808.681      894.365      549.983        1.118        0.163      138.200       23.861        0.030      333.720        3.220      860.832
04/02/2014  23:38:00     -119.938      -47.525       -3.560       47.659       22.602       17.756     2271.400      510.858      315.288        0.988        0.155      129.010       16.772        0.017      333.729        3.234      860.833
04/02/2014  23:39:00     -100.139      -52.320       -4.629       43.407       32.504       18.785     1884.205     1056.519      352.866        0.804        0.165      112.983       17.824        0.025      333.727        3.231      860.836
04/02/2014  23:40:00     -128.339      -48.631       -5.631       34.734       29.899       21.055     1206.467      893.932      443.316        1.071        0.127      137.243       18.535        0.018      333.710        3.202      860.837
04/02/2014  23:41:00     -116.395      -61.204       -6.910       46.174       25.845       20.662     2132.054      667.950      426.899        1.028        0.161      131.505       20.893        0.025      333.636        3.081      860.843
04/02/2014  23:42:00     -124.762      -20.021       -1.325       48.197       25.075       25.060     2322.992      628.745      628.026        0.977        0.179      126.358       26.295        0.043      333.564        2.961      860.837
04/02/2014  23:43:00     -120.124      -21.566       -5.643       26.896       23.425       17.744      723.385      548.708      314.854        0.826        0.079      122.045       14.249        0.014      333.605        3.028      860.830
04/02/2014  23:44:00     -137.085      -52.629       -8.002       29.873       13.956       14.234      892.403      194.762      202.605        1.146        0.064      146.840       14.985        0.010      333.504        2.860      860.826
04/02/2014  23:45:00      -98.504      -53.875      -14.357       25.019       20.106       15.334      625.953      404.251      235.132        0.704        0.063      112.275        4.059        0.001      333.576        2.980      860.824
04/02/2014  23:46:00     -107.599      -21.853      -15.994       13.801       18.493       16.590      190.467      341.978      275.221        0.656        0.040      109.796        8.327        0.006      333.521        2.889      860.827
04/02/2014  23:47:00     -132.412      -16.185      -18.500       25.715       24.297       16.355      661.268      590.352      267.484        0.983        0.076      133.397       14.741        0.012      333.402        2.695      860.826
04/02/2014  23:48:00      -96.026      -37.095       -4.182       40.780       23.508       18.171     1663.028      552.640      330.168        0.658        0.127      102.942       16.268        0.025      333.429        2.736      860.827
04/02/2014  23:49:00      -87.092      -44.712       -7.405       42.651       23.269       16.153     1819.110      541.446      260.907        0.613        0.131       97.899        7.413        0.006      333.512        2.873      860.831
04/02/2014  23:50:00      -85.575      -90.660       -0.288       42.010       37.391       20.953     1764.843     1398.107      439.039        0.957        0.180      124.669       18.426        0.022      333.560        2.954      860.831
04/02/2014  23:51:00      -83.974      -73.969        4.751       61.534       51.810       29.596     3786.466     2684.301      875.935        0.994        0.367      111.907       35.499        0.101      333.624        3.059      860.830
04/02/2014  23:52:00     -139.366     -118.929       -4.519       33.577       44.306       29.376     1127.404     1963.065      862.969        1.877        0.198      183.214       23.719        0.017      333.662        3.122      860.830
04/02/2014  23:53:00     -151.954     -101.680        2.563       49.681       44.179       29.282     2468.186     1951.803      857.437        1.936        0.264      182.836       26.825        0.022      333.652        3.105      860.838
04/02/2014  23:54:00     -123.745      -65.357        2.377       44.344       59.780       24.015     1966.405     3573.684      576.724        1.285        0.306      139.945       23.928        0.029      333.683        3.159      860.841
04/02/2014  23:55:00     -109.262      -80.370       -0.536       68.831       40.984       29.495     4737.683     1679.653      869.936        1.284        0.364      135.638       32.261        0.057      333.739        3.250      860.837
04/02/2014  23:56:00      -96.397      -97.175       -2.176       41.112       40.507       21.812     1690.218     1640.839      475.758        1.127        0.190      136.877       12.605        0.008      333.756        3.279      860.838
04/02/2014  23:57:00      -85.599     -113.890        3.457       56.662       48.135       32.451     3210.601     2316.966     1053.087        1.344        0.329      142.471       34.123        0.057      333.782        3.321      860.848
04/02/2014  23:58:00     -110.461     -142.536       -9.644       64.635       54.418       39.810     4177.678     2961.308     1584.867        2.067        0.436      180.328       30.921        0.029      333.672        3.138      860.862
04/02/2014  23:59:00     -106.889      -94.497        8.117       63.766       51.695       45.264     4066.062     2672.358     2048.874        1.460        0.439      142.671       37.721        0.070      333.648        3.100      860.862
